[[{"header":{"parameterUnit":"m.s-1","parameterCategory":1,"la1":31.0,"la2":29.5877,"lo1":-88.7671,"lo2":-86.6584,"dy":0.0162,"dx":0.0185,"nx":115,"ny":88,"refTime":"2026-05-09T12:00:00:Z","depth":0,"parameterNumber":2,"parameterNumberName":"U-component_of_WINDS"},"data":[0.0,0.0,0.0,0.0,0.0,0.0,0.0,0.0,0.0,0.0,0.0,0.0,0.0,0.0,0.0,0.0,0.0,0.0,0.0,0.0,0.0,0.0,0.0,0.0,0.0,0.0,0.0,0.0,0.0,0.0,0.0,0.0,0.0,0.0,0.0,0.0,0.0,0.0,0.0,0.0,0.0,0.0,0.0,0.0,0.0,0.0,0.0,0.0,0.0,0.0,0.0,0.0,0.0,0.0,0.0,0.0,0.0,0.0,0.0,0.0,0.0,0.0,0.0,0.0,0.0,0.0,0.0,0.0,0.0,0.0,0.0,0.0,0.0,0.0,0.0,0.0,0.0,0.0,0.0,0.0,0.0,0.0,0.0,0.0,0.0,0.0,0.0,0.0,0.0,0.0,0.0,0.0,0.0,0.0,0.0,0.0,0.0,0.0,0.0,0.0,0.0,0.0,0.0,0.0,0.0,0.0,0.0,0.0,0.0,0.0,0.0,0.0,0.0,0.0,0.0,0.0,0.0,0.0,0.0,0.0,0.0,0.0,0.0,0.0,0.0,0.0,0.0,0.0,0.0,0.0,0.0,0.0,0.0,0.0,0.0,0.0,0.0,0.0,0.0,0.0,0.0,0.0,0.0,0.0,0.0,0.0,0.0,0.0,0.0,0.0,0.0,0.0,0.0,0.0,0.0,0.0,0.0,0.0,0.0,0.0,0.0,0.0,0.0,0.0,0.0,0.0,0.0,0.0,0.0,0.0,0.0,0.0,0.0,0.0,0.0,0.0,0.0,0.0,0.0,0.0,0.0,0.0,0.0,0.0,0.0,0.0,0.0,0.0,0.0,0.0,0.0,0.0,0.0,0.0,0.0,0.0,0.0,0.0,0.0,0.0,0.0,0.0,0.0,0.0,0.0,0.0,0.0,0.0,0.0,0.0,0.0,0.0,0.0,0.0,0.0,0.0,0.0,0.0,0.0,0.0,0.0,0.0,0.0,0.0,0.0,0.0,0.0,0.0,0.0,0.0,0.0,0.0,0.0,0.0,0.0,0.0,0.0,0.0,0.0,0.0,0.0,0.0,0.0,0.0,0.0,0.0,0.0,0.0,0.0,0.0,0.0,0.0,0.0,0.0,0.0,0.0,0.0,0.0,0.0,0.0,0.0,0.0,0.0,0.0,0.0,0.0,0.0,0.0,0.0,0.0,0.0,0.0,0.0,0.0,0.0,0.0,0.0,0.0,0.0,0.0,0.0,0.0,0.0,0.0,0.0,0.0,0.0,0.0,0.0,0.0,0.0,0.0,0.0,0.0,0.0,0.0,0.0,0.0,0.0,0.0,0.0,0.0,0.0,0.0,0.0,0.0,0.0,0.0,0.0,0.0,0.0,0.0,0.0,0.0,0.0,0.0,0.0,0.0,0.0,0.0,0.0,0.0,0.0,0.0,0.0,0.0,0.0,0.0,0.0,0.0,0.0,0.0,0.0,0.0,0.0,0.0,0.0,0.0,0.0,0.0,0.0,0.0,0.0,0.0,0.0,0.0,0.0,0.0,0.0,0.0,0.0,0.0,0.0,0.0,0.0,0.0,0.0,0.0,0.0,0.0,0.0,0.0,0.0,0.0,0.0,0.0,0.0,0.0,0.0,0.0,0.0,0.0,0.0,0.0,0.0,0.0,0.0,0.0,0.0,0.0,0.0,0.0,0.0,0.0,0.0,0.0,0.0,0.0,0.0,0.0,0.0,0.0,0.0,0.0,0.0,0.0,0.0,0.0,0.0,0.0,0.0,0.0,0.0,0.0,0.0,0.0,0.0,0.0,0.0,0.0,0.0,0.0,0.0,0.0,0.0,0.0,0.0,0.0,0.0,0.0,0.0,0.0,0.0,0.0,0.0,0.0,0.0,0.0,0.0,0.0,0.0,0.0,0.0,0.0,0.0,0.0,0.0,0.0,0.0,0.0,0.0,0.0,0.0,0.0,0.0,0.0,0.0,0.0,0.0,0.0,0.0,0.0,0.0,0.0,0.0,0.0,0.0,0.0,0.0,0.0,0.0,0.0,0.0,0.0,0.0,0.0,0.0,0.0,0.0,0.0,0.0,0.0,0.0,0.0,0.0,0.0,0.0,0.0,0.0,0.0,0.0,0.0,0.0,0.0,0.0,0.0,0.0,0.0,0.0,0.0,0.0,0.0,0.0,0.0,0.0,0.0,0.0,0.0,0.0,0.0,0.0,0.0,0.0,0.0,0.0,0.0,0.0,0.0,0.0,0.0,0.0,0.0,0.0,0.0,0.0,0.0,0.0,0.0,0.0,0.0,0.0,0.0,0.0,0.0,0.0,0.0,0.0,0.0,0.0,0.0,0.0,0.0,0.0,0.0,0.0,0.0,0.0,0.0,0.0,0.0,0.0,0.0,0.0,0.0,0.0,0.0,0.0,0.0,0.0,0.0,0.0,0.0,0.0,0.0,0.0,0.0,0.0,0.0,0.0,0.0,0.0,0.0,0.0,0.0,0.0,0.0,0.0,0.0,0.0,0.0,0.0,0.0,0.0,0.0,0.0,0.0,0.0,0.0,0.0,0.0,0.0,0.0,0.0,0.0,0.0,0.0,0.0,0.0,0.0,0.0,0.0,0.0,0.0,0.0,0.0,0.0,0.0,0.0,0.0,0.0,0.0,0.0,0.0,0.0,0.0,0.0,0.0,0.0,0.0,0.0,0.0,0.0,0.0,0.0,0.0,0.0,0.0,0.0,0.0,0.0,0.0,0.0,0.0,0.0,0.0,0.0,0.0,0.0,0.0,0.0,0.0,0.0,0.0,0.0,0.0,0.0,0.0,0.0,0.0,0.0,0.0,0.0,0.0,0.0,0.0,0.0,0.0,0.0,0.0,0.0,0.0,0.0,0.0,0.0,0.0,0.0,0.0,0.0,0.0,0.0,0.0,0.0,0.0,0.0,0.0,0.0,0.0,0.0,0.0,0.0,0.0,0.0,0.0,0.0,0.0,0.0,0.0,0.0,0.0,0.0,0.0,0.0,0.0,0.0,0.0,0.0,0.0,0.0,0.0,0.0,0.0,0.0,0.0,0.0,0.0,0.0,0.0,0.0,0.0,0.0,0.0,0.0,0.0,0.0,0.0,0.0,0.0,0.0,0.0,0.0,0.0,0.0,0.0,0.0,0.0,0.0,0.0,0.0,0.0,0.0,0.0,0.0,0.0,0.0,0.0,0.0,0.0,0.0,0.0,0.0,0.0,0.0,0.0,0.0,0.0,0.0,0.0,0.0,0.0,0.0,0.0,0.0,0.0,0.0,0.0,0.0,0.0,0.0,0.0,0.0,0.0,0.0,0.0,0.0,0.0,0.0,0.0,0.0,0.0,0.0,0.0,0.0,0.0,0.0,0.0,0.0,0.0,0.0,0.0,0.0,0.0,0.0,0.0,0.0,0.0,0.0,0.0,0.0,0.0,0.0,0.0,0.0,0.0,0.0,0.0,0.0,0.0,0.0,0.0,0.0,0.0,0.0,0.0,0.0,0.0,0.0,0.0,0.0,0.0,0.0,0.0,0.0,0.0,0.0,0.0,0.0,0.0,0.0,0.0,0.0,0.0,0.0,0.0,0.0,0.0,0.0,0.0,0.0,0.0,0.0,0.0,0.0,0.0,0.0,0.0,0.0,0.0,0.0,0.0,0.0,0.0,0.0,0.0,0.0,0.0,0.0,0.0,0.0,0.0,0.0,0.0,0.0,0.0,0.0,0.0,0.0,0.0,0.0,0.0,0.0,0.0,0.0,0.0,0.0,0.0,0.0,0.0,0.0,0.0,0.0,0.0,0.0,0.0,0.0,0.0,0.0,0.0,0.0,0.0,0.0,0.0,0.0,0.0,0.0,0.0,0.0,0.0,0.0,0.0,0.0,0.0,0.0,0.0,0.0,0.0,0.0,0.0,0.0,0.0,0.0,0.0,0.0,0.0,0.0,0.0,0.0,0.0,0.0,0.0,0.0,0.0,0.0,0.0,0.0,0.0,0.0,0.0,0.0,0.0,0.0,0.0,0.0,0.0,0.0,0.0,0.0,0.0,0.0,0.0,0.0,0.0,0.0,0.0,0.0,0.0,0.0,0.0,0.0,0.0,0.0,0.0,0.0,0.0,0.0,0.0,0.0,0.0,0.0,0.0,0.0,0.0,0.0,0.0,0.0,0.0,0.0,0.0,0.0,0.0,0.0,0.0,0.0,0.0,0.0,0.0,0.0,0.0,0.0,0.0,0.0,0.0,0.0,0.0,0.0,0.0,0.0,-2.1859,0.0,0.0,0.0,0.0,0.0,0.0,0.0,0.0,0.0,0.0,0.0,0.0,0.0,0.0,0.0,0.0,0.0,0.0,0.0,0.0,0.0,0.0,0.0,0.0,0.0,0.0,0.0,0.0,0.0,0.0,0.0,0.0,0.0,0.0,0.0,0.0,0.0,0.0,0.0,0.0,0.0,0.0,0.0,0.0,0.0,0.0,0.0,0.0,0.0,0.0,0.0,0.0,0.0,0.0,0.0,0.0,0.0,0.0,0.0,0.0,0.0,0.0,0.0,0.0,0.0,0.0,0.0,0.0,0.0,0.0,0.0,0.0,0.0,0.0,0.0,0.0,0.0,0.0,0.0,0.0,0.0,0.0,0.0,0.0,0.0,0.0,0.0,0.0,0.0,0.0,0.0,0.0,0.0,0.0,0.0,0.0,0.0,0.0,0.0,0.0,0.0,0.0,0.0,0.0,0.0,0.0,0.0,0.0,0.0,0.0,-2.5259,-2.5804,-2.5323,-2.4464,-2.3247,0.0,0.0,0.0,0.0,0.0,0.0,0.0,0.0,0.0,0.0,0.0,0.0,0.0,0.0,0.0,0.0,0.0,0.0,0.0,0.0,0.0,0.0,0.0,0.0,0.0,0.0,0.0,0.0,0.0,0.0,0.0,0.0,0.0,0.0,0.0,0.0,0.0,0.0,0.0,0.0,0.0,0.0,0.0,0.0,0.0,0.0,0.0,0.0,0.0,0.0,0.0,0.0,0.0,0.0,0.0,0.0,0.0,0.0,0.0,0.0,0.0,0.0,0.0,0.0,0.0,0.0,0.0,0.0,0.0,0.0,0.0,0.0,0.0,0.0,0.0,0.0,0.0,0.0,0.0,0.0,0.0,0.0,0.0,0.0,0.0,0.0,0.0,0.0,0.0,0.0,0.0,0.0,0.0,0.0,0.0,0.0,0.0,0.0,0.0,0.0,0.0,0.0,0.0,0.0,0.0,0.0,0.0,0.0,0.0,0.0,0.0,0.0,-2.7198,-2.5809,-2.4409,0.0,0.0,0.0,0.0,0.0,0.0,0.0,0.0,0.0,0.0,0.0,0.0,0.0,0.0,0.0,0.0,0.0,0.0,0.0,0.0,0.0,0.0,0.0,0.0,0.0,0.0,0.0,0.0,0.0,0.0,0.0,0.0,0.0,0.0,0.0,0.0,0.0,0.0,0.0,0.0,0.0,0.0,0.0,0.0,0.0,0.0,0.0,0.0,0.0,0.0,0.0,0.0,0.0,0.0,0.0,0.0,0.0,0.0,0.0,0.0,0.0,0.0,0.0,0.0,0.0,0.0,0.0,0.0,0.0,0.0,0.0,0.0,0.0,0.0,0.0,0.0,0.0,0.0,0.0,0.0,0.0,0.0,0.0,0.0,0.0,0.0,0.0,0.0,0.0,0.0,0.0,0.0,0.0,0.0,0.0,0.0,0.0,0.0,0.0,0.0,0.0,0.0,0.0,0.0,0.0,0.0,0.0,0.0,0.0,0.0,-2.8314,-2.9259,-2.9171,0.0,-2.4628,0.0,0.0,0.0,0.0,0.0,0.0,0.0,0.0,0.0,0.0,0.0,0.0,0.0,0.0,0.0,0.0,0.0,0.0,0.0,0.0,0.0,0.0,0.0,0.0,0.0,0.0,0.0,0.0,0.0,0.0,0.0,0.0,0.0,0.0,0.0,0.0,0.0,0.0,0.0,0.0,0.0,0.0,0.0,0.0,0.0,0.0,0.0,0.0,0.0,0.0,0.0,0.0,0.0,0.0,0.0,0.0,0.0,0.0,0.0,0.0,0.0,0.0,0.0,0.0,0.0,0.0,0.0,0.0,0.0,0.0,0.0,0.0,0.0,0.0,0.0,0.0,0.0,0.0,0.0,0.0,0.0,0.0,0.0,0.0,0.0,0.0,0.0,0.0,0.0,0.0,0.0,0.0,0.0,0.0,0.0,0.0,0.0,0.0,0.0,0.0,0.0,0.0,0.0,0.0,0.0,0.0,0.0,0.0,0.0,0.0,-2.9431,-3.0855,-2.944,-2.7554,0.0,0.0,0.0,0.0,0.0,0.0,0.0,0.0,0.0,0.0,0.0,0.0,0.0,0.0,0.0,0.0,0.0,0.0,0.0,0.0,0.0,0.0,0.0,0.0,0.0,0.0,0.0,0.0,0.0,0.0,0.0,0.0,0.0,0.0,0.0,0.0,0.0,0.0,0.0,0.0,0.0,0.0,0.0,0.0,0.0,0.0,0.0,0.0,0.0,0.0,0.0,0.0,0.0,0.0,0.0,0.0,0.0,0.0,0.0,0.0,0.0,0.0,0.0,0.0,0.0,0.0,0.0,0.0,0.0,0.0,0.0,0.0,0.0,0.0,0.0,0.0,0.0,0.0,0.0,0.0,0.0,0.0,0.0,0.0,0.0,0.0,0.0,0.0,0.0,0.0,0.0,0.0,0.0,0.0,0.0,0.0,0.0,0.0,0.0,0.0,0.0,0.0,0.0,0.0,0.0,0.0,0.0,0.0,0.0,0.0,-2.9042,-2.9931,-3.1329,-2.9788,-2.7717,-2.5323,0.0,0.0,0.0,0.0,0.0,0.0,0.0,0.0,0.0,0.0,0.0,0.0,0.0,0.0,0.0,0.0,0.0,0.0,0.0,0.0,0.0,0.0,0.0,0.0,0.0,0.0,0.0,0.0,0.0,0.0,0.0,0.0,0.0,0.0,0.0,0.0,0.0,0.0,0.0,0.0,0.0,0.0,0.0,0.0,0.0,0.0,0.0,0.0,0.0,0.0,0.0,0.0,0.0,0.0,0.0,0.0,0.0,0.0,0.0,0.0,0.0,0.0,0.0,0.0,0.0,0.0,0.0,0.0,0.0,0.0,0.0,0.0,0.0,0.0,0.0,0.0,0.0,0.0,0.0,0.0,0.0,0.0,0.0,0.0,0.0,0.0,0.0,0.0,0.0,0.0,0.0,0.0,0.0,0.0,0.0,0.0,0.0,0.0,0.0,0.0,0.0,0.0,0.0,0.0,0.0,0.0,0.0,0.0,-3.0239,-2.9622,-2.9641,-3.0606,-3.0639,-2.868,0.0,0.0,0.0,0.0,0.0,0.0,0.0,0.0,0.0,0.0,0.0,0.0,0.0,0.0,0.0,0.0,0.0,0.0,0.0,0.0,0.0,0.0,0.0,0.0,0.0,0.0,0.0,0.0,0.0,0.0,0.0,0.0,0.0,0.0,0.0,0.0,0.0,0.0,0.0,0.0,0.0,0.0,0.0,0.0,0.0,0.0,0.0,0.0,0.0,0.0,0.0,0.0,0.0,0.0,0.0,0.0,0.0,0.0,0.0,0.0,0.0,0.0,0.0,0.0,0.0,0.0,0.0,0.0,0.0,0.0,0.0,0.0,0.0,0.0,0.0,0.0,0.0,0.0,0.0,0.0,0.0,0.0,0.0,0.0,0.0,0.0,0.0,0.0,0.0,0.0,0.0,0.0,0.0,0.0,0.0,0.0,0.0,0.0,0.0,0.0,0.0,0.0,0.0,0.0,0.0,0.0,0.0,0.0,0.0,-2.7962,-2.8782,-3.0102,-3.1877,-3.0046,-2.8214,0.0,0.0,0.0,0.0,0.0,0.0,0.0,0.0,0.0,0.0,0.0,0.0,0.0,0.0,0.0,0.0,0.0,0.0,0.0,0.0,0.0,0.0,0.0,0.0,0.0,0.0,0.0,0.0,0.0,0.0,0.0,0.0,0.0,0.0,0.0,0.0,0.0,0.0,0.0,0.0,0.0,0.0,0.0,0.0,0.0,0.0,0.0,0.0,0.0,0.0,0.0,0.0,0.0,0.0,0.0,0.0,0.0,0.0,0.0,0.0,0.0,0.0,0.0,0.0,0.0,0.0,0.0,0.0,0.0,0.0,0.0,0.0,0.0,0.0,0.0,0.0,0.0,0.0,0.0,0.0,0.0,0.0,0.0,0.0,0.0,0.0,0.0,0.0,0.0,0.0,0.0,0.0,0.0,0.0,0.0,0.0,0.0,0.0,0.0,0.0,0.0,0.0,0.0,0.0,0.0,0.0,0.0,0.0,0.0,-2.7807,0.0,-3.1041,-3.1958,-2.9738,-2.7768,0.0,0.0,0.0,0.0,0.0,0.0,0.0,0.0,0.0,0.0,0.0,0.0,0.0,0.0,0.0,0.0,0.0,0.0,0.0,0.0,0.0,0.0,0.0,0.0,0.0,0.0,0.0,0.0,0.0,0.0,0.0,0.0,0.0,0.0,0.0,0.0,0.0,0.0,0.0,0.0,0.0,0.0,0.0,0.0,0.0,0.0,0.0,0.0,0.0,0.0,0.0,0.0,0.0,0.0,0.0,0.0,0.0,0.0,0.0,0.0,0.0,0.0,0.0,0.0,0.0,0.0,0.0,0.0,0.0,0.0,0.0,0.0,0.0,0.0,0.0,0.0,0.0,0.0,0.0,0.0,0.0,0.0,0.0,0.0,0.0,0.0,0.0,0.0,0.0,0.0,0.0,0.0,0.0,0.0,0.0,0.0,0.0,0.0,0.0,0.0,0.0,0.0,0.0,0.0,0.0,0.0,0.0,0.0,-2.6958,-3.0177,-3.2058,-3.2164,-3.0617,-2.9807,-2.7462,0.0,0.0,0.0,0.0,0.0,0.0,0.0,0.0,0.0,0.0,0.0,0.0,0.0,0.0,0.0,0.0,0.0,0.0,0.0,0.0,0.0,0.0,0.0,0.0,0.0,0.0,0.0,0.0,0.0,0.0,0.0,0.0,0.0,0.0,0.0,0.0,0.0,0.0,0.0,0.0,0.0,0.0,0.0,0.0,0.0,0.0,0.0,0.0,0.0,0.0,0.0,0.0,0.0,0.0,0.0,0.0,0.0,0.0,0.0,0.0,0.0,0.0,0.0,0.0,0.0,0.0,0.0,0.0,0.0,0.0,0.0,0.0,0.0,0.0,0.0,0.0,0.0,0.0,0.0,0.0,0.0,0.0,0.0,0.0,0.0,0.0,0.0,0.0,0.0,0.0,0.0,0.0,0.0,0.0,0.0,0.0,0.0,0.0,0.0,0.0,0.0,0.0,0.0,0.0,0.0,0.0,0.0,0.0,0.0,-2.7772,-2.9807,-3.1053,-3.1187,-2.9321,-2.769,0.0,0.0,0.0,0.0,0.0,0.0,0.0,0.0,0.0,0.0,0.0,0.0,0.0,0.0,0.0,0.0,0.0,0.0,0.0,0.0,0.0,0.0,0.0,0.0,0.0,0.0,0.0,0.0,0.0,0.0,0.0,0.0,0.0,0.0,0.0,0.0,0.0,0.0,0.0,0.0,0.0,0.0,0.0,0.0,0.0,0.0,0.0,0.0,0.0,0.0,0.0,0.0,0.0,0.0,0.0,0.0,0.0,0.0,0.0,0.0,0.0,0.0,0.0,0.0,0.0,0.0,0.0,0.0,0.0,0.0,0.0,0.0,0.0,0.0,0.0,0.0,0.0,0.0,0.0,0.0,0.0,0.0,0.0,0.0,0.0,0.0,0.0,0.0,0.0,0.0,0.0,0.0,0.0,0.0,0.0,0.0,0.0,0.0,0.0,0.0,0.0,0.0,0.0,0.0,0.0,0.0,0.0,0.0,0.0,-2.8092,-3.0481,-3.1737,-3.1552,-2.9382,-2.7804,-2.695,0.0,0.0,0.0,0.0,0.0,0.0,0.0,0.0,0.0,0.0,0.0,0.0,0.0,0.0,0.0,0.0,0.0,0.0,0.0,0.0,0.0,0.0,0.0,0.0,0.0,0.0,0.0,0.0,0.0,0.0,0.0,0.0,0.0,0.0,0.0,0.0,0.0,0.0,0.0,0.0,0.0,0.0,0.0,0.0,0.0,0.0,0.0,0.0,0.0,0.0,0.0,0.0,0.0,0.0,0.0,0.0,0.0,0.0,0.0,0.0,0.0,0.0,0.0,0.0,0.0,0.0,0.0,0.0,0.0,0.0,0.0,0.0,0.0,0.0,0.0,0.0,0.0,0.0,0.0,0.0,0.0,0.0,0.0,0.0,0.0,0.0,0.0,0.0,0.0,0.0,0.0,0.0,0.0,0.0,0.0,0.0,0.0,0.0,0.0,0.0,0.0,0.0,0.0,0.0,0.0,0.0,0.0,0.0,-3.0369,-3.3444,-3.3941,-3.1725,-2.9978,-2.7937,0.0,0.0,0.0,0.0,0.0,0.0,0.0,0.0,0.0,0.0,0.0,0.0,0.0,0.0,0.0,0.0,0.0,0.0,0.0,0.0,0.0,0.0,0.0,0.0,0.0,0.0,0.0,0.0,0.0,0.0,0.0,0.0,0.0,0.0,0.0,0.0,0.0,0.0,0.0,0.0,0.0,0.0,0.0,0.0,0.0,0.0,0.0,0.0,0.0,0.0,0.0,0.0,0.0,0.0,0.0,0.0,0.0,0.0,0.0,0.0,0.0,0.0,0.0,0.0,0.0,0.0,0.0,0.0,0.0,0.0,0.0,0.0,0.0,0.0,0.0,0.0,0.0,0.0,0.0,0.0,0.0,0.0,0.0,0.0,0.0,0.0,0.0,0.0,0.0,0.0,0.0,0.0,0.0,0.0,0.0,0.0,0.0,0.0,0.0,0.0,0.0,0.0,0.0,0.0,0.0,0.0,0.0,0.0,0.0,-3.1296,-3.357,-3.4317,-3.3317,-3.1054,-2.9001,0.0,0.0,0.0,0.0,0.0,0.0,0.0,0.0,0.0,0.0,0.0,0.0,0.0,0.0,0.0,0.0,0.0,0.0,0.0,0.0,0.0,0.0,0.0,0.0,0.0,0.0,0.0,0.0,0.0,0.0,0.0,0.0,0.0,0.0,0.0,0.0,0.0,0.0,0.0,0.0,0.0,0.0,0.0,0.0,0.0,0.0,0.0,0.0,0.0,0.0,0.0,0.0,0.0,0.0,0.0,0.0,0.0,0.0,0.0,0.0,0.0,0.0,0.0,0.0,0.0,0.0,0.0,0.0,0.0,0.0,0.0,0.0,0.0,0.0,0.0,0.0,0.0,0.0,0.0,0.0,0.0,0.0,0.0,0.0,0.0,0.0,0.0,0.0,0.0,0.0,0.0,0.0,0.0,0.0,0.0,0.0,0.0,0.0,0.0,0.0,0.0,0.0,0.0,0.0,0.0,0.0,0.0,0.0,-3.1005,-3.201,-3.3769,-3.4586,-3.4382,-3.2254,-3.0265,0.0,0.0,0.0,0.0,0.0,0.0,0.0,0.0,0.0,0.0,0.0,0.0,0.0,0.0,0.0,0.0,0.0,0.0,0.0,0.0,0.0,0.0,0.0,0.0,0.0,0.0,0.0,0.0,0.0,0.0,0.0,0.0,0.0,0.0,0.0,0.0,0.0,0.0,0.0,0.0,0.0,0.0,0.0,0.0,0.0,0.0,0.0,0.0,0.0,0.0,0.0,0.0,0.0,0.0,0.0,0.0,0.0,0.0,0.0,0.0,0.0,0.0,0.0,0.0,0.0,0.0,0.0,0.0,0.0,0.0,0.0,0.0,0.0,0.0,0.0,0.0,0.0,0.0,0.0,0.0,0.0,0.0,0.0,0.0,0.0,0.0,0.0,0.0,0.0,0.0,0.0,0.0,0.0,0.0,0.0,0.0,0.0,0.0,0.0,0.0,0.0,0.0,0.0,0.0,0.0,0.0,0.0,0.0,-3.1676,-3.2457,-3.3961,-3.4793,-3.487,-3.3275,-3.134,0.0,0.0,0.0,0.0,0.0,0.0,0.0,0.0,0.0,0.0,0.0,0.0,0.0,0.0,0.0,0.0,0.0,0.0,0.0,0.0,0.0,0.0,0.0,0.0,0.0,0.0,0.0,0.0,0.0,0.0,0.0,0.0,0.0,0.0,0.0,0.0,0.0,0.0,0.0,0.0,0.0,0.0,0.0,0.0,0.0,0.0,0.0,0.0,0.0,0.0,0.0,0.0,0.0,0.0,0.0,0.0,0.0,0.0,0.0,0.0,0.0,0.0,0.0,0.0,0.0,0.0,0.0,0.0,0.0,0.0,0.0,0.0,0.0,0.0,0.0,0.0,0.0,0.0,0.0,0.0,0.0,0.0,0.0,0.0,0.0,0.0,0.0,0.0,0.0,0.0,0.0,0.0,0.0,0.0,0.0,0.0,0.0,0.0,0.0,0.0,0.0,0.0,0.0,0.0,0.0,0.0,0.0,0.0,-3.1405,-3.1676,-3.3749,-3.4945,-3.5124,-3.2752,-3.0666,0.0,0.0,0.0,0.0,0.0,0.0,0.0,0.0,0.0,0.0,0.0,0.0,0.0,0.0,0.0,0.0,0.0,0.0,0.0,0.0,0.0,0.0,0.0,0.0,0.0,0.0,0.0,0.0,0.0,0.0,0.0,0.0,0.0,0.0,0.0,0.0,0.0,0.0,0.0,0.0,0.0,0.0,0.0,0.0,0.0,0.0,0.0,0.0,-2.2219,0.0,0.0,0.0,0.0,0.0,0.0,0.0,0.0,0.0,0.0,0.0,0.0,0.0,0.0,0.0,0.0,0.0,0.0,0.0,0.0,0.0,0.0,0.0,0.0,0.0,0.0,0.0,0.0,0.0,0.0,0.0,0.0,0.0,0.0,0.0,0.0,0.0,0.0,0.0,0.0,0.0,0.0,0.0,0.0,0.0,0.0,0.0,0.0,0.0,0.0,0.0,0.0,0.0,0.0,0.0,0.0,0.0,0.0,0.0,-3.187,-3.1889,-3.379,-3.4737,-3.4445,-3.274,-3.1055,0.0,0.0,0.0,0.0,0.0,0.0,0.0,0.0,0.0,0.0,0.0,0.0,0.0,0.0,0.0,0.0,0.0,0.0,0.0,0.0,0.0,0.0,0.0,0.0,0.0,0.0,0.0,0.0,0.0,0.0,0.0,0.0,0.0,0.0,0.0,0.0,0.0,0.0,0.0,0.0,0.0,0.0,0.0,0.0,0.0,0.0,0.0,0.0,0.0,0.0,0.0,0.0,0.0,0.0,0.0,0.0,0.0,0.0,0.0,0.0,0.0,0.0,0.0,0.0,0.0,0.0,0.0,0.0,0.0,0.0,0.0,0.0,0.0,0.0,0.0,0.0,0.0,0.0,0.0,0.0,0.0,0.0,0.0,0.0,0.0,0.0,0.0,0.0,0.0,0.0,0.0,0.0,0.0,0.0,0.0,0.0,0.0,0.0,0.0,0.0,0.0,0.0,0.0,0.0,0.0,0.0,0.0,-3.0841,-3.2397,-3.2525,-3.4016,-3.4452,-3.3714,-3.2879,-3.1667,-3.003,0.0,0.0,0.0,0.0,0.0,0.0,0.0,0.0,0.0,0.0,0.0,0.0,0.0,0.0,0.0,0.0,0.0,0.0,0.0,0.0,0.0,0.0,0.0,0.0,0.0,0.0,0.0,0.0,0.0,0.0,0.0,0.0,0.0,0.0,0.0,0.0,0.0,0.0,-2.1218,-2.2593,0.0,0.0,0.0,0.0,0.0,0.0,0.0,0.0,-2.3732,0.0,0.0,0.0,0.0,0.0,0.0,0.0,0.0,0.0,0.0,0.0,0.0,0.0,0.0,0.0,0.0,0.0,0.0,0.0,0.0,0.0,0.0,0.0,0.0,0.0,0.0,0.0,0.0,0.0,0.0,0.0,0.0,0.0,0.0,0.0,0.0,0.0,0.0,0.0,0.0,0.0,0.0,0.0,0.0,0.0,0.0,0.0,0.0,0.0,0.0,0.0,0.0,0.0,0.0,0.0,0.0,-2.9488,-3.0734,-3.1972,-3.3279,-3.4319,-3.451,-3.3714,-3.2969,-3.1477,-2.9145,0.0,0.0,0.0,0.0,0.0,0.0,0.0,0.0,0.0,0.0,0.0,0.0,0.0,0.0,0.0,0.0,0.0,0.0,0.0,0.0,0.0,0.0,0.0,0.0,0.0,0.0,0.0,0.0,0.0,0.0,0.0,0.0,0.0,0.0,0.0,0.0,0.0,0.0,0.0,-2.3175,-2.4391,0.0,0.0,0.0,0.0,0.0,0.0,0.0,0.0,-2.4362,0.0,0.0,0.0,0.0,0.0,0.0,0.0,0.0,0.0,0.0,0.0,0.0,0.0,0.0,0.0,0.0,0.0,0.0,0.0,0.0,0.0,0.0,0.0,0.0,0.0,0.0,0.0,0.0,0.0,0.0,0.0,0.0,0.0,0.0,0.0,0.0,0.0,0.0,0.0,0.0,0.0,0.0,0.0,0.0,0.0,0.0,0.0,0.0,0.0,0.0,0.0,0.0,0.0,0.0,0.0,-2.9057,-3.0752,-3.2185,-3.331,-3.3921,-3.3847,-3.3052,-3.1868,-3.0293,0.0,0.0,0.0,0.0,0.0,0.0,0.0,0.0,0.0,0.0,0.0,0.0,0.0,0.0,0.0,0.0,0.0,0.0,0.0,0.0,0.0,0.0,0.0,0.0,0.0,0.0,0.0,0.0,0.0,0.0,0.0,0.0,0.0,0.0,0.0,0.0,0.0,0.0,0.0,0.0,-2.378,-2.4866,-2.6004,0.0,0.0,0.0,0.0,0.0,0.0,-2.6239,-2.5597,0.0,0.0,0.0,0.0,0.0,0.0,0.0,0.0,0.0,0.0,0.0,0.0,0.0,0.0,0.0,0.0,0.0,0.0,0.0,0.0,0.0,0.0,0.0,0.0,0.0,0.0,0.0,0.0,0.0,0.0,0.0,0.0,0.0,0.0,0.0,0.0,0.0,0.0,0.0,0.0,0.0,0.0,0.0,0.0,0.0,0.0,0.0,0.0,0.0,0.0,0.0,0.0,0.0,0.0,0.0,-2.8559,-3.0636,-3.2262,-3.3321,-3.3421,-3.307,-3.2279,-3.0726,-2.9182,0.0,0.0,0.0,0.0,0.0,0.0,0.0,0.0,0.0,0.0,0.0,0.0,0.0,0.0,0.0,0.0,0.0,0.0,0.0,0.0,0.0,0.0,0.0,0.0,0.0,0.0,0.0,0.0,0.0,0.0,0.0,0.0,0.0,0.0,0.0,0.0,0.0,0.0,0.0,0.0,0.0,-2.5695,-2.686,-2.7118,0.0,0.0,0.0,0.0,-2.8084,-2.7537,0.0,0.0,0.0,0.0,0.0,0.0,0.0,0.0,0.0,0.0,0.0,0.0,0.0,0.0,0.0,0.0,0.0,0.0,0.0,0.0,0.0,0.0,0.0,0.0,0.0,0.0,0.0,0.0,0.0,0.0,0.0,0.0,0.0,0.0,0.0,0.0,0.0,0.0,0.0,0.0,0.0,0.0,0.0,0.0,0.0,0.0,0.0,0.0,0.0,0.0,0.0,0.0,0.0,0.0,0.0,0.0,-2.9251,-3.0049,-3.1589,-3.3852,-3.3324,-3.265,-3.1877,-3.0373,-2.8923,0.0,0.0,0.0,0.0,0.0,0.0,0.0,0.0,0.0,0.0,0.0,0.0,0.0,0.0,0.0,0.0,0.0,0.0,0.0,0.0,0.0,0.0,0.0,0.0,0.0,0.0,0.0,0.0,0.0,0.0,0.0,0.0,0.0,0.0,0.0,0.0,0.0,0.0,0.0,0.0,0.0,-2.7606,-2.7828,-2.7769,-2.8014,0.0,0.0,-2.8234,-2.8567,-2.806,0.0,0.0,0.0,0.0,0.0,0.0,0.0,0.0,0.0,0.0,0.0,0.0,0.0,0.0,0.0,0.0,0.0,0.0,0.0,0.0,0.0,0.0,0.0,0.0,0.0,0.0,0.0,0.0,0.0,0.0,0.0,0.0,0.0,0.0,0.0,0.0,0.0,0.0,0.0,0.0,0.0,0.0,0.0,0.0,0.0,0.0,0.0,0.0,0.0,0.0,0.0,0.0,0.0,0.0,0.0,-2.6433,-2.9124,-3.0202,-3.1712,-3.3642,-3.3091,-3.2354,-3.157,-2.9625,-2.7978,0.0,0.0,0.0,0.0,0.0,0.0,0.0,0.0,0.0,0.0,0.0,0.0,0.0,0.0,0.0,0.0,0.0,0.0,0.0,0.0,0.0,0.0,0.0,0.0,0.0,0.0,0.0,0.0,0.0,0.0,0.0,0.0,0.0,0.0,0.0,0.0,0.0,0.0,0.0,0.0,0.0,0.0,-2.9029,-2.8647,0.0,0.0,0.0,-2.9884,-3.0132,0.0,0.0,0.0,0.0,0.0,0.0,0.0,0.0,0.0,0.0,0.0,0.0,0.0,0.0,0.0,0.0,0.0,0.0,0.0,0.0,0.0,0.0,0.0,0.0,0.0,0.0,0.0,0.0,0.0,0.0,0.0,0.0,0.0,0.0,0.0,0.0,0.0,0.0,0.0,0.0,0.0,0.0,0.0,0.0,0.0,0.0,0.0,0.0,0.0,0.0,0.0,0.0,0.0,0.0,0.0,0.0,0.0,-2.8968,-3.0323,-3.181,-3.3375,-3.2821,-3.2096,-3.1261,-2.9007,0.0,0.0,0.0,0.0,0.0,0.0,0.0,0.0,0.0,0.0,0.0,0.0,0.0,0.0,0.0,0.0,0.0,0.0,0.0,0.0,0.0,0.0,0.0,0.0,0.0,0.0,0.0,-1.7703,0.0,0.0,0.0,0.0,0.0,0.0,0.0,0.0,0.0,0.0,0.0,0.0,0.0,0.0,-2.7922,-2.9507,-2.9134,-2.9197,0.0,0.0,-3.0975,-3.0648,-3.0143,-2.9008,0.0,0.0,0.0,0.0,0.0,0.0,0.0,0.0,0.0,0.0,0.0,0.0,0.0,0.0,0.0,0.0,0.0,0.0,0.0,0.0,0.0,0.0,0.0,0.0,0.0,0.0,0.0,0.0,0.0,0.0,0.0,0.0,0.0,0.0,0.0,0.0,0.0,0.0,0.0,0.0,0.0,0.0,0.0,0.0,0.0,0.0,0.0,0.0,0.0,0.0,0.0,0.0,0.0,0.0,-2.5772,-2.8986,-3.0231,-3.1639,-3.3232,-3.2545,-3.1751,-3.093,-2.8648,-2.72,0.0,0.0,0.0,0.0,0.0,0.0,0.0,0.0,0.0,0.0,0.0,0.0,0.0,0.0,0.0,0.0,0.0,0.0,0.0,0.0,0.0,0.0,0.0,0.0,0.0,0.0,0.0,0.0,0.0,0.0,0.0,0.0,0.0,0.0,0.0,0.0,0.0,0.0,0.0,0.0,0.0,-2.8448,-2.8691,-2.8805,-2.9403,0.0,-3.1029,-3.0489,-2.8999,-2.9431,-2.9236,-2.7277,0.0,0.0,0.0,0.0,0.0,0.0,0.0,0.0,0.0,0.0,0.0,0.0,0.0,0.0,0.0,0.0,0.0,0.0,0.0,0.0,0.0,0.0,0.0,0.0,0.0,0.0,0.0,0.0,0.0,0.0,0.0,0.0,0.0,0.0,0.0,0.0,0.0,0.0,0.0,0.0,0.0,0.0,0.0,0.0,0.0,0.0,0.0,0.0,0.0,0.0,0.0,0.0,0.0,-2.5698,-2.892,-3.0062,-3.1184,-3.2253,-3.1959,-3.1178,-2.9955,-2.8076,-2.6646,0.0,0.0,0.0,0.0,0.0,0.0,0.0,0.0,0.0,0.0,0.0,0.0,0.0,0.0,0.0,0.0,0.0,0.0,0.0,0.0,0.0,0.0,0.0,0.0,0.0,0.0,0.0,0.0,-2.1991,-2.2989,-2.4681,0.0,0.0,0.0,0.0,0.0,0.0,0.0,0.0,0.0,0.0,-2.725,-2.8395,-2.8928,0.0,0.0,-3.1912,-3.2135,-3.1828,-3.1397,-3.0281,-2.794,-2.6439,0.0,0.0,0.0,0.0,0.0,0.0,0.0,0.0,0.0,0.0,0.0,0.0,0.0,0.0,0.0,0.0,0.0,0.0,0.0,0.0,0.0,0.0,0.0,0.0,0.0,0.0,0.0,0.0,0.0,0.0,0.0,0.0,0.0,0.0,0.0,0.0,0.0,0.0,0.0,0.0,0.0,0.0,0.0,0.0,0.0,0.0,0.0,0.0,0.0,0.0,0.0,0.0,-2.5727,-2.8521,-2.9566,-3.0624,-3.1671,-3.1413,-3.0818,-2.9935,-2.8092,-2.6632,0.0,0.0,0.0,0.0,0.0,0.0,0.0,0.0,0.0,0.0,0.0,0.0,0.0,0.0,0.0,0.0,0.0,0.0,0.0,0.0,0.0,0.0,0.0,0.0,0.0,0.0,0.0,0.0,-2.4072,-2.4897,-2.5597,0.0,0.0,0.0,0.0,0.0,0.0,0.0,0.0,0.0,0.0,-2.6808,-2.8545,-2.9128,-2.9748,-3.0812,-3.141,-3.1689,-3.1397,-3.1011,-3.0027,-2.7857,0.0,0.0,0.0,0.0,0.0,0.0,0.0,0.0,0.0,0.0,0.0,0.0,0.0,0.0,0.0,0.0,0.0,0.0,0.0,0.0,0.0,0.0,0.0,0.0,0.0,0.0,0.0,-2.1344,0.0,0.0,-2.2811,0.0,0.0,0.0,0.0,0.0,0.0,0.0,0.0,0.0,0.0,0.0,0.0,0.0,0.0,0.0,0.0,0.0,0.0,0.0,0.0,0.0,0.0,-2.5845,-2.7698,-2.8676,-2.997,-3.1617,-3.0861,-3.0752,-3.1314,-2.8925,-2.728,-2.6721,0.0,0.0,0.0,0.0,0.0,0.0,0.0,0.0,0.0,0.0,0.0,0.0,0.0,0.0,0.0,0.0,0.0,0.0,0.0,0.0,0.0,0.0,0.0,0.0,0.0,0.0,-2.5023,-2.6004,-2.584,0.0,0.0,0.0,0.0,0.0,0.0,0.0,0.0,0.0,-2.3762,-2.5531,-2.7571,-2.9177,-2.9346,-2.9273,-2.932,-2.9172,-2.8355,-2.6399,-2.7369,-2.7966,0.0,0.0,0.0,0.0,0.0,0.0,0.0,0.0,0.0,0.0,0.0,0.0,0.0,0.0,0.0,0.0,0.0,0.0,0.0,0.0,0.0,0.0,0.0,0.0,0.0,0.0,0.0,-2.1778,-2.2177,0.0,0.0,0.0,0.0,0.0,0.0,0.0,0.0,0.0,0.0,0.0,-2.4761,-2.5343,0.0,0.0,0.0,0.0,0.0,0.0,0.0,0.0,0.0,0.0,0.0,0.0,-2.6063,-2.8088,-2.8632,-2.9632,-3.1107,-3.0307,-2.9994,-3.0208,-2.8387,-2.6643,-2.5032,0.0,0.0,0.0,0.0,0.0,0.0,0.0,0.0,0.0,0.0,0.0,0.0,0.0,0.0,0.0,0.0,0.0,0.0,0.0,0.0,0.0,0.0,0.0,0.0,0.0,-2.379,0.0,0.0,0.0,0.0,0.0,0.0,0.0,0.0,0.0,0.0,0.0,-2.4986,-2.5255,-2.5425,-2.6023,-2.7261,-2.8092,-2.886,0.0,0.0,0.0,0.0,0.0,0.0,0.0,0.0,0.0,0.0,0.0,0.0,0.0,0.0,-1.6524,-1.427,-1.256,-1.0867,-0.9049,0.0,0.0,0.0,0.0,0.0,0.0,0.0,0.0,0.0,0.0,0.0,0.0,0.0,0.0,-2.2439,-2.2945,-2.3167,0.0,0.0,0.0,0.0,0.0,0.0,0.0,0.0,-2.6364,-2.657,-2.5916,-2.6736,-2.6847,0.0,-2.5847,-2.5009,0.0,0.0,0.0,0.0,0.0,0.0,0.0,0.0,-2.662,-2.7511,-2.8247,-2.9099,-3.0003,-2.9435,-2.9385,-2.992,-2.8437,-2.6678,-2.4723,-2.4182,-2.3372,0.0,0.0,0.0,0.0,0.0,0.0,0.0,0.0,0.0,0.0,0.0,0.0,0.0,0.0,0.0,0.0,0.0,0.0,0.0,0.0,0.0,0.0,0.0,-2.4851,0.0,0.0,0.0,0.0,0.0,0.0,0.0,0.0,0.0,-2.5278,-2.5062,-2.5257,-2.6363,-2.5908,-2.5942,-2.7045,0.0,0.0,0.0,0.0,0.0,0.0,0.0,-2.6749,-2.528,-2.3673,-2.1345,-1.7703,-1.5944,-1.4478,-1.2946,0.0,0.0,-1.0129,-0.8771,-0.7081,-0.5392,-0.7252,-0.9138,-0.9001,-1.1393,-1.3639,0.0,0.0,0.0,0.0,0.0,0.0,0.0,0.0,-2.2936,-2.3167,0.0,-2.3487,0.0,0.0,0.0,0.0,-2.4658,-2.6623,0.0,0.0,-2.8235,-2.887,-2.846,-2.8472,-2.8412,-2.824,-2.8033,-2.7273,-2.5888,-2.3857,0.0,0.0,0.0,0.0,0.0,0.0,-2.743,-2.619,-2.7517,-2.8354,-2.8667,-2.8404,-2.8991,-3.0437,-2.9008,-2.7399,-2.5822,-2.5304,-2.4382,-2.2814,-2.3141,0.0,0.0,0.0,0.0,0.0,0.0,0.0,0.0,0.0,0.0,0.0,0.0,0.0,0.0,0.0,0.0,0.0,0.0,0.0,0.0,-2.5901,0.0,0.0,0.0,0.0,0.0,0.0,0.0,0.0,0.0,0.0,-2.5356,-2.5401,-2.5817,-2.6859,0.0,0.0,0.0,0.0,-2.7705,-2.5863,-2.5687,-2.5385,-2.4197,-2.4363,-2.4327,-2.3259,0.0,0.0,-1.4911,-1.2492,-1.0324,-0.669,-0.5661,-0.6728,-1.3021,-1.172,-0.8341,-0.2425,-0.5569,-0.7482,-0.2976,-0.7334,-1.1921,-2.3733,0.0,0.0,0.0,0.0,-2.2408,-2.2678,-2.3674,-2.2998,-2.2823,-2.3018,-2.3088,0.0,0.0,0.0,0.0,0.0,0.0,-2.705,-2.6916,-2.786,-2.8268,-2.8162,-2.8784,-2.9032,-2.8975,-2.8788,-2.8233,-2.731,-2.6138,-2.5191,-2.4497,0.0,0.0,0.0,0.0,-2.7552,-2.8155,-2.8475,-2.8926,-2.9491,-2.9016,-2.8728,-2.8626,-2.8168,-2.7505,-2.6652,-2.5914,-2.5407,-2.5184,-2.418,0.0,0.0,0.0,0.0,0.0,0.0,0.0,0.0,0.0,0.0,0.0,0.0,0.0,0.0,0.0,0.0,0.0,0.0,0.0,-2.3879,-2.4357,-2.4882,0.0,0.0,0.0,0.0,0.0,0.0,0.0,0.0,0.0,-2.604,-2.6133,-2.6332,0.0,0.0,-2.6231,-2.6792,-2.6318,-2.5957,-2.6078,-2.5611,0.0,-2.5424,-2.4266,-2.3124,-2.2555,-2.0364,-1.7422,-1.367,-1.1725,-1.0061,-0.8234,-0.7089,-0.686,-0.7635,-0.4073,-0.0986,-0.0881,-0.2725,-0.5346,-0.8254,-1.1165,-1.3627,-2.4372,-2.3383,-2.3133,-2.3327,-2.3769,-2.2951,-2.3098,-2.3938,-2.3495,-2.3437,-2.3658,-2.3848,-2.4097,-2.4315,-2.4611,0.0,0.0,0.0,-2.7534,-2.7478,-2.8232,-2.8614,-2.8663,-2.917,-2.9466,-2.9508,-2.9381,-2.8981,-2.8306,-2.7389,-2.6498,-2.558,0.0,0.0,-2.6834,-2.7837,-2.8458,-2.8768,-2.9113,-2.9235,-2.9029,-2.8645,-2.8207,-2.7752,-2.7754,-2.7486,-2.6775,-2.6302,-2.5978,-2.5734,-2.4754,-2.3607,0.0,0.0,0.0,0.0,0.0,0.0,0.0,0.0,0.0,0.0,0.0,-2.2271,-2.1555,0.0,0.0,0.0,-2.2912,-2.3781,-2.4421,-2.453,0.0,0.0,0.0,0.0,0.0,0.0,0.0,-2.6345,-2.5401,-2.491,-2.5782,-2.6183,-2.6584,-2.7164,-2.6493,-2.6048,-2.6303,0.0,-2.555,-2.5699,-2.5238,-2.4889,-2.4937,-2.3641,-2.2105,-2.0694,-1.8305,-1.5628,-1.2974,-1.1391,-1.0086,-0.8862,-0.8026,-0.7512,-0.7122,-0.3901,-0.1832,-0.3553,-0.473,-0.7223,-1.2034,-1.3987,-1.5433,-2.5387,-2.4994,-2.493,-2.471,-2.4326,-2.4039,-2.3835,-2.3705,-2.4162,-2.4546,-2.4888,-2.5206,-2.5317,-2.5282,-2.5947,0.0,-2.6878,-2.806,-2.8419,-2.816,-2.9,-2.9377,-2.9409,-2.9432,-2.9488,-2.9669,-2.962,-2.9367,-2.8835,-2.7888,-2.7195,-2.6792,-2.742,-2.7555,-2.739,-2.9196,-2.9522,-2.8186,-2.9316,-2.9147,-2.7662,-2.7408,-2.7322,-2.7356,-2.7483,-2.7095,-2.6267,-2.6403,-2.605,-2.5077,-2.5094,-2.4398,-2.2846,0.0,0.0,0.0,0.0,0.0,0.0,0.0,0.0,0.0,0.0,0.0,0.0,0.0,0.0,-2.2567,-2.3812,0.0,-2.5666,-2.5757,0.0,0.0,0.0,-2.472,-2.5489,-2.4482,-2.4211,-2.5546,0.0,0.0,-2.4926,-2.5664,-2.6466,-2.7316,-2.6809,-2.6421,-2.6571,-2.6323,-2.5878,-2.4872,-2.4552,-2.4134,-2.3437,-2.2589,-2.1129,-1.8443,-1.6656,-1.5079,-1.2774,-1.1469,-1.0229,-0.8876,-0.8633,-0.888,-0.9004,-0.9103,-0.9482,-0.8721,-1.0071,-1.1957,-1.3982,-1.5592,-1.6828,-2.6253,-2.6724,-2.6286,-2.5208,-2.3798,-2.3461,-2.3396,-2.3551,-2.3756,-2.4148,-2.4644,-2.4854,-2.5398,-2.6281,-2.738,-2.7891,-2.8029,-2.8436,-2.8545,-2.8498,-2.8338,-2.8478,-2.8872,-2.8192,-2.8099,-2.8531,-2.8196,-2.7959,-2.7939,-2.7908,-2.7412,-2.6661,-2.7531,-2.7628,-2.6932,-2.7403,-2.7685,-2.7748,-2.8076,-2.7853,-2.701,-2.5556,-2.5011,-2.5524,-2.5263,-2.5009,-2.4762,-2.5412,-2.5547,-2.5111,-2.5747,-2.5179,-2.3129,-2.3587,0.0,0.0,0.0,0.0,0.0,0.0,0.0,0.0,0.0,-2.2355,-2.087,0.0,-2.288,0.0,-2.3648,-2.4829,-2.5889,-2.5135,0.0,0.0,-2.5263,-2.4572,-2.4411,-2.4113,-2.3871,-2.3697,-2.3676,-2.3894,-2.4426,-2.4698,-2.5132,-2.5819,-2.5982,-2.5901,-2.5546,-2.5178,-2.4745,-2.4195,-2.4096,-2.3789,-2.2814,-2.1561,-1.9977,-1.7705,-1.6724,-1.5434,-1.3232,-1.2286,-1.1502,-1.0562,-1.0598,-1.0808,-1.093,-1.167,-1.2541,-1.2949,-1.3388,-1.4078,-1.5736,-1.6841,-1.7612,-2.6572,-2.6803,-2.6297,-2.531,-2.4082,-2.4364,-2.4403,-2.4297,-2.4577,-2.4721,-2.4836,-2.5459,-2.6103,-2.6772,-2.7674,-2.8103,-2.8201,-2.8299,-2.8381,-2.8414,-2.817,-2.8015,-2.7952,-2.759,-2.7482,-2.7628,-2.7408,-2.7416,-2.7607,-2.734,-2.6929,-2.6438,-2.6717,-2.6633,-2.6254,-2.7241,-2.7778,-2.7802,-2.7381,-2.6952,-2.6649,-2.5277,-2.4666,-2.4873,-2.4846,-2.4543,-2.4016,-2.4658,-2.4859,-2.4513,-2.5113,-2.4774,-2.3274,-2.3405,-2.2677,0.0,0.0,0.0,0.0,0.0,0.0,0.0,0.0,0.0,0.0,0.0,-2.2948,-2.331,-2.3869,-2.4595,-2.5598,-2.4942,-2.4691,-2.5303,-2.4794,-2.4202,-2.3661,-2.339,-2.3187,-2.3039,-2.2995,-2.3275,-2.3967,-2.4105,-2.4297,-2.4759,-2.4998,-2.5217,-2.5481,-2.5035,-2.4451,-2.4245,-2.4122,-2.3566,-2.2374,-2.1237,-1.9927,-1.839,-1.7299,-1.6188,-1.4768,-1.3743,-1.2902,-1.2434,-1.2478,-1.2715,-1.2907,-1.3761,-1.4688,-1.5448,-1.5997,-1.6422,-1.687,-1.753,-1.8201,-2.6549,-2.6111,-2.5742,-2.5314,-2.4878,-2.5851,-2.5797,-2.5077,-2.5495,-2.5481,-2.5245,-2.6308,-2.6797,-2.6849,-2.7342,-2.7725,-2.8039,-2.8103,-2.8186,-2.835,-2.8176,-2.7773,-2.7174,-2.718,-2.7083,-2.6918,-2.6873,-2.7045,-2.7332,-2.6519,-2.6134,-2.6142,-2.5621,-2.5371,-2.5496,-2.7631,-2.8428,-2.7725,-2.6598,-2.6118,-2.6262,-2.5468,-2.4959,-2.4748,-2.4862,-2.4481,-2.3521,-2.398,-2.4062,-2.3637,-2.4083,-2.4009,-2.3308,-2.2845,-2.2205,0.0,-2.1315,0.0,0.0,0.0,0.0,0.0,0.0,0.0,0.0,-2.2695,-2.3309,-2.4297,-2.4212,-2.4401,-2.5003,-2.4831,-2.4542,-2.4063,-2.3964,-2.3679,-2.3068,-2.2526,-2.242,-2.2844,-2.2618,-2.2785,-2.3566,-2.3739,-2.3824,-2.412,-2.4177,-2.4559,-2.5482,-2.507,-2.457,-2.4684,-2.4173,-2.3246,-2.2156,-2.1286,-2.0432,-1.9329,-1.8295,-1.7259,-1.6459,-1.534,-1.4412,-1.4136,-1.4125,-1.4323,-1.4744,-1.5465,-1.6283,-1.7053,-1.7906,-1.8352,-1.7787,-1.808,-1.8644,-2.6351,-2.6258,-2.5988,-2.5865,-2.596,-2.5906,-2.53,-2.4319,-2.4536,-2.4751,-2.5104,-2.5714,-2.6094,-2.6312,-2.7004,-2.7665,-2.8271,-2.859,-2.8904,-2.9118,-2.8093,-2.7781,-2.7948,-2.6275,-2.5785,-2.6359,-2.5508,-2.5249,-2.5584,-2.5603,-2.5593,-2.547,-2.5594,-2.5551,-2.5464,0.0,0.0,0.0,-2.4673,-2.4438,-2.4901,-2.3809,-2.3427,-2.3866,-2.2987,0.0,-2.22,-2.2785,-2.3039,-2.2968,-2.4342,0.0,0.0,0.0,0.0,0.0,0.0,0.0,0.0,0.0,0.0,0.0,-2.2901,-2.2631,-2.3276,-2.3694,-2.385,-2.373,-2.4092,-2.429,-2.4246,-2.3876,-2.3651,-2.3537,-2.3187,-2.277,-2.2328,-2.2063,-2.1874,-2.1888,-2.1983,-2.2388,-2.3127,-2.3363,-2.3623,-2.3979,-2.4021,-2.4067,-2.4315,-2.4379,-2.4307,-2.4149,-2.3466,-2.2754,-2.237,-2.1506,-2.0713,-1.984,-1.9353,-1.8509,-1.7345,-1.6503,-1.573,-1.5188,-1.5027,-1.5292,-1.5862,-1.6532,-1.7276,-1.8207,-1.8878,-1.9095,-1.8496,-1.8817,-1.933,-2.6082,-2.6042,-2.555,-2.5397,0.0,-2.5189,-2.4708,-2.4112,-2.4492,-2.4721,-2.4835,-2.53,-2.5536,-2.566,-2.6229,-2.6901,-2.752,-2.7735,-2.8094,-2.8591,-2.7933,-2.7372,-2.6864,-2.5894,-2.5406,-2.5358,-2.4792,-2.4791,-2.5201,-2.5169,-2.5185,-2.5201,-2.5323,-2.5362,-2.5371,-2.5552,-2.5608,-2.5471,-2.4498,-2.4206,-2.4517,-2.384,-2.3561,-2.3723,-2.3128,0.0,0.0,0.0,0.0,0.0,0.0,0.0,0.0,0.0,0.0,-2.3258,-2.3174,-2.3304,-2.3703,-2.3877,-2.4078,-2.4304,-2.392,-2.3636,-2.3574,-2.3777,-2.395,-2.3989,-2.4194,-2.4158,-2.3664,-2.345,-2.3201,-2.2844,-2.2663,-2.2434,-2.2109,-2.1793,-2.1698,-2.1841,-2.1949,-2.2278,-2.2888,-2.3053,-2.3216,-2.348,-2.361,-2.3724,-2.3767,-2.4009,-2.4067,-2.3739,-2.3113,-2.2466,-2.2123,-2.1746,-2.1245,-2.0743,-2.0054,-1.9461,-1.9028,-1.8071,-1.7256,-1.6967,-1.6944,-1.7072,-1.7397,-1.7995,-1.8617,-1.8999,-1.9485,-1.9803,-1.9522,-1.9573,-1.9698,-2.5784,-2.5729,-2.4991,-2.4664,-2.4549,-2.4363,-2.4203,-2.4112,0.0,0.0,0.0,-2.4892,-2.5061,-2.5174,-2.5495,-2.6068,-2.673,-2.6768,-2.7144,-2.778,-2.776,-2.698,-2.5622,-2.5738,-2.5347,-2.4482,-2.4446,-2.4701,-2.5162,-2.4902,-2.4886,-2.5068,-2.5068,-2.5146,-2.5256,-2.4982,-2.513,-2.5715,-2.4844,-2.4297,-2.4205,-2.4133,-2.3891,-2.3452,-2.3318,-2.2914,-2.2267,-2.2575,-2.2445,-2.1823,-2.2725,-2.3151,-2.2867,-2.305,-2.3227,-2.3417,-2.3425,-2.3616,-2.3974,-2.4349,-2.4645,-2.4926,-2.4822,-2.4411,-2.3652,-2.359,-2.3823,-2.423,-2.4177,-2.3809,-2.3187,-2.3216,-2.2994,-2.2278,-2.2324,-2.2278,-2.1996,-2.1712,-2.165,-2.2077,-2.2077,-2.2245,-2.2689,-2.2917,-2.2992,-2.3023,-2.3275,-2.3451,-2.3566,-2.3797,-2.3855,-2.3508,-2.3113,-2.2663,-2.2203,-2.2077,-2.1921,-2.1718,-2.0828,-2.0348,-2.0489,-1.9659,-1.8866,-1.871,-1.8812,-1.8717,-1.8774,-1.9214,-1.9717,-1.9696,-2.0045,-2.0441,-2.0512,-2.0243,-2.0131,-2.5425,-2.5216,-2.465,-2.435,-2.4363,-2.4216,-2.4112,-2.4125,-2.4157,-2.4229,-2.4171,-2.4363,-2.4593,-2.4892,-2.537,-2.6011,-2.6747,-2.7034,-2.741,-2.7844,-2.762,-2.7111,-2.6348,-2.5729,-2.5196,-2.4714,-2.4283,-2.4261,-2.463,-2.463,-2.4766,-2.5005,-2.5005,-2.5123,-2.5256,-2.4982,-2.4854,-2.4957,-2.4667,-2.404,-2.3132,-2.3254,-2.2934,-2.2037,-2.1469,-2.116,-2.1218,-2.085,-2.0968,-2.1588,-2.2394,-2.2762,-2.2671,-2.3055,-2.3367,-2.3521,-2.3452,-2.3747,-2.4721,-2.4679,-2.4589,-2.463,-2.463,-2.442,-2.3971,-2.383,-2.3691,-2.3494,-2.3392,-2.3157,-2.283,-2.2979,-2.2859,-2.231,-2.2324,-2.2231,-2.1949,-2.1855,-2.1841,-2.2077,-2.2231,-2.2431,-2.2661,-2.3008,-2.3231,-2.3231,-2.3363,-2.3319,-2.3304,-2.3566,-2.3711,-2.3538,-2.3377,-2.3201,-2.2889,-2.2889,-2.2694,-2.2356,-2.1908,-2.145,-2.1181,-2.0448,-1.9751,-1.9514,-1.9325,-1.9273,-1.9405,-1.9558,-1.9965,-2.0429,-2.0545,-2.0595,-2.1038,-2.0906,-2.0863,-2.555,-2.5384,-2.4637,-2.4279,-2.4292,-2.4247,-2.4157,-2.4112,-2.4203,-2.4203,-2.4203,-2.4234,-2.4408,-2.4536,-2.4991,-2.5453,-2.5943,-2.6347,-2.6634,-2.6902,-2.6975,-2.6323,-2.534,-2.5194,-2.4784,-2.4,-2.3904,-2.4051,-2.4287,-2.4328,-2.4451,-2.4791,-2.4966,-2.5107,-2.5162,-2.4926,-2.4742,-2.4549,-2.44,-2.4055,-2.3387,-2.2972,-2.2503,-2.1969,-2.1281,-2.0902,-2.0917,-2.0783,-2.0874,-2.1208,-2.1963,-2.2443,-2.2471,-2.3232,-2.3718,-2.38,-2.4017,-2.4318,-2.4751,-2.4831,-2.4871,-2.4855,-2.4751,-2.4605,-2.4359,-2.4177,-2.3925,-2.3523,-2.3436,-2.3201,-2.274,-2.2889,-2.2799,-2.2434,-2.2586,-2.2678,-2.248,-2.2449,-2.254,-2.2586,-2.2768,-2.2918,-2.2963,-2.3275,-2.3451,-2.3451,-2.3553,-2.3581,-2.329,-2.3392,-2.348,-2.3319,-2.326,-2.3201,-2.3127,-2.3187,-2.2966,-2.2468,-2.2312,-2.1993,-2.1427,-2.0868,-2.0604,-2.0406,-2.0072,-2.0005,-2.0193,-2.0311,-2.053,-2.0679,-2.0778,-2.0939,-2.147,-2.1818,-2.2027,-2.5508,-2.5397,-2.458,-2.4247,-2.4247,-2.4247,-2.4203,-2.4112,-2.4203,-2.4247,-2.4247,-2.4279,-2.4279,-2.435,-2.4607,-2.4892,-2.509,-2.5495,-2.5715,-2.5783,-2.5994,-2.5341,-2.4196,-2.4509,-2.4116,-2.3289,-2.3494,-2.3782,-2.3979,-2.4021,-2.4261,-2.4589,-2.4871,-2.5013,-2.5029,-2.4846,-2.4605,-2.4317,-2.425,-2.3964,-2.3471,-2.2738,-2.2184,-2.1664,-2.1129,-2.0758,-2.0567,-2.0717,-2.0889,-2.1039,-2.1728,-2.222,-2.2438,-2.334,-2.3882,-2.3925,-2.4317,-2.4605,-2.467,-2.495,-2.521,-2.5408,-2.5203,-2.5001,-2.4864,-2.4684,-2.4315,-2.3797,-2.3638,-2.3421,-2.3098,-2.3157,-2.3098,-2.2875,-2.3143,-2.329,-2.3113,-2.3113,-2.3172,-2.3172,-2.326,-2.3348,-2.3392,-2.361,-2.3754,-2.3769,-2.3897,-2.3855,-2.3508,-2.3245,-2.2981,-2.3009,-2.2994,-2.2934,-2.2994,-2.3098,-2.2893,-2.2249,-2.2235,-2.1946,-2.1447,-2.1134,-2.1025,-2.088,-2.061,-2.0419,-2.0695,-2.0761,-2.0794,-2.086,-2.0877,-2.1116,-2.1834,-2.2485,-2.3075,-2.4892,-2.4778,-2.4332,-2.4112,-2.4112,-2.4112,-2.4112,-2.4125,-2.4112,-2.4112,-2.4157,-2.4247,-2.4292,-2.435,-2.4492,-2.4607,-2.4677,-2.4835,-2.4948,-2.4937,-2.4832,-2.4385,-2.3733,-2.3674,-2.332,-2.2809,-2.3142,-2.3421,-2.361,-2.3882,-2.4177,-2.4498,-2.4605,-2.471,-2.4766,-2.4686,-2.4508,-2.4302,-2.425,-2.3652,-2.2619,-2.2374,-2.1618,-2.0128,-2.0059,-1.9961,-1.9843,-1.98,-2.0245,-2.1237,-2.1657,-2.2164,-2.276,-2.326,-2.3523,-2.361,-2.3797,-2.412,-2.4735,-2.5084,-2.555,-2.6238,-2.6045,-2.58,-2.5576,-2.545,-2.5002,-2.4231,-2.3767,-2.3696,-2.3839,-2.4009,-2.3952,-2.3709,-2.3937,-2.4051,-2.3638,-2.3406,-2.3334,-2.3275,-2.3523,-2.3566,-2.3653,-2.3952,-2.4177,-2.4219,-2.4109,-2.3982,-2.3651,-2.2964,-2.2498,-2.2593,-2.2558,-2.2529,-2.2543,-2.2649,-2.2377,-2.1712,-2.1758,-2.1656,-2.1222,-2.0872,-2.073,-2.092,-2.063,-2.0388,-2.0628,-2.0644,-2.0677,-2.1165,-2.1213,-2.1227,-2.1927,-2.2697,-2.3382,-2.435,-2.4478,-2.3982,-2.3923,-2.4112,-2.4203,-2.4157,-2.4112,-2.4203,-2.4157,-2.4125,-2.4157,-2.4216,-2.4203,-2.4434,-2.4434,-2.4345,-2.4734,-2.4765,-2.454,-2.4381,-2.3972,-2.3371,-2.3195,-2.2822,-2.232,-2.2618,-2.2889,-2.3083,-2.3523,-2.3925,-2.4261,-2.4467,-2.4605,-2.462,-2.458,-2.4302,-2.3909,-2.3882,-2.3533,-2.2949,-2.2308,-2.1628,-2.0756,-1.9754,-1.9266,-1.94,-1.9238,-1.9582,-2.0635,-2.1077,-2.1524,-2.2067,-2.2603,-2.2875,-2.2965,-2.3406,-2.4021,-2.4751,-2.4846,-2.5282,-2.6286,-2.6107,-2.5926,-2.5952,-2.577,-2.5363,-2.4647,-2.412,-2.3909,-2.3925,-2.4051,-2.412,-2.4078,-2.4261,-2.4317,-2.4036,-2.4051,-2.4051,-2.4024,-2.412,-2.412,-2.4094,-2.4234,-2.4482,-2.4645,-2.4508,-2.4219,-2.4006,-2.3355,-2.2805,-2.2398,-2.1875,-2.1713,-2.2076,-2.2406,-2.1951,-2.1238,-2.1254,-2.1355,-2.047,-2.0531,-2.067,-2.0813,-2.0539,-2.0543,-2.0974,-2.0907,-2.089,-2.1453,-2.2315,-2.2593,-2.2854,-2.3154,-2.3671,-2.3884,-2.4073,-2.3793,-2.3819,-2.4112,-2.4203,-2.4203,-2.4099,-2.4203,-2.4203,-2.4112,-2.4125,-2.4125,-2.4112,-2.4261,-2.4261,-2.4171,-2.4563,-2.4593,-2.4284,-2.3992,-2.3676,-2.3325,-2.2695,-2.2468,-2.2325,-2.2358,-2.248,-2.2678,-2.3113,-2.3551,-2.3909,-2.4162,-2.4302,-2.4374,-2.4291,-2.4009,-2.3566,-2.3566,-2.3436,-2.3157,-2.2439,-2.1769,-2.129,-1.9952,-1.9297,-1.9546,-1.9279,-1.9566,-2.0496,-2.0912,-2.1244,-2.1623,-2.2123,-2.2374,-2.248,-2.3024,-2.3666,-2.4256,-2.4287,-2.488,-2.6078,-2.5926,-2.5853,-2.6057,-2.5921,-2.5472,-2.4795,-2.4426,-2.4177,-2.4051,-2.4135,-2.4223,-2.4349,-2.4498,-2.4544,-2.4422,-2.443,-2.4317,-2.4276,-2.4261,-2.4426,-2.4426,-2.4508,-2.4686,-2.491,-2.4766,-2.4549,-2.4282,-2.3658,-2.2849,-2.2426,-2.1282,-2.0776,-2.145,-2.1263,-2.0844,-2.052,-2.0394,-2.0426,-1.9572,-1.999,-2.0496,-2.0505,-2.0503,-2.0642,-2.0939,-2.0988,-2.125,-2.2074,-2.2807,-2.325,-2.2992,-2.3257,-2.3215,-2.3509,-2.3628,-2.3806,-2.3949,-2.4112,-2.4112,-2.4112,-2.4125,-2.4112,-2.4112,-2.4125,-2.4125,-2.4125,-2.4125,-2.3995,-2.4008,-2.4067,-2.4112,-2.4216,-2.4182,-2.3529,-2.3379,-2.3564,-2.2194,-2.2061,-2.2823,-2.2317,-2.2315,-2.2812,-2.2828,-2.2994,-2.3494,-2.3451,-2.3581,-2.3882,-2.3754,-2.3508,-2.3304,-2.3334,-2.329,-2.3068,-2.2651,-2.2124,-2.1445,-2.0781,-2.0267,-2.0161,-2.0181,-2.0482,-2.1113,-2.1342,-2.1609,-2.1746,-2.1949,-2.2077,-2.2231,-2.2678,-2.2965,-2.3172,-2.3507,-2.4422,-2.5841,-2.5626,-2.558,-2.6184,-2.5956,-2.5436,-2.4683,-2.4642,-2.4544,-2.4498,-2.4394,-2.4568,-2.4902,-2.4828,-2.4755,-2.467,-2.4389,-2.3997,-2.3824,-2.3925,-2.4177,-2.4492,-2.471,-2.4815,-2.4895,-2.4726,-2.4523,-2.443,-2.3269,-2.2571,-2.229,-2.1206,-1.9865,-2.028,-2.007,-1.9291,-1.9027,-1.9339,-1.9523,-1.944,-1.9457,-1.9854,-2.0166,-2.0065,-2.0235,-2.0704,-2.118,-2.1595,-2.2152,-2.2601,-2.2884,-2.2547,-2.2615,-2.252,-2.303,-2.3509,-2.3878,-2.4067,-2.4125,-2.4125,-2.4125,-2.4125,-2.4125,-2.4125,-2.4125,-2.4112,-2.4067,-2.3936,-2.3949,-2.3936,-2.3949,-2.376,-2.3675,-2.3644,-2.2885,-2.2687,-2.2768,-2.2005,-2.1843,-2.2189,-2.2155,-2.2245,-2.2582,-2.2808,-2.2865,-2.2797,-2.2934,-2.3068,-2.3068,-2.3216,-2.3113,-2.2844,-2.2979,-2.2889,-2.254,-2.231,-2.1904,-2.1307,-2.0577,-2.0292,-2.0532,-2.0079,-2.0193,-2.0858,-2.1082,-2.1242,-2.1256,-2.1485,-2.1616,-2.1712,-2.2077,-2.2526,-2.2875,-2.2995,-2.3629,-2.4882,-2.5031,-2.5058,-2.552,-2.5656,-2.555,-2.5222,-2.5045,-2.5013,-2.4982,-2.4526,-2.4521,-2.5317,-2.5102,-2.4665,-2.4611,-2.4594,-2.4453,-2.3988,-2.3882,-2.4051,-2.4302,-2.4369,-2.4395,-2.4751,-2.4605,-2.4426,-2.4173,-2.3313,-2.2539,-2.2161,-2.0918,-1.9732,-1.9649,-1.9188,-1.8634,-1.8467,-1.8516,-1.856,-1.8514,-1.8898,-1.9317,-1.9696,-1.9645,-1.9801,-2.0294,-2.0728,-2.128,-2.156,-2.2031,-2.2015,-2.1891,-2.1563,-2.1332,-2.2848,-2.3283,-2.376,-2.3995,-2.3995,-2.3995,-2.3923,-2.3936,-2.3936,-2.3995,-2.3995,-2.3995,-2.3949,-2.3891,-2.3819,-2.3832,-2.376,-2.3463,-2.3318,-2.3339,-2.2546,-2.2312,-2.2447,-2.1926,-2.1889,-2.2242,-2.2326,-2.231,-2.2105,-2.2492,-2.2471,-2.2137,-2.2388,-2.2512,-2.2466,-2.2572,-2.248,-2.2388,-2.248,-2.2402,-2.2137,-2.1996,-2.1684,-2.1183,-2.0439,-2.0132,-2.0422,-1.9861,-1.9773,-2.0232,-2.0485,-2.0649,-2.0712,-2.0934,-2.1068,-2.1118,-2.1348,-2.1732,-2.2128,-2.2128,-2.2621,-2.3851,-2.3963,-2.4178,-2.4852,-2.5148,-2.5247,-2.5231,-2.5026,-2.4987,-2.5106,-2.4119,-2.3895,-2.5171,-2.4921,-2.4336,-2.4159,-2.4084,-2.3807,-2.3452,-2.3304,-2.3523,-2.3824,-2.3809,-2.3899,-2.4188,-2.4076,-2.4032,-2.3694,-2.3084,-2.2572,-2.2179,-2.0947,-2.0012,-1.9608,-1.9087,-1.8155,-1.786,-1.7645,-1.7676,-1.7854,-1.8293,-1.865,-1.9066,-1.9339,-1.9486,-1.9815,-2.0254,-2.0549,-2.077,-2.0811,-2.0865,-2.058,-2.0247,-1.9969,-2.2848,-2.2969,-2.3378,-2.3628,-2.376,-2.3628,-2.3628,-2.3628,-2.3616,-2.376,-2.3891,-2.3688,-2.3688,-2.3832,-2.3688,-2.3628,-2.3569,-2.3258,-2.3198,-2.3198,-2.2567,-2.2359,-2.2664,-2.1837,-2.2016,-2.3069,-2.2988,-2.2389,-2.1616,-2.1864,-2.1918,-2.167,-2.1732,-2.1944,-2.2221,-2.1827,-2.1759,-2.1888,-2.1888,-2.1855,-2.1949,-2.1793,-2.1492,-2.1091,-2.0432,-1.9953,-1.9761,-1.9515,-1.9475,-1.9512,-1.9708,-1.9914,-2.0182,-2.0321,-2.0422,-2.0409,-2.056,-2.0646,-2.0782,-2.0845,-2.1559,-2.2637,-2.2554,-2.2985,-2.4043,-2.4224,-2.4296,-2.4507,-2.428,-2.4285,-2.4714,-2.3407,-2.2923,-2.46,-2.4339,-2.3652,-2.3325,-2.2742,-2.2296,-2.231,-2.2356,-2.248,-2.274,-2.2995,-2.3155,-2.314,-2.323,-2.3355,-2.3041,-2.2363,-2.2151,-2.2126,-2.1167,-2.0033,-1.9549,-1.9041,-1.8029,-1.7217,-1.693,-1.685,-1.7115,-1.7464,-1.7746,-1.8129,-1.8168,-1.8321,-1.8824,-1.9306,-1.9761,-1.9952,-1.9894,-1.9602,-1.9271,-1.8942,-1.8485,-2.2322,-2.2567,-2.2555,-2.2798,-2.3185,-2.3173,-2.3305,-2.3569,-2.3616,-2.3628,-2.3628,-2.3509,-2.3463,-2.3522,-2.345,-2.345,-2.3463,-2.309,-2.2909,-2.2665,-2.2371,-2.2049,-2.1877,-2.1747,-2.2066,-2.2616,-2.2855,-2.2543,-2.2096,-2.2236,-2.2029,-2.1394,-2.13,-2.1228,-2.1082,-2.1055,-2.1104,-2.1202,-2.1313,-2.1313,-2.1055,-2.1104,-2.0845,-2.0206,-1.9384,-1.883,-1.8588,-1.9096,-1.9408,-1.9356,-1.9565,-1.9656,-1.9695,-1.9747,-1.9798,-1.9747,-1.994,-1.994,-1.9812,-2.008,-2.0373,-2.0978,-2.131,-2.1848,-2.2443,-2.2574,-2.2714,-2.3019,-2.2651,-2.2638,-2.2992,-2.3043,-2.3191,-2.4468,-2.3689,-2.2954,-2.263,-2.2051,-2.1719,-2.1657,-2.167,-2.186,-2.2035,-2.2207,-2.2144,-2.241,-2.2411,-2.228,-2.2334,-2.1891,-2.1387,-2.1436,-2.0533,-1.9934,-1.9373,-1.8729,-1.776,-1.6814,-1.6355,-1.6089,-1.6348,-1.6536,-1.6818,-1.7027,-1.7068,-1.73,-1.7813,-1.8061,-1.839,-1.8676,-1.8409,-1.8156,-1.7932,-1.7496,-1.6997,-2.1951,-2.2187,-2.199,-2.2163,-2.2494,-2.2433,-2.2689,-2.3138,-2.3138,-2.3384,-2.3571,-2.3406,-2.3397,-2.3498,-2.3371,-2.3283,-2.3271,-2.303,-2.2787,-2.2482,-2.2049,-2.18,-2.16,-2.1749,-2.1937,-2.2123,-2.2371,-2.2189,-2.1783,-2.2014,-2.1763,-2.1066,-2.0901,-2.0741,-2.0372,-2.0259,-2.0295,-2.0547,-2.066,-2.0623,-2.0521,-2.0351,-2.0089,-1.9595,-1.8663,-1.8091,-1.7899,-1.8258,-1.8436,-1.8419,-1.8484,-1.8578,-1.862,-1.8727,-1.8792,-1.8898,-1.8951,-1.8992,-1.8874,-1.8862,-1.9129,-1.9441,-1.9924,-2.031,-2.0604,-2.1027,-2.1718,-2.1655,-2.1497,-2.136,-2.1677,-2.1516,-2.1911,-2.2232,-2.2564,-2.225,-2.1792,-2.1316,-2.097,-2.0825,-2.072,-2.0917,-2.1175,-2.105,-2.1138,-2.1661,-2.1662,-2.1581,-2.1812,-2.1601,-2.1338,-2.1075,-2.0669,-1.9997,-1.9162,-1.8372,-1.7509,-1.6591,-1.5824,-1.5543,-1.5487,-1.554,-1.5724,-1.6009,-1.6108,-1.6134,-1.6529,-1.6111,-1.616,-1.6417,-1.6951,-1.6362,-1.6012,-1.5717,-1.517,-2.1702,-2.1827,-2.1628,-2.1616,-2.1827,-2.169,-2.1939,-2.2347,-2.2408,-2.2887,-2.3406,-2.3144,-2.3267,-2.3554,-2.3192,-2.3078,-2.3078,-2.3017,-2.2909,-2.2494,-2.1975,-2.1651,-2.1812,-2.1686,-2.1686,-2.1761,-2.1761,-2.149,-2.1222,-2.1416,-2.1245,-2.084,-2.052,-2.0395,-2.0167,-1.9548,-1.9488,-1.994,-1.9901,-1.9965,-2.0194,-1.9808,-1.9396,-1.9307,-1.8307,-1.7639,-1.7526,-1.7123,-1.6804,-1.6708,-1.6961,-1.7179,-1.7335,-1.7335,-1.7545,-1.771,-1.7788,-1.7765,-1.7754,-1.7512,-1.7501,-1.8115,-1.8329,-1.8408,-1.8879,-1.9904,-2.0595,-2.0426,-2.0209,-2.0294,-2.0201,-1.9719,-1.9206,-1.9267,-2.0959,-2.1403,-2.0545,-2.0432,-2.0245,-1.9778,-1.9577,-1.9684,-2.0205,-1.9924,-2.022,-2.0745,-2.0993,-2.1046,-2.144,-2.1361,-2.1376,-2.0941,-2.03,-1.9535,-1.8535,-1.8251,-1.7381,-1.6504,-1.5656,-1.5197,-1.4835,-1.4812,-1.4835,-1.5028,-1.5107,-1.5141,-1.5101,-1.4846,-1.499,-1.5635,-1.5467,-1.458,-1.4173,-1.4087,-1.354,-2.1019,-2.088,-2.0646,-2.0764,-2.1146,-2.1198,-2.1439,-2.1827,-2.1951,-2.2109,-2.2231,-2.2345,-2.2591,-2.2788,-2.2837,-2.2848,-2.2934,-2.2873,-2.28,-2.2616,-2.2075,-2.1839,-2.18,-2.1474,-2.1423,-2.1624,-2.1411,-2.1342,-2.1424,-2.128,-2.1146,-2.0986,-2.0321,-1.9972,-1.9799,-1.9036,-1.8786,-1.9146,-1.9344,-1.9291,-1.9226,-1.9352,-1.9261,-1.8879,-1.784,-1.7213,-1.6987,-1.6213,-1.6062,-1.6504,-1.6607,-1.6616,-1.6585,-1.6585,-1.6528,-1.6415,-1.6358,-1.6301,-1.6197,-1.6167,-1.6275,-1.6389,-1.6815,-1.7106,-1.7242,-1.7647,-1.7965,-1.793,-1.7687,-1.7528,-1.7755,-1.7872,-1.8165,-1.9076,-1.9851,-2.011,-1.9636,-1.9678,-1.9617,-1.8978,-1.8922,-1.8871,-1.8904,-1.8871,-1.9139,-1.9745,-1.9867,-2.0078,-2.0886,-2.0478,-2.0184,-1.9886,-1.9289,-1.8595,-1.7962,-1.7779,-1.7258,-1.6424,-1.5668,-1.5073,-1.4617,-1.4247,-1.4283,-1.4376,-1.4179,-1.4163,-1.4227,-1.4125,-1.4528,-1.4616,-1.4016,-1.3252,-1.3067,-1.2918,-1.2105,-2.0828,-2.0711,-2.027,-2.027,-2.0518,-2.07,-2.1008,-2.1325,-2.1502,-2.1706,-2.1799,-2.1922,-2.2226,-2.2583,-2.2744,-2.2823,-2.2873,-2.2885,-2.2837,-2.2506,-2.1737,-2.1451,-2.1432,-2.1049,-2.1014,-2.1423,-2.1094,-2.1158,-2.1348,-2.1083,-2.0974,-2.095,-2.0261,-1.9738,-1.9516,-1.8626,-1.8224,-1.8441,-1.8602,-1.8494,-1.8494,-1.839,-1.8277,-1.7921,-1.7149,-1.6524,-1.6203,-1.5714,-1.5632,-1.605,-1.6074,-1.5921,-1.5671,-1.5786,-1.568,-1.5274,-1.5332,-1.5284,-1.4991,-1.4963,-1.4895,-1.4843,-1.5273,-1.5425,-1.5458,-1.5768,-1.6351,-1.6412,-1.5958,-1.5978,-1.6223,-1.6457,-1.6931,-1.7624,-1.826,-1.85,-1.8562,-1.882,-1.8623,-1.8059,-1.7722,-1.7873,-1.8029,-1.7808,-1.8423,-1.9287,-1.9391,-2.0038,-2.0749,-1.9751,-1.8973,-1.8831,-1.8401,-1.772,-1.725,-1.7076,-1.6897,-1.6144,-1.5336,-1.4753,-1.4247,-1.38,-1.3941,-1.3884,-1.3457,-1.3258,-1.3379,-1.3253,-1.2878,-1.2759,-1.2363,-1.2116,-1.195,-1.1713,-1.0895,-2.0955,-2.0839,-2.0324,-2.0074,-2.0009,-2.0281,-2.0582,-2.0828,-2.0955,-2.1353,-2.1701,-2.1614,-2.1917,-2.2738,-2.2562,-2.2719,-2.2767,-2.2814,-2.2785,-2.2322,-2.1533,-2.1008,-2.1204,-2.0563,-2.0643,-2.1037,-2.0775,-2.0903,-2.1042,-2.0839,-2.0846,-2.0768,-2.0128,-1.9595,-1.9194,-1.834,-1.7943,-1.7952,-1.7854,-1.7854,-1.7829,-1.7483,-1.7321,-1.7225,-1.6545,-1.5888,-1.5571,-1.5346,-1.5415,-1.5526,-1.5362,-1.5059,-1.4697,-1.4815,-1.4688,-1.4282,-1.4282,-1.4273,-1.4034,-1.3803,-1.3692,-1.3554,-1.3802,-1.3817,-1.3735,-1.4498,-1.5169,-1.526,-1.5087,-1.5074,-1.5239,-1.5069,-1.533,-1.5923,-1.6486,-1.7049,-1.7594,-1.7949,-1.7794,-1.6931,-1.6415,-1.6791,-1.7116,-1.7254,-1.7235,-1.881,-1.8906,-1.9347,-1.9744,-1.9131,-1.8552,-1.8202,-1.7597,-1.6839,-1.6528,-1.6333,-1.6186,-1.578,-1.4911,-1.4275,-1.3705,-1.3409,-1.3647,-1.361,-1.3228,-1.2939,-1.2813,-1.244,-1.1787,-1.1285,-1.1122,-1.0927,-1.0677,-1.0501,-0.9939,-2.1158,-2.0529,-2.0529,-2.0259,-1.9998,-2.027,-2.0335,-2.0335,-2.0464,-2.0607,-2.0651,-2.0873,-2.1384,-2.1866,-2.1835,-2.19,-2.2203,-2.2138,-2.2071,-2.2223,-2.1317,-2.1082,-2.1077,-2.0432,-2.0387,-2.0801,-2.07,-2.0828,-2.1031,-2.0805,-2.0613,-2.0565,-1.9961,-1.933,-1.8897,-1.8014,-1.7434,-1.7423,-1.7312,-1.7234,-1.7179,-1.7014,-1.686,-1.6832,-1.6265,-1.5654,-1.5137,-1.505,-1.4925,-1.4697,-1.4656,-1.441,-1.3674,-1.3623,-1.3373,-1.2887,-1.2712,-1.2712,-1.2658,-1.2536,-1.2359,-1.256,-1.2499,-1.2437,-1.2699,-1.298,-1.3492,-1.379,-1.3729,-1.3593,-1.374,-1.3973,-1.4247,-1.4666,-1.4997,-1.538,-1.6049,-1.6966,-1.7064,-1.657,-1.6219,-1.6212,-1.6122,-1.6631,-1.7095,-1.8122,-1.8481,-1.8674,-1.8575,-1.8407,-1.7817,-1.7268,-1.6781,-1.6066,-1.5869,-1.5659,-1.5497,-1.5165,-1.441,-1.3886,-1.3326,-1.2919,-1.3064,-1.3132,-1.2997,-1.2754,-1.2403,-1.1719,-1.1091,-1.0533,-1.0036,-0.986,-0.9688,-0.9395,-0.8959,-2.1609,-2.068,-2.0882,-2.0587,-2.002,-2.027,-2.0281,-2.0151,-2.0346,-2.0281,-2.0151,-2.0399,-2.073,-2.1152,-2.1248,-2.1425,-2.1459,-2.144,-2.1526,-2.1545,-2.1046,-2.1058,-2.114,-2.0586,-2.0341,-2.0707,-2.0506,-2.0571,-2.0775,-2.059,-2.0389,-2.0339,-1.9644,-1.905,-1.8543,-1.7744,-1.7233,-1.6909,-1.6606,-1.6368,-1.6275,-1.5979,-1.5853,-1.5921,-1.569,-1.5399,-1.4907,-1.511,-1.4697,-1.4181,-1.4121,-1.3812,-1.2895,-1.2773,-1.2397,-1.1856,-1.1919,-1.1864,-1.1747,-1.1747,-1.1747,-1.1553,-1.1498,-1.1685,-1.1802,-1.1802,-1.2085,-1.2505,-1.239,-1.2158,-1.2351,-1.2445,-1.2907,-1.3422,-1.367,-1.4145,-1.5097,-1.5791,-1.6016,-1.5604,-1.5401,-1.5403,-1.5549,-1.5982,-1.6835,-1.7765,-1.7618,-1.779,-1.7779,-1.7451,-1.6569,-1.6013,-1.5719,-1.5381,-1.5193,-1.4985,-1.4824,-1.4388,-1.3747,-1.3415,-1.3094,-1.2725,-1.2433,-1.2442,-1.2452,-1.2264,-1.1859,-1.1124,-1.0435,-0.9948,-0.9475,-0.907,-0.8645,-0.8224,-0.7838,-2.2232,-2.0975,-2.1261,-2.082,-1.9976,-2.0129,-2.0205,-2.0074,-2.027,-2.014,-1.9944,-1.9944,-2.0071,-2.0404,-2.0641,-2.0708,-2.072,-2.0871,-2.0933,-2.1066,-2.1039,-2.1074,-2.1163,-2.0762,-2.0392,-2.0635,-2.0388,-2.0431,-2.0448,-2.0222,-1.9961,-1.9817,-1.9351,-1.8614,-1.8008,-1.7508,-1.6931,-1.6513,-1.5968,-1.5565,-1.5352,-1.4883,-1.4579,-1.4647,-1.4824,-1.4942,-1.4718,-1.4815,-1.4588,-1.3571,-1.3519,-1.3025,-1.2413,-1.2097,-1.1796,-1.1121,-1.1253,-1.119,-1.0954,-1.1128,-1.1122,-1.0561,-1.0807,-1.1059,-1.1059,-1.1003,-1.1234,-1.1362,-1.1446,-1.1303,-1.1435,-1.1582,-1.1772,-1.2166,-1.2456,-1.3176,-1.4114,-1.4232,-1.4016,-1.4909,-1.4518,-1.4124,-1.4817,-1.5407,-1.6432,-1.7157,-1.6947,-1.6822,-1.6783,-1.6514,-1.566,-1.5153,-1.499,-1.4876,-1.4722,-1.4633,-1.4397,-1.382,-1.3145,-1.2729,-1.2442,-1.1743,-1.1404,-1.181,-1.1801,-1.1493,-1.1091,-1.0446,-0.9851,-0.9372,-0.8712,-0.8056,-0.7512,-0.7048,-0.6533,-2.255,-2.1318,-2.1396,-2.0698,-1.9703,-1.9681,-1.9834,-1.9944,-1.9987,-1.9681,-1.9306,-1.9295,-1.9354,-1.9435,-1.9391,-1.9589,-1.9843,-2.014,-2.0495,-2.0816,-2.0986,-2.1255,-2.1244,-2.0957,-2.0662,-2.0495,-2.0442,-2.0351,-2.0124,-1.9912,-1.9649,-1.8885,-1.8625,-1.8104,-1.7435,-1.6885,-1.6555,-1.6056,-1.5517,-1.5177,-1.4824,-1.4291,-1.3941,-1.3941,-1.4052,-1.4189,-1.4318,-1.4249,-1.3932,-1.3321,-1.2704,-1.2089,-1.1608,-1.1358,-1.0878,-1.0285,-1.0134,-1.016,-0.9955,-1.0058,-1.0212,-1.0244,-1.018,-1.0308,-1.0428,-1.0358,-1.034,-1.0665,-1.0932,-1.0996,-1.0926,-1.0822,-1.1029,-1.125,-1.1433,-1.1913,-1.2305,-1.1962,-1.2277,-1.3912,-1.3437,-1.3047,-1.3931,-1.4639,-1.5307,-1.5754,-1.5593,-1.554,-1.555,-1.5314,-1.4854,-1.4548,-1.4429,-1.4369,-1.4302,-1.4219,-1.4035,-1.338,-1.2663,-1.1772,-1.1312,-1.0455,-1.0249,-1.0269,-1.0438,-1.034,-0.9946,-0.951,-0.8718,-0.7899,-0.7389,-0.691,-0.6272,-0.5534,-0.4928,-2.2122,-2.061,-2.0986,-2.0344,-1.9368,-1.9536,-1.9676,-1.9796,-1.9702,-1.954,-1.9192,-1.8765,-1.8468,-1.8377,-1.8291,-1.8442,-1.8854,-1.9396,-1.9791,-2.0248,-2.0688,-2.1071,-2.121,-2.0955,-2.0711,-2.0453,-2.0313,-2.016,-1.9918,-2.0004,-1.9497,-1.9111,-1.8791,-1.8192,-1.7318,-1.6958,-1.6308,-1.5722,-1.5177,-1.4638,-1.4172,-1.3511,-1.3086,-1.2964,-1.3208,-1.3459,-1.3519,-1.3761,-1.3519,-1.3033,-1.2658,-1.1911,-1.1296,-1.078,-1.0355,-0.97,-0.9394,-0.9163,-0.8972,-0.9082,-0.9192,-0.8935,-0.9011,-0.9145,-0.9268,-0.9139,-0.9274,-0.9582,-0.9907,-1.004,-1.0091,-0.992,-0.9761,-0.9964,-1.0005,-1.0387,-1.0588,-0.9681,-1.0769,-1.2422,-1.195,-1.199,-1.3224,-1.3823,-1.4181,-1.4293,-1.4177,-1.4187,-1.4177,-1.4,-1.3741,-1.3818,-1.3657,-1.3584,-1.3424,-1.3316,-1.3067,-1.2444,-1.1777,-1.0917,-0.9873,-0.8846,-0.8323,-0.8148,-0.8416,-0.8652,-0.8567,-0.8032,-0.7241,-0.6374,-0.5746,-0.5114,-0.4646,-0.4033,-0.3251,-2.1705,-2.0018,-2.0597,-2.0073,-1.909,-1.9377,-1.9651,-1.9725,-1.9646,-1.9397,-1.9044,-1.8394,-1.7875,-1.7558,-1.7422,-1.7517,-1.7891,-1.8596,-1.8998,-1.9528,-1.9966,-2.042,-2.0764,-2.07,-2.0366,-2.0042,-1.9791,-1.9683,-1.9609,-1.9598,-1.9415,-1.8848,-1.8774,-1.8134,-1.69,-1.6467,-1.6019,-1.537,-1.4706,-1.4043,-1.3199,-1.2474,-1.205,-1.1864,-1.2413,-1.2712,-1.2773,-1.3086,-1.3033,-1.2736,-1.249,-1.212,-1.1178,-1.0604,-1.0098,-0.9518,-0.9,-0.8533,-0.8094,-0.821,-0.8221,-0.7897,-0.8032,-0.8096,-0.8231,-0.8301,-0.8301,-0.849,-0.9005,-0.9396,-0.9558,-0.9035,-0.8974,-0.8985,-0.8896,-0.8581,-0.901,-0.8781,-0.8273,-0.9275,-0.9725,-1.0456,-1.119,-1.1635,-1.1711,-1.2169,-1.2068,-1.2255,-1.2325,-1.2592,-1.2582,-1.2848,-1.2863,-1.2736,-1.2522,-1.2177,-1.1682,-1.0959,-1.0205,-0.9383,-0.8252,-0.7126,-0.6686,-0.6209,-0.6181,-0.6402,-0.6466,-0.6437,-0.5644,-0.4797,-0.4,-0.3203,-0.2526,-0.1739,-0.0987,-2.1693,-2.0471,-2.0468,-2.006,-1.941,-1.9283,-1.9586,-1.9941,-1.9919,-1.9403,-1.8573,-1.8239,-1.7667,-1.6998,-1.6881,-1.7131,-1.7458,-1.7774,-1.8327,-1.8854,-1.9243,-1.9639,-1.9901,-1.9628,-1.9562,-1.9375,-1.9065,-1.9023,-1.891,-1.8816,-1.8447,-1.7893,-1.759,-1.674,-1.5842,-1.5846,-1.5228,-1.4441,-1.3872,-1.3139,-1.2166,-1.1677,-1.1615,-1.174,-1.1802,-1.1856,-1.2104,-1.2351,-1.2421,-1.2243,-1.2189,-1.1996,-1.1545,-1.0465,-0.9894,-0.939,-0.8854,-0.8078,-0.734,-0.7357,-0.7442,-0.7246,-0.7246,-0.7381,-0.7647,-0.8042,-0.8236,-0.8495,-0.9134,-0.9454,-0.939,-0.9539,-0.9474,-0.8927,-0.8376,-0.8175,-0.8189,-0.6956,-0.6559,-0.6172,-0.6643,-0.7579,-0.8454,-0.8792,-0.912,-0.9575,-0.9991,-1.0181,-1.0568,-1.0937,-1.118,-1.1437,-1.1575,-1.1405,-1.1199,-1.0944,-1.0151,-0.9414,-0.8691,-0.785,-0.6532,-0.541,-0.4664,-0.4281,-0.4219,-0.3985,-0.3949,-0.3882,-0.3728,-0.2903,-0.1693,-0.0884,-0.0189,0.0582,0.1331,-2.0299,-1.9933,-1.9668,-1.9273,-1.8932,-1.9223,-1.9324,-1.9318,-1.9678,-1.9392,-1.8554,-1.7725,-1.6762,-1.6085,-1.6105,-1.6393,-1.6596,-1.7157,-1.7647,-1.8192,-1.8664,-1.9065,-1.933,-1.9253,-1.9054,-1.8576,-1.8335,-1.7868,-1.7905,-1.8067,-1.7991,-1.7317,-1.7062,-1.6636,-1.5351,-1.5404,-1.4843,-1.4005,-1.3147,-1.2413,-1.1732,-1.1178,-1.08,-1.0863,-1.073,-1.0856,-1.117,-1.1288,-1.16,-1.174,-1.1872,-1.1809,-1.1615,-1.0856,-1.0028,-0.9,-0.849,-0.7737,-0.6974,-0.6894,-0.6785,-0.6732,-0.6732,-0.6933,-0.726,-0.7717,-0.8112,-0.8236,-0.8619,-0.8877,-0.8843,-0.8684,-0.8321,-0.7876,-0.7502,-0.6787,-0.6298,-0.5208,-0.4366,-0.3877,-0.3468,-0.4128,-0.4931,-0.5495,-0.6148,-0.7128,-0.7537,-0.7755,-0.8521,-0.943,-0.9701,-0.992,-0.9955,-0.9926,-0.9731,-0.9415,-0.8482,-0.7746,-0.7354,-0.6314,-0.477,-0.3639,-0.2887,-0.2224,-0.1946,-0.1737,-0.1536,-0.1721,-0.1911,-0.069,0.0769,0.154,0.2253,0.2864,0.3465,-1.9056,-1.9394,-1.9094,-1.8831,-1.8735,-1.9286,-1.9341,-1.917,-1.9487,-1.9422,-1.8729,-1.7517,-1.6205,-1.5389,-1.5609,-1.5833,-1.585,-1.6603,-1.7157,-1.7579,-1.7988,-1.8395,-1.8529,-1.8596,-1.8317,-1.7823,-1.7378,-1.6861,-1.6508,-1.6671,-1.6791,-1.6688,-1.667,-1.6143,-1.5446,-1.4989,-1.4374,-1.3152,-1.2351,-1.1732,-1.124,-1.0618,-1.0174,-0.9913,-0.9786,-0.9843,-1.0168,-1.0408,-1.0905,-1.1296,-1.1498,-1.1498,-1.1428,-1.08,-0.9901,-0.8935,-0.8236,-0.7521,-0.685,-0.6535,-0.6342,-0.628,-0.6416,-0.6741,-0.7007,-0.7531,-0.7922,-0.8047,-0.8296,-0.8431,-0.8275,-0.7894,-0.7541,-0.6894,-0.6043,-0.516,-0.4166,-0.3184,-0.2161,-0.1437,-0.0789,0.0055,-0.076,-0.1834,-0.2966,-0.4429,-0.5071,-0.5321,-0.6175,-0.7312,-0.7404,-0.7423,-0.759,-0.7445,-0.7113,-0.6923,-0.6274,-0.5879,-0.5415,-0.4561,-0.2913,-0.179,-0.1054,-0.0393,-0.0065,0.0324,0.0384,0.0064,-0.0064,0.1296,0.2615,0.3816,0.4701,0.5262,0.5401,-1.8616,-1.9469,-1.9253,-1.9265,-1.942,-1.9203,-1.9496,-1.9774,-1.9653,-1.9395,-1.8801,-1.7622,-1.642,-1.5692,-1.5291,-1.5414,-1.5576,-1.6105,-1.6603,-1.7028,-1.7442,-1.7725,-1.7794,-1.7657,-1.7345,-1.6771,-1.6365,-1.5615,-1.4917,-1.4942,-1.524,-1.5504,-1.5731,-1.5194,-1.4645,-1.4164,-1.3445,-1.236,-1.1677,-1.1045,-1.0548,-1.0047,-0.9792,-0.9402,-0.9338,-0.946,-0.9837,-0.9952,-1.0401,-1.0856,-1.0926,-1.1122,-1.1059,-1.0428,-0.9524,-0.8807,-0.8107,-0.7335,-0.6548,-0.6218,-0.5888,-0.576,-0.6086,-0.6679,-0.6876,-0.733,-0.7657,-0.7922,-0.8042,-0.8037,-0.8037,-0.7817,-0.6919,-0.5853,-0.4709,-0.3695,-0.2586,-0.1217,-0.0181,0.0897,0.1767,0.2655,0.3093,0.1938,-0.0056,-0.16,-0.2398,-0.2675,-0.3466,-0.4398,-0.4409,-0.4483,-0.476,-0.4578,-0.3982,-0.385,-0.4038,-0.3443,-0.2718,-0.1995,-0.0869,0.0,0.0334,0.0467,0.0662,0.1463,0.2129,0.1707,0.1829,0.3238,0.4461,0.545,0.6498,0.7163,0.7172,-1.8222,-1.9693,-1.9261,-1.9247,-1.9573,-1.9282,-1.9025,-1.8917,-1.8994,-1.8433,-1.7588,-1.713,-1.6226,-1.5258,-1.5012,-1.5056,-1.5182,-1.5692,-1.6193,-1.6691,-1.7116,-1.7392,-1.7323,-1.6922,-1.6624,-1.5936,-1.5385,-1.4698,-1.3926,-1.376,-1.3592,-1.3917,-1.4442,-1.4566,-1.4069,-1.3243,-1.233,-1.1636,-1.1115,-1.0674,-1.011,-0.9658,-0.9332,-0.8877,-0.8565,-0.8624,-0.8812,-0.8935,-0.9512,-1.0028,-1.0098,-1.0358,-1.0611,-0.9919,-0.9268,-0.8549,-0.7917,-0.7073,-0.6156,-0.6024,-0.609,-0.6148,-0.6609,-0.7007,-0.6942,-0.7461,-0.7591,-0.7657,-0.7451,-0.7381,-0.6789,-0.6322,-0.5577,-0.4555,-0.3396,-0.2253,-0.0763,0.0691,0.2047,0.3252,0.4267,0.5247,0.5582,0.5663,0.338,0.1332,0.0547,-0.019,-0.0973,-0.1587,-0.1651,-0.1988,-0.2391,-0.2462,-0.1931,-0.1995,-0.2127,-0.1265,-0.0267,0.0067,0.047,0.0671,0.1006,0.1142,0.1478,0.2143,0.2669,0.2852,0.3645,0.492,0.592,0.6711,0.7757,0.8865,0.8544,-1.7615,-1.907,-1.8761,-1.909,-1.9678,-1.934,-1.8834,-1.847,-1.8338,-1.7665,-1.6463,-1.6579,-1.5821,-1.4822,-1.4564,-1.4676,-1.4824,-1.5346,-1.57,-1.6202,-1.6621,-1.6899,-1.6682,-1.6271,-1.5731,-1.5138,-1.4443,-1.3731,-1.2826,-1.2966,-1.2738,-1.2615,-1.2913,-1.3236,-1.3046,-1.2231,-1.1302,-1.0685,-1.0288,-0.997,-0.9402,-0.9075,-0.8753,-0.8236,-0.7982,-0.7982,-0.8172,-0.8366,-0.8742,-0.9192,-0.9454,-0.9594,-0.9658,-0.9524,-0.8818,-0.8172,-0.7456,-0.6609,-0.5888,-0.5627,-0.602,-0.6083,-0.6539,-0.6741,-0.6937,-0.7326,-0.733,-0.7068,-0.6732,-0.6199,-0.5606,-0.5064,-0.399,-0.2845,-0.1581,-0.0326,0.1492,0.3091,0.4394,0.5615,0.652,0.7198,0.7091,0.7062,0.5474,0.3579,0.283,0.2097,0.1349,0.0913,0.0855,0.033,-0.02,-0.02,-0.0134,-0.0333,-0.04,0.0133,0.0871,0.1006,0.1344,0.1546,0.1813,0.2216,0.2551,0.2887,0.3476,0.4185,0.5311,0.6588,0.7377,0.8021,0.8924,0.9773,0.932,-1.6821,-1.7564,-1.7788,-1.875,-1.9907,-1.9116,-1.8876,-1.8695,-1.7763,-1.6951,-1.6287,-1.5681,-1.5062,-1.4496,-1.4214,-1.4255,-1.4377,-1.507,-1.5426,-1.5488,-1.5903,-1.5974,-1.5762,-1.5429,-1.5006,-1.4109,-1.3568,-1.287,-1.1867,-1.1971,-1.174,-1.1566,-1.1695,-1.1821,-1.1578,-1.0659,-0.9867,-0.9373,-0.9069,-0.8812,-0.8495,-0.8301,-0.8117,-0.7792,-0.7526,-0.7591,-0.7722,-0.7917,-0.8296,-0.8683,-0.8753,-0.8823,-0.8823,-0.8431,-0.7847,-0.7265,-0.6601,-0.5947,-0.5428,-0.5093,-0.5223,-0.5686,-0.6075,-0.621,-0.621,-0.6474,-0.6671,-0.6342,-0.5804,-0.5404,-0.4734,-0.3862,-0.2395,-0.093,0.0331,0.1584,0.3425,0.4665,0.5849,0.703,0.7991,0.8722,0.8483,0.8036,0.6897,0.573,0.5052,0.4326,0.3539,0.3101,0.2868,0.2578,0.193,0.1866,0.1802,0.1404,0.1339,0.1811,0.2014,0.2149,0.2217,0.2284,0.2686,0.3288,0.3616,0.3877,0.4803,0.5793,0.6976,0.8081,0.8672,0.9384,1.0161,1.0485,0.997,-1.6715,-1.7908,-1.7525,-1.797,-1.8797,-1.8522,-1.8132,-1.7569,-1.646,-1.5606,-1.5145,-1.4808,-1.4452,-1.4011,-1.3928,-1.4,-1.4201,-1.4346,-1.4705,-1.5054,-1.5259,-1.5409,-1.5196,-1.4728,-1.4293,-1.3832,-1.3201,-1.2527,-1.2004,-1.1607,-1.1293,-1.1065,-1.0472,-1.0396,-1.0651,-1.0262,-0.9793,-0.9226,-0.8947,-0.8689,-0.8231,-0.8047,-0.7792,-0.7405,-0.7204,-0.7204,-0.7269,-0.7466,-0.7717,-0.7972,-0.7977,-0.7907,-0.7772,-0.7372,-0.6859,-0.64,-0.5807,-0.5613,-0.4954,-0.4422,-0.4353,-0.4882,-0.5345,-0.5547,-0.5745,-0.587,-0.5738,-0.5209,-0.4406,-0.3737,-0.2538,-0.1736,-0.0467,0.1201,0.2533,0.3529,0.4854,0.5774,0.6798,0.7955,0.9018,0.9172,0.912,0.8946,0.8006,0.7451,0.6768,0.6007,0.5216,0.4795,0.4464,0.4355,0.4066,0.3939,0.3744,0.3207,0.2743,0.288,0.3082,0.322,0.3222,0.3218,0.3887,0.4619,0.474,0.4923,0.6445,0.7832,0.8656,0.9494,0.9888,1.0281,1.0856,1.0926,1.0485,-1.6112,-1.7299,-1.6959,-1.7096,-1.7652,-1.7916,-1.7428,-1.6405,-1.5402,-1.4691,-1.4276,-1.4156,-1.3918,-1.3609,-1.3645,-1.3717,-1.392,-1.4129,-1.4042,-1.4402,-1.4402,-1.433,-1.4114,-1.3803,-1.3193,-1.3011,-1.2572,-1.1921,-1.154,-1.1203,-1.0627,-0.9881,-0.9233,-0.9225,-0.9497,-0.936,-0.9053,-0.8598,-0.8306,-0.8047,-0.7717,-0.7526,-0.7335,-0.7138,-0.6942,-0.6815,-0.6683,-0.6811,-0.6999,-0.7064,-0.6994,-0.6763,-0.6607,-0.6229,-0.5763,-0.5291,-0.4728,-0.4337,-0.3418,-0.295,-0.2948,-0.3478,-0.4278,-0.4749,-0.4752,-0.4616,-0.4276,-0.3675,-0.2872,-0.1735,-0.0601,0.0201,0.1537,0.3145,0.388,0.4815,0.5602,0.6457,0.7307,0.8549,0.9442,0.96,0.9726,0.9617,0.9212,0.8827,0.8405,0.765,0.6937,0.6403,0.5934,0.5734,0.5609,0.5415,0.5147,0.4809,0.4411,0.4079,0.4209,0.4406,0.4406,0.4463,0.5206,0.6156,0.6881,0.7736,0.884,0.9881,1.0415,1.0584,1.0654,1.1108,1.1553,1.1416,1.1094,-1.5227,-1.6032,-1.6076,-1.6307,-1.6686,-1.7397,-1.6874,-1.557,-1.5059,-1.4478,-1.3938,-1.3483,-1.3375,-1.3514,-1.3499,-1.3492,-1.3419,-1.3775,-1.3542,-1.331,-1.331,-1.3025,-1.2739,-1.2358,-1.2303,-1.1984,-1.1625,-1.1395,-1.0887,-1.0277,-0.9596,-0.8876,-0.8392,-0.8337,-0.8324,-0.8185,-0.8037,-0.7947,-0.7657,-0.7461,-0.7269,-0.6872,-0.6876,-0.6745,-0.6613,-0.6284,-0.6086,-0.5947,-0.5752,-0.5617,-0.555,-0.5257,-0.4968,-0.4611,-0.4313,-0.3858,-0.3185,-0.2474,-0.1812,-0.1477,-0.1343,-0.1876,-0.2748,-0.3155,-0.3355,-0.3151,-0.2744,-0.1939,-0.1069,0.0067,0.1133,0.2267,0.3336,0.4143,0.4683,0.5477,0.6199,0.6985,0.7767,0.8742,0.9652,1.0045,1.0295,1.021,1.0114,0.9795,0.9434,0.9057,0.8414,0.7886,0.7395,0.6872,0.6741,0.6622,0.6358,0.6106,0.5749,0.5282,0.5577,0.5763,0.5698,0.6278,0.7569,0.872,0.9645,1.069,1.2007,1.217,1.1839,1.1971,1.2336,1.1817,1.2274,1.2134,1.1919,-1.5225,-1.5781,-1.5854,-1.6061,-1.6368,-1.651,-1.6096,-1.5267,-1.4379,-1.3778,-1.3623,-1.347,-1.3287,-1.3273,-1.3419,-1.3127,-1.298,-1.282,-1.2592,-1.2372,-1.2218,-1.2224,-1.2077,-1.1848,-1.1937,-1.1825,-1.1493,-1.096,-1.0467,-0.9723,-0.8941,-0.8384,-0.777,-0.7571,-0.7272,-0.6988,-0.7203,-0.7391,-0.7113,-0.7052,-0.6973,-0.67,-0.6692,-0.6552,-0.6152,-0.5818,-0.5554,-0.508,-0.4815,-0.461,-0.448,-0.4177,-0.3517,-0.3398,-0.3189,-0.2657,-0.214,-0.1612,-0.1074,-0.0739,-0.0471,-0.0202,-0.074,-0.1543,-0.1811,-0.1747,-0.1208,-0.0468,0.0534,0.1602,0.2533,0.3602,0.4475,0.5014,0.5418,0.5807,0.6539,0.7161,0.8017,0.9368,1.0283,1.0815,1.0991,1.101,1.0894,1.0607,1.0391,1.0198,0.9853,0.9291,0.8919,0.8366,0.8123,0.8036,0.7517,0.7176,0.6792,0.6548,0.7028,0.7643,0.8174,0.9,1.024,1.1593,1.2875,1.4141,1.5401,1.5136,1.4337,1.4364,1.455,1.3633,1.2865,1.2893,1.2848,-1.5032,-1.5348,-1.543,-1.5621,-1.5921,-1.5568,-1.5196,-1.4848,-1.4065,-1.363,-1.3499,-1.3127,-1.3036,-1.3089,-1.294,-1.2641,-1.2335,-1.2342,-1.1996,-1.126,-1.126,-1.1037,-1.1037,-1.1037,-1.0875,-1.0962,-1.0812,-1.034,-0.997,-0.927,-0.8417,-0.7799,-0.7267,-0.6802,-0.649,-0.6317,-0.6347,-0.665,-0.6848,-0.6907,-0.6806,-0.6639,-0.6481,-0.6288,-0.5686,-0.5286,-0.4885,-0.4281,-0.3811,-0.3343,-0.3011,-0.2523,-0.1851,-0.1513,-0.093,-0.0399,-0.0134,0.0067,0.0336,0.0604,0.0811,0.1021,0.1227,0.0893,0.0342,0.0205,0.0405,0.0804,0.194,0.2943,0.3808,0.4677,0.5213,0.5752,0.5947,0.6137,0.67,0.7277,0.858,1.0093,1.0928,1.1527,1.1767,1.1736,1.1709,1.1678,1.165,1.1585,1.1192,1.0725,1.0384,0.9965,0.9693,0.9485,0.8985,0.8636,0.8604,0.8706,0.925,0.9869,1.0541,1.1847,1.3395,1.4874,1.6287,1.7353,1.8272,1.7719,1.7129,1.7063,1.6681,1.5632,1.4658,1.3958,1.403,-1.4713,-1.4991,-1.5007,-1.5342,-1.5396,-1.4832,-1.4529,-1.4497,-1.4129,-1.379,-1.3389,-1.2721,-1.2675,-1.2878,-1.256,-1.2145,-1.1789,-1.1682,-1.1093,-1.0143,-1.0212,-0.9986,-0.969,-0.9392,-0.9911,-0.969,-0.9695,-0.9841,-0.9546,-0.8911,-0.8051,-0.7245,-0.6335,-0.5898,-0.5866,-0.5594,-0.5674,-0.5969,-0.6302,-0.6407,-0.6502,-0.6306,-0.6056,-0.5782,-0.5223,-0.4622,-0.3887,-0.3218,-0.2614,-0.181,-0.1202,-0.0793,-0.0065,0.0585,0.1385,0.1661,0.1608,0.1677,0.1677,0.1945,0.2184,0.2417,0.2586,0.2744,0.2449,0.1863,0.1907,0.2381,0.3476,0.4365,0.5254,0.5519,0.5892,0.6308,0.6519,0.6622,0.6872,0.7967,0.9657,1.1033,1.2134,1.2717,1.3322,1.3397,1.3456,1.3158,1.2957,1.2941,1.2668,1.221,1.1746,1.1472,1.1202,1.0934,1.075,1.0533,1.0661,1.0929,1.1567,1.2578,1.3635,1.5063,1.6527,1.7932,1.9229,2.0016,2.0601,2.0294,2.0028,1.9451,1.8846,1.7709,1.6723,1.5854,1.5198,-1.4705,-1.5158,-1.571,-1.6054,-1.5981,-1.5389,-1.4855,-1.4505,-1.355,-1.3248,-1.3208,-1.2948,-1.2786,-1.2609,-1.2144,-1.1617,-1.1123,-1.077,-1.0062,-0.9473,-0.9231,-0.9231,-0.9074,-0.9054,-0.9216,-0.9382,-0.9458,-0.9432,-0.9145,-0.8477,-0.7719,-0.6949,-0.6142,-0.5741,-0.5259,-0.5092,-0.5146,-0.5438,-0.5516,-0.5666,-0.5783,-0.5638,-0.5375,-0.5068,-0.4556,-0.3887,-0.3151,-0.2281,-0.1543,-0.0806,-0.047,0.0334,0.1395,0.2055,0.246,0.2676,0.2746,0.2815,0.295,0.3159,0.3411,0.3882,0.4139,0.4401,0.4255,0.3698,0.3604,0.424,0.4873,0.5714,0.6386,0.6412,0.6602,0.6897,0.7238,0.725,0.7326,0.9062,1.0823,1.2134,1.3342,1.4109,1.4781,1.4972,1.505,1.4934,1.4664,1.4477,1.4234,1.381,1.3068,1.2737,1.2434,1.2206,1.2298,1.2662,1.2907,1.3542,1.4282,1.5427,1.6681,1.813,1.9563,2.0848,2.1987,2.26,2.3201,2.3636,2.3241,2.2153,2.1104,2.0018,1.9222,1.8374,1.7252,-1.4425,-1.4498,-1.4587,-1.4684,-1.4691,-1.4398,-1.4144,-1.3863,-1.3112,-1.2838,-1.2782,-1.2446,-1.2201,-1.2049,-1.1496,-1.1117,-1.0374,-0.9958,-0.9356,-0.8813,-0.8537,-0.8475,-0.8528,-0.8524,-0.8557,-0.8716,-0.9015,-0.8996,-0.8697,-0.8221,-0.7596,-0.6801,-0.6186,-0.5547,-0.4868,-0.4697,-0.4763,-0.5055,-0.4836,-0.4781,-0.4912,-0.4883,-0.4651,-0.4355,-0.3754,-0.3017,-0.2214,-0.1276,-0.0537,0.0403,0.1208,0.2345,0.3207,0.3606,0.3811,0.3949,0.3949,0.3816,0.3885,0.4105,0.4368,0.4879,0.5316,0.5464,0.6173,0.5649,0.5445,0.5951,0.5965,0.6674,0.7246,0.744,0.7697,0.7995,0.8503,0.8732,0.9945,1.1754,1.3485,1.5042,1.5826,1.6246,1.666,1.6524,1.6492,1.5741,1.5618,1.5469,1.5314,1.5275,1.4519,1.4235,1.4128,1.43,1.4728,1.5035,1.5402,1.6121,1.6917,1.8276,1.9568,2.1146,2.2559,2.3362,2.4147,2.4962,2.5535,2.5733,2.5289,2.4086,2.318,2.2288,2.151,2.0654,1.9659,-1.4119,-1.3608,-1.3075,-1.2889,-1.2963,-1.2963,-1.3015,-1.3053,-1.2606,-1.2357,-1.2113,-1.1402,-1.1207,-1.0997,-1.0502,-1.0243,-0.9903,-0.9365,-0.8737,-0.8313,-0.8045,-0.7895,-0.775,-0.7633,-0.7799,-0.8088,-0.8406,-0.8567,-0.8503,-0.8029,-0.7477,-0.6714,-0.592,-0.5129,-0.472,-0.4494,-0.4566,-0.4334,-0.4107,-0.3885,-0.4035,-0.4198,-0.3918,-0.3406,-0.275,-0.2013,-0.1142,-0.0336,0.047,0.161,0.2815,0.3882,0.4619,0.4818,0.5087,0.5153,0.5017,0.4815,0.4818,0.4954,0.5238,0.5594,0.6108,0.6615,0.7352,0.7451,0.7281,0.7211,0.7216,0.7468,0.7985,0.8443,0.8649,0.9346,0.9885,1.0536,1.2373,1.4162,1.5776,1.7388,1.7846,1.8158,1.8267,1.8215,1.7734,1.6983,1.6486,1.6239,1.6117,1.6152,1.5817,1.6103,1.6402,1.6674,1.7022,1.7301,1.7576,1.8501,1.9337,2.0937,2.2293,2.3358,2.4313,2.5261,2.6046,2.6698,2.6971,2.7051,2.6445,2.5767,2.4955,2.4006,2.3165,2.2383,2.1858,-1.38,-1.3938,-1.3572,-1.3468,-1.3386,-1.3003,-1.2811,-1.2546,-1.1632,-1.1297,-1.132,-1.0534,-1.0253,-1.073,-1.0497,-1.0083,-0.9371,-0.8768,-0.8223,-0.7759,-0.7618,-0.7356,-0.7183,-0.7155,-0.7237,-0.7525,-0.7803,-0.8221,-0.7993,-0.7722,-0.7364,-0.6718,-0.5676,-0.5023,-0.4768,-0.4503,-0.4103,-0.3776,-0.3406,-0.3196,-0.269,-0.2851,-0.3051,-0.2446,-0.1609,-0.0872,-0.0134,0.0605,0.1478,0.2616,0.3882,0.4882,0.5415,0.5752,0.5951,0.5888,0.5749,0.5679,0.5613,0.5683,0.5905,0.6383,0.6838,0.7153,0.7729,0.8138,0.8031,0.8114,0.8199,0.8363,0.8849,0.9061,0.9439,1.0816,1.1648,1.2773,1.4163,1.5661,1.7125,1.829,1.9065,1.9515,1.9985,1.9879,1.9829,1.901,1.8204,1.7882,1.7257,1.7126,1.6967,1.7738,1.8404,1.8923,1.9188,1.9244,1.9658,2.0634,2.162,2.284,2.3939,2.4998,2.5948,2.668,2.7455,2.8153,2.8325,2.8121,2.7697,2.6983,2.64,2.559,2.4799,2.4045,2.3344]},{"header":{"parameterUnit":"m.s-1","parameterCategory":1,"la1":31.0,"la2":29.5877,"lo1":-88.7671,"lo2":-86.6584,"dy":0.0162,"dx":0.0185,"nx":115,"ny":88,"refTime":"2026-05-09T12:00:00:Z","depth":0,"parameterNumber":3,"parameterNumberName":"V-component_of_WINDS"},"data":[0.0,0.0,0.0,0.0,0.0,0.0,0.0,0.0,0.0,0.0,0.0,0.0,0.0,0.0,0.0,0.0,0.0,0.0,0.0,0.0,0.0,0.0,0.0,0.0,0.0,0.0,0.0,0.0,0.0,0.0,0.0,0.0,0.0,0.0,0.0,0.0,0.0,0.0,0.0,0.0,0.0,0.0,0.0,0.0,0.0,0.0,0.0,0.0,0.0,0.0,0.0,0.0,0.0,0.0,0.0,0.0,0.0,0.0,0.0,0.0,0.0,0.0,0.0,0.0,0.0,0.0,0.0,0.0,0.0,0.0,0.0,0.0,0.0,0.0,0.0,0.0,0.0,0.0,0.0,0.0,0.0,0.0,0.0,0.0,0.0,0.0,0.0,0.0,0.0,0.0,0.0,0.0,0.0,0.0,0.0,0.0,0.0,0.0,0.0,0.0,0.0,0.0,0.0,0.0,0.0,0.0,0.0,0.0,0.0,0.0,0.0,0.0,0.0,0.0,0.0,0.0,0.0,0.0,0.0,0.0,0.0,0.0,0.0,0.0,0.0,0.0,0.0,0.0,0.0,0.0,0.0,0.0,0.0,0.0,0.0,0.0,0.0,0.0,0.0,0.0,0.0,0.0,0.0,0.0,0.0,0.0,0.0,0.0,0.0,0.0,0.0,0.0,0.0,0.0,0.0,0.0,0.0,0.0,0.0,0.0,0.0,0.0,0.0,0.0,0.0,0.0,0.0,0.0,0.0,0.0,0.0,0.0,0.0,0.0,0.0,0.0,0.0,0.0,0.0,0.0,0.0,0.0,0.0,0.0,0.0,0.0,0.0,0.0,0.0,0.0,0.0,0.0,0.0,0.0,0.0,0.0,0.0,0.0,0.0,0.0,0.0,0.0,0.0,0.0,0.0,0.0,0.0,0.0,0.0,0.0,0.0,0.0,0.0,0.0,0.0,0.0,0.0,0.0,0.0,0.0,0.0,0.0,0.0,0.0,0.0,0.0,0.0,0.0,0.0,0.0,0.0,0.0,0.0,0.0,0.0,0.0,0.0,0.0,0.0,0.0,0.0,0.0,0.0,0.0,0.0,0.0,0.0,0.0,0.0,0.0,0.0,0.0,0.0,0.0,0.0,0.0,0.0,0.0,0.0,0.0,0.0,0.0,0.0,0.0,0.0,0.0,0.0,0.0,0.0,0.0,0.0,0.0,0.0,0.0,0.0,0.0,0.0,0.0,0.0,0.0,0.0,0.0,0.0,0.0,0.0,0.0,0.0,0.0,0.0,0.0,0.0,0.0,0.0,0.0,0.0,0.0,0.0,0.0,0.0,0.0,0.0,0.0,0.0,0.0,0.0,0.0,0.0,0.0,0.0,0.0,0.0,0.0,0.0,0.0,0.0,0.0,0.0,0.0,0.0,0.0,0.0,0.0,0.0,0.0,0.0,0.0,0.0,0.0,0.0,0.0,0.0,0.0,0.0,0.0,0.0,0.0,0.0,0.0,0.0,0.0,0.0,0.0,0.0,0.0,0.0,0.0,0.0,0.0,0.0,0.0,0.0,0.0,0.0,0.0,0.0,0.0,0.0,0.0,0.0,0.0,0.0,0.0,0.0,0.0,0.0,0.0,0.0,0.0,0.0,0.0,0.0,0.0,0.0,0.0,0.0,0.0,0.0,0.0,0.0,0.0,0.0,0.0,0.0,0.0,0.0,0.0,0.0,0.0,0.0,0.0,0.0,0.0,0.0,0.0,0.0,0.0,0.0,0.0,0.0,0.0,0.0,0.0,0.0,0.0,0.0,0.0,0.0,0.0,0.0,0.0,0.0,0.0,0.0,0.0,0.0,0.0,0.0,0.0,0.0,0.0,0.0,0.0,0.0,0.0,0.0,0.0,0.0,0.0,0.0,0.0,0.0,0.0,0.0,0.0,0.0,0.0,0.0,0.0,0.0,0.0,0.0,0.0,0.0,0.0,0.0,0.0,0.0,0.0,0.0,0.0,0.0,0.0,0.0,0.0,0.0,0.0,0.0,0.0,0.0,0.0,0.0,0.0,0.0,0.0,0.0,0.0,0.0,0.0,0.0,0.0,0.0,0.0,0.0,0.0,0.0,0.0,0.0,0.0,0.0,0.0,0.0,0.0,0.0,0.0,0.0,0.0,0.0,0.0,0.0,0.0,0.0,0.0,0.0,0.0,0.0,0.0,0.0,0.0,0.0,0.0,0.0,0.0,0.0,0.0,0.0,0.0,0.0,0.0,0.0,0.0,0.0,0.0,0.0,0.0,0.0,0.0,0.0,0.0,0.0,0.0,0.0,0.0,0.0,0.0,0.0,0.0,0.0,0.0,0.0,0.0,0.0,0.0,0.0,0.0,0.0,0.0,0.0,0.0,0.0,0.0,0.0,0.0,0.0,0.0,0.0,0.0,0.0,0.0,0.0,0.0,0.0,0.0,0.0,0.0,0.0,0.0,0.0,0.0,0.0,0.0,0.0,0.0,0.0,0.0,0.0,0.0,0.0,0.0,0.0,0.0,0.0,0.0,0.0,0.0,0.0,0.0,0.0,0.0,0.0,0.0,0.0,0.0,0.0,0.0,0.0,0.0,0.0,0.0,0.0,0.0,0.0,0.0,0.0,0.0,0.0,0.0,0.0,0.0,0.0,0.0,0.0,0.0,0.0,0.0,0.0,0.0,0.0,0.0,0.0,0.0,0.0,0.0,0.0,0.0,0.0,0.0,0.0,0.0,0.0,0.0,0.0,0.0,0.0,0.0,0.0,0.0,0.0,0.0,0.0,0.0,0.0,0.0,0.0,0.0,0.0,0.0,0.0,0.0,0.0,0.0,0.0,0.0,0.0,0.0,0.0,0.0,0.0,0.0,0.0,0.0,0.0,0.0,0.0,0.0,0.0,0.0,0.0,0.0,0.0,0.0,0.0,0.0,0.0,0.0,0.0,0.0,0.0,0.0,0.0,0.0,0.0,0.0,0.0,0.0,0.0,0.0,0.0,0.0,0.0,0.0,0.0,0.0,0.0,0.0,0.0,0.0,0.0,0.0,0.0,0.0,0.0,0.0,0.0,0.0,0.0,0.0,0.0,0.0,0.0,0.0,0.0,0.0,0.0,0.0,0.0,0.0,0.0,0.0,0.0,0.0,0.0,0.0,0.0,0.0,0.0,0.0,0.0,0.0,0.0,0.0,0.0,0.0,0.0,0.0,0.0,0.0,0.0,0.0,0.0,0.0,0.0,0.0,0.0,0.0,0.0,0.0,0.0,0.0,0.0,0.0,0.0,0.0,0.0,0.0,0.0,0.0,0.0,0.0,0.0,0.0,0.0,0.0,0.0,0.0,0.0,0.0,0.0,0.0,0.0,0.0,0.0,0.0,0.0,0.0,0.0,0.0,0.0,0.0,0.0,0.0,0.0,0.0,0.0,0.0,0.0,0.0,0.0,0.0,0.0,0.0,0.0,0.0,0.0,0.0,0.0,0.0,0.0,0.0,0.0,0.0,0.0,0.0,0.0,0.0,0.0,0.0,0.0,0.0,0.0,0.0,0.0,0.0,0.0,0.0,0.0,0.0,0.0,0.0,0.0,0.0,0.0,0.0,0.0,0.0,0.0,0.0,0.0,0.0,0.0,0.0,0.0,0.0,0.0,0.0,0.0,0.0,0.0,0.0,0.0,0.0,0.0,0.0,0.0,0.0,0.0,0.0,0.0,0.0,0.0,0.0,0.0,0.0,0.0,0.0,0.0,0.0,0.0,0.0,0.0,0.0,0.0,0.0,0.0,0.0,0.0,0.0,0.0,0.0,0.0,0.0,0.0,0.0,0.0,0.0,0.0,0.0,0.0,0.0,0.0,0.0,0.0,0.0,0.0,0.0,0.0,0.0,0.0,0.0,0.0,0.0,0.0,0.0,0.0,0.0,0.0,0.0,0.0,0.0,0.0,0.0,0.0,0.0,0.0,0.0,0.0,0.0,0.0,0.0,0.0,0.0,0.0,0.0,0.0,0.0,0.0,0.0,0.0,0.0,0.0,0.0,0.0,0.0,0.0,0.0,0.0,0.0,0.0,0.0,0.0,0.0,0.0,0.0,0.0,0.0,0.0,0.0,0.0,0.0,0.0,0.0,0.0,0.0,0.0,0.0,0.0,0.0,0.0,0.0,0.0,0.0,0.0,0.0,0.0,0.0,0.0,0.0,0.0,0.0,0.0,0.0,0.0,0.0,0.0,0.0,0.0,0.0,0.0,0.0,0.0,0.0,0.0,0.0,0.0,0.0,0.0,0.0,0.1241,0.0,0.0,0.0,0.0,0.0,0.0,0.0,0.0,0.0,0.0,0.0,0.0,0.0,0.0,0.0,0.0,0.0,0.0,0.0,0.0,0.0,0.0,0.0,0.0,0.0,0.0,0.0,0.0,0.0,0.0,0.0,0.0,0.0,0.0,0.0,0.0,0.0,0.0,0.0,0.0,0.0,0.0,0.0,0.0,0.0,0.0,0.0,0.0,0.0,0.0,0.0,0.0,0.0,0.0,0.0,0.0,0.0,0.0,0.0,0.0,0.0,0.0,0.0,0.0,0.0,0.0,0.0,0.0,0.0,0.0,0.0,0.0,0.0,0.0,0.0,0.0,0.0,0.0,0.0,0.0,0.0,0.0,0.0,0.0,0.0,0.0,0.0,0.0,0.0,0.0,0.0,0.0,0.0,0.0,0.0,0.0,0.0,0.0,0.0,0.0,0.0,0.0,0.0,0.0,0.0,0.0,0.0,0.0,0.0,0.0,0.2377,0.2428,0.2104,0.1818,0.1575,0.0,0.0,0.0,0.0,0.0,0.0,0.0,0.0,0.0,0.0,0.0,0.0,0.0,0.0,0.0,0.0,0.0,0.0,0.0,0.0,0.0,0.0,0.0,0.0,0.0,0.0,0.0,0.0,0.0,0.0,0.0,0.0,0.0,0.0,0.0,0.0,0.0,0.0,0.0,0.0,0.0,0.0,0.0,0.0,0.0,0.0,0.0,0.0,0.0,0.0,0.0,0.0,0.0,0.0,0.0,0.0,0.0,0.0,0.0,0.0,0.0,0.0,0.0,0.0,0.0,0.0,0.0,0.0,0.0,0.0,0.0,0.0,0.0,0.0,0.0,0.0,0.0,0.0,0.0,0.0,0.0,0.0,0.0,0.0,0.0,0.0,0.0,0.0,0.0,0.0,0.0,0.0,0.0,0.0,0.0,0.0,0.0,0.0,0.0,0.0,0.0,0.0,0.0,0.0,0.0,0.0,0.0,0.0,0.0,0.0,0.0,0.0,0.2619,0.2372,0.176,0.0,0.0,0.0,0.0,0.0,0.0,0.0,0.0,0.0,0.0,0.0,0.0,0.0,0.0,0.0,0.0,0.0,0.0,0.0,0.0,0.0,0.0,0.0,0.0,0.0,0.0,0.0,0.0,0.0,0.0,0.0,0.0,0.0,0.0,0.0,0.0,0.0,0.0,0.0,0.0,0.0,0.0,0.0,0.0,0.0,0.0,0.0,0.0,0.0,0.0,0.0,0.0,0.0,0.0,0.0,0.0,0.0,0.0,0.0,0.0,0.0,0.0,0.0,0.0,0.0,0.0,0.0,0.0,0.0,0.0,0.0,0.0,0.0,0.0,0.0,0.0,0.0,0.0,0.0,0.0,0.0,0.0,0.0,0.0,0.0,0.0,0.0,0.0,0.0,0.0,0.0,0.0,0.0,0.0,0.0,0.0,0.0,0.0,0.0,0.0,0.0,0.0,0.0,0.0,0.0,0.0,0.0,0.0,0.0,0.0,0.2851,0.2817,0.2488,0.0,0.1398,0.0,0.0,0.0,0.0,0.0,0.0,0.0,0.0,0.0,0.0,0.0,0.0,0.0,0.0,0.0,0.0,0.0,0.0,0.0,0.0,0.0,0.0,0.0,0.0,0.0,0.0,0.0,0.0,0.0,0.0,0.0,0.0,0.0,0.0,0.0,0.0,0.0,0.0,0.0,0.0,0.0,0.0,0.0,0.0,0.0,0.0,0.0,0.0,0.0,0.0,0.0,0.0,0.0,0.0,0.0,0.0,0.0,0.0,0.0,0.0,0.0,0.0,0.0,0.0,0.0,0.0,0.0,0.0,0.0,0.0,0.0,0.0,0.0,0.0,0.0,0.0,0.0,0.0,0.0,0.0,0.0,0.0,0.0,0.0,0.0,0.0,0.0,0.0,0.0,0.0,0.0,0.0,0.0,0.0,0.0,0.0,0.0,0.0,0.0,0.0,0.0,0.0,0.0,0.0,0.0,0.0,0.0,0.0,0.0,0.0,0.3744,0.3515,0.3159,0.2592,0.0,0.0,0.0,0.0,0.0,0.0,0.0,0.0,0.0,0.0,0.0,0.0,0.0,0.0,0.0,0.0,0.0,0.0,0.0,0.0,0.0,0.0,0.0,0.0,0.0,0.0,0.0,0.0,0.0,0.0,0.0,0.0,0.0,0.0,0.0,0.0,0.0,0.0,0.0,0.0,0.0,0.0,0.0,0.0,0.0,0.0,0.0,0.0,0.0,0.0,0.0,0.0,0.0,0.0,0.0,0.0,0.0,0.0,0.0,0.0,0.0,0.0,0.0,0.0,0.0,0.0,0.0,0.0,0.0,0.0,0.0,0.0,0.0,0.0,0.0,0.0,0.0,0.0,0.0,0.0,0.0,0.0,0.0,0.0,0.0,0.0,0.0,0.0,0.0,0.0,0.0,0.0,0.0,0.0,0.0,0.0,0.0,0.0,0.0,0.0,0.0,0.0,0.0,0.0,0.0,0.0,0.0,0.0,0.0,0.0,0.4276,0.4407,0.3986,0.3394,0.273,0.2104,0.0,0.0,0.0,0.0,0.0,0.0,0.0,0.0,0.0,0.0,0.0,0.0,0.0,0.0,0.0,0.0,0.0,0.0,0.0,0.0,0.0,0.0,0.0,0.0,0.0,0.0,0.0,0.0,0.0,0.0,0.0,0.0,0.0,0.0,0.0,0.0,0.0,0.0,0.0,0.0,0.0,0.0,0.0,0.0,0.0,0.0,0.0,0.0,0.0,0.0,0.0,0.0,0.0,0.0,0.0,0.0,0.0,0.0,0.0,0.0,0.0,0.0,0.0,0.0,0.0,0.0,0.0,0.0,0.0,0.0,0.0,0.0,0.0,0.0,0.0,0.0,0.0,0.0,0.0,0.0,0.0,0.0,0.0,0.0,0.0,0.0,0.0,0.0,0.0,0.0,0.0,0.0,0.0,0.0,0.0,0.0,0.0,0.0,0.0,0.0,0.0,0.0,0.0,0.0,0.0,0.0,0.0,0.0,0.4183,0.4493,0.4496,0.4097,0.2748,0.2005,0.0,0.0,0.0,0.0,0.0,0.0,0.0,0.0,0.0,0.0,0.0,0.0,0.0,0.0,0.0,0.0,0.0,0.0,0.0,0.0,0.0,0.0,0.0,0.0,0.0,0.0,0.0,0.0,0.0,0.0,0.0,0.0,0.0,0.0,0.0,0.0,0.0,0.0,0.0,0.0,0.0,0.0,0.0,0.0,0.0,0.0,0.0,0.0,0.0,0.0,0.0,0.0,0.0,0.0,0.0,0.0,0.0,0.0,0.0,0.0,0.0,0.0,0.0,0.0,0.0,0.0,0.0,0.0,0.0,0.0,0.0,0.0,0.0,0.0,0.0,0.0,0.0,0.0,0.0,0.0,0.0,0.0,0.0,0.0,0.0,0.0,0.0,0.0,0.0,0.0,0.0,0.0,0.0,0.0,0.0,0.0,0.0,0.0,0.0,0.0,0.0,0.0,0.0,0.0,0.0,0.0,0.0,0.0,0.0,0.4366,0.4559,0.4835,0.512,0.4156,0.3402,0.0,0.0,0.0,0.0,0.0,0.0,0.0,0.0,0.0,0.0,0.0,0.0,0.0,0.0,0.0,0.0,0.0,0.0,0.0,0.0,0.0,0.0,0.0,0.0,0.0,0.0,0.0,0.0,0.0,0.0,0.0,0.0,0.0,0.0,0.0,0.0,0.0,0.0,0.0,0.0,0.0,0.0,0.0,0.0,0.0,0.0,0.0,0.0,0.0,0.0,0.0,0.0,0.0,0.0,0.0,0.0,0.0,0.0,0.0,0.0,0.0,0.0,0.0,0.0,0.0,0.0,0.0,0.0,0.0,0.0,0.0,0.0,0.0,0.0,0.0,0.0,0.0,0.0,0.0,0.0,0.0,0.0,0.0,0.0,0.0,0.0,0.0,0.0,0.0,0.0,0.0,0.0,0.0,0.0,0.0,0.0,0.0,0.0,0.0,0.0,0.0,0.0,0.0,0.0,0.0,0.0,0.0,0.0,0.0,0.4591,0.0,0.4778,0.5348,0.4378,0.3656,0.0,0.0,0.0,0.0,0.0,0.0,0.0,0.0,0.0,0.0,0.0,0.0,0.0,0.0,0.0,0.0,0.0,0.0,0.0,0.0,0.0,0.0,0.0,0.0,0.0,0.0,0.0,0.0,0.0,0.0,0.0,0.0,0.0,0.0,0.0,0.0,0.0,0.0,0.0,0.0,0.0,0.0,0.0,0.0,0.0,0.0,0.0,0.0,0.0,0.0,0.0,0.0,0.0,0.0,0.0,0.0,0.0,0.0,0.0,0.0,0.0,0.0,0.0,0.0,0.0,0.0,0.0,0.0,0.0,0.0,0.0,0.0,0.0,0.0,0.0,0.0,0.0,0.0,0.0,0.0,0.0,0.0,0.0,0.0,0.0,0.0,0.0,0.0,0.0,0.0,0.0,0.0,0.0,0.0,0.0,0.0,0.0,0.0,0.0,0.0,0.0,0.0,0.0,0.0,0.0,0.0,0.0,0.0,0.4693,0.4982,0.4577,0.452,0.4576,0.3396,0.2523,0.0,0.0,0.0,0.0,0.0,0.0,0.0,0.0,0.0,0.0,0.0,0.0,0.0,0.0,0.0,0.0,0.0,0.0,0.0,0.0,0.0,0.0,0.0,0.0,0.0,0.0,0.0,0.0,0.0,0.0,0.0,0.0,0.0,0.0,0.0,0.0,0.0,0.0,0.0,0.0,0.0,0.0,0.0,0.0,0.0,0.0,0.0,0.0,0.0,0.0,0.0,0.0,0.0,0.0,0.0,0.0,0.0,0.0,0.0,0.0,0.0,0.0,0.0,0.0,0.0,0.0,0.0,0.0,0.0,0.0,0.0,0.0,0.0,0.0,0.0,0.0,0.0,0.0,0.0,0.0,0.0,0.0,0.0,0.0,0.0,0.0,0.0,0.0,0.0,0.0,0.0,0.0,0.0,0.0,0.0,0.0,0.0,0.0,0.0,0.0,0.0,0.0,0.0,0.0,0.0,0.0,0.0,0.0,0.0,0.5022,0.5929,0.5966,0.5219,0.4775,0.4077,0.0,0.0,0.0,0.0,0.0,0.0,0.0,0.0,0.0,0.0,0.0,0.0,0.0,0.0,0.0,0.0,0.0,0.0,0.0,0.0,0.0,0.0,0.0,0.0,0.0,0.0,0.0,0.0,0.0,0.0,0.0,0.0,0.0,0.0,0.0,0.0,0.0,0.0,0.0,0.0,0.0,0.0,0.0,0.0,0.0,0.0,0.0,0.0,0.0,0.0,0.0,0.0,0.0,0.0,0.0,0.0,0.0,0.0,0.0,0.0,0.0,0.0,0.0,0.0,0.0,0.0,0.0,0.0,0.0,0.0,0.0,0.0,0.0,0.0,0.0,0.0,0.0,0.0,0.0,0.0,0.0,0.0,0.0,0.0,0.0,0.0,0.0,0.0,0.0,0.0,0.0,0.0,0.0,0.0,0.0,0.0,0.0,0.0,0.0,0.0,0.0,0.0,0.0,0.0,0.0,0.0,0.0,0.0,0.0,0.5333,0.6618,0.6818,0.5634,0.5446,0.484,0.3728,0.0,0.0,0.0,0.0,0.0,0.0,0.0,0.0,0.0,0.0,0.0,0.0,0.0,0.0,0.0,0.0,0.0,0.0,0.0,0.0,0.0,0.0,0.0,0.0,0.0,0.0,0.0,0.0,0.0,0.0,0.0,0.0,0.0,0.0,0.0,0.0,0.0,0.0,0.0,0.0,0.0,0.0,0.0,0.0,0.0,0.0,0.0,0.0,0.0,0.0,0.0,0.0,0.0,0.0,0.0,0.0,0.0,0.0,0.0,0.0,0.0,0.0,0.0,0.0,0.0,0.0,0.0,0.0,0.0,0.0,0.0,0.0,0.0,0.0,0.0,0.0,0.0,0.0,0.0,0.0,0.0,0.0,0.0,0.0,0.0,0.0,0.0,0.0,0.0,0.0,0.0,0.0,0.0,0.0,0.0,0.0,0.0,0.0,0.0,0.0,0.0,0.0,0.0,0.0,0.0,0.0,0.0,0.0,0.5697,0.6956,0.706,0.588,0.5556,0.4989,0.0,0.0,0.0,0.0,0.0,0.0,0.0,0.0,0.0,0.0,0.0,0.0,0.0,0.0,0.0,0.0,0.0,0.0,0.0,0.0,0.0,0.0,0.0,0.0,0.0,0.0,0.0,0.0,0.0,0.0,0.0,0.0,0.0,0.0,0.0,0.0,0.0,0.0,0.0,0.0,0.0,0.0,0.0,0.0,0.0,0.0,0.0,0.0,0.0,0.0,0.0,0.0,0.0,0.0,0.0,0.0,0.0,0.0,0.0,0.0,0.0,0.0,0.0,0.0,0.0,0.0,0.0,0.0,0.0,0.0,0.0,0.0,0.0,0.0,0.0,0.0,0.0,0.0,0.0,0.0,0.0,0.0,0.0,0.0,0.0,0.0,0.0,0.0,0.0,0.0,0.0,0.0,0.0,0.0,0.0,0.0,0.0,0.0,0.0,0.0,0.0,0.0,0.0,0.0,0.0,0.0,0.0,0.0,0.0,0.573,0.775,0.816,0.6703,0.6459,0.5572,0.0,0.0,0.0,0.0,0.0,0.0,0.0,0.0,0.0,0.0,0.0,0.0,0.0,0.0,0.0,0.0,0.0,0.0,0.0,0.0,0.0,0.0,0.0,0.0,0.0,0.0,0.0,0.0,0.0,0.0,0.0,0.0,0.0,0.0,0.0,0.0,0.0,0.0,0.0,0.0,0.0,0.0,0.0,0.0,0.0,0.0,0.0,0.0,0.0,0.0,0.0,0.0,0.0,0.0,0.0,0.0,0.0,0.0,0.0,0.0,0.0,0.0,0.0,0.0,0.0,0.0,0.0,0.0,0.0,0.0,0.0,0.0,0.0,0.0,0.0,0.0,0.0,0.0,0.0,0.0,0.0,0.0,0.0,0.0,0.0,0.0,0.0,0.0,0.0,0.0,0.0,0.0,0.0,0.0,0.0,0.0,0.0,0.0,0.0,0.0,0.0,0.0,0.0,0.0,0.0,0.0,0.0,0.0,0.6874,0.6367,0.8263,0.8784,0.7701,0.7372,0.6226,0.0,0.0,0.0,0.0,0.0,0.0,0.0,0.0,0.0,0.0,0.0,0.0,0.0,0.0,0.0,0.0,0.0,0.0,0.0,0.0,0.0,0.0,0.0,0.0,0.0,0.0,0.0,0.0,0.0,0.0,0.0,0.0,0.0,0.0,0.0,0.0,0.0,0.0,0.0,0.0,0.0,0.0,0.0,0.0,0.0,0.0,0.0,0.0,0.0,0.0,0.0,0.0,0.0,0.0,0.0,0.0,0.0,0.0,0.0,0.0,0.0,0.0,0.0,0.0,0.0,0.0,0.0,0.0,0.0,0.0,0.0,0.0,0.0,0.0,0.0,0.0,0.0,0.0,0.0,0.0,0.0,0.0,0.0,0.0,0.0,0.0,0.0,0.0,0.0,0.0,0.0,0.0,0.0,0.0,0.0,0.0,0.0,0.0,0.0,0.0,0.0,0.0,0.0,0.0,0.0,0.0,0.0,0.0,0.7095,0.727,0.8546,0.8998,0.8613,0.8065,0.6805,0.0,0.0,0.0,0.0,0.0,0.0,0.0,0.0,0.0,0.0,0.0,0.0,0.0,0.0,0.0,0.0,0.0,0.0,0.0,0.0,0.0,0.0,0.0,0.0,0.0,0.0,0.0,0.0,0.0,0.0,0.0,0.0,0.0,0.0,0.0,0.0,0.0,0.0,0.0,0.0,0.0,0.0,0.0,0.0,0.0,0.0,0.0,0.0,0.0,0.0,0.0,0.0,0.0,0.0,0.0,0.0,0.0,0.0,0.0,0.0,0.0,0.0,0.0,0.0,0.0,0.0,0.0,0.0,0.0,0.0,0.0,0.0,0.0,0.0,0.0,0.0,0.0,0.0,0.0,0.0,0.0,0.0,0.0,0.0,0.0,0.0,0.0,0.0,0.0,0.0,0.0,0.0,0.0,0.0,0.0,0.0,0.0,0.0,0.0,0.0,0.0,0.0,0.0,0.0,0.0,0.0,0.0,0.0,0.6962,0.7095,0.818,0.847,0.7787,0.7561,0.6869,0.0,0.0,0.0,0.0,0.0,0.0,0.0,0.0,0.0,0.0,0.0,0.0,0.0,0.0,0.0,0.0,0.0,0.0,0.0,0.0,0.0,0.0,0.0,0.0,0.0,0.0,0.0,0.0,0.0,0.0,0.0,0.0,0.0,0.0,0.0,0.0,0.0,0.0,0.0,0.0,0.0,0.0,0.0,0.0,0.0,0.0,0.0,0.0,0.342,0.0,0.0,0.0,0.0,0.0,0.0,0.0,0.0,0.0,0.0,0.0,0.0,0.0,0.0,0.0,0.0,0.0,0.0,0.0,0.0,0.0,0.0,0.0,0.0,0.0,0.0,0.0,0.0,0.0,0.0,0.0,0.0,0.0,0.0,0.0,0.0,0.0,0.0,0.0,0.0,0.0,0.0,0.0,0.0,0.0,0.0,0.0,0.0,0.0,0.0,0.0,0.0,0.0,0.0,0.0,0.0,0.0,0.0,0.0,0.7211,0.7729,0.8582,0.8661,0.7952,0.7785,0.7098,0.0,0.0,0.0,0.0,0.0,0.0,0.0,0.0,0.0,0.0,0.0,0.0,0.0,0.0,0.0,0.0,0.0,0.0,0.0,0.0,0.0,0.0,0.0,0.0,0.0,0.0,0.0,0.0,0.0,0.0,0.0,0.0,0.0,0.0,0.0,0.0,0.0,0.0,0.0,0.0,0.0,0.0,0.0,0.0,0.0,0.0,0.0,0.0,0.0,0.0,0.0,0.0,0.0,0.0,0.0,0.0,0.0,0.0,0.0,0.0,0.0,0.0,0.0,0.0,0.0,0.0,0.0,0.0,0.0,0.0,0.0,0.0,0.0,0.0,0.0,0.0,0.0,0.0,0.0,0.0,0.0,0.0,0.0,0.0,0.0,0.0,0.0,0.0,0.0,0.0,0.0,0.0,0.0,0.0,0.0,0.0,0.0,0.0,0.0,0.0,0.0,0.0,0.0,0.0,0.0,0.0,0.0,0.6979,0.7703,0.8639,0.9035,0.899,0.8406,0.8121,0.7311,0.5905,0.0,0.0,0.0,0.0,0.0,0.0,0.0,0.0,0.0,0.0,0.0,0.0,0.0,0.0,0.0,0.0,0.0,0.0,0.0,0.0,0.0,0.0,0.0,0.0,0.0,0.0,0.0,0.0,0.0,0.0,0.0,0.0,0.0,0.0,0.0,0.0,0.0,0.0,0.5241,0.616,0.0,0.0,0.0,0.0,0.0,0.0,0.0,0.0,0.3335,0.0,0.0,0.0,0.0,0.0,0.0,0.0,0.0,0.0,0.0,0.0,0.0,0.0,0.0,0.0,0.0,0.0,0.0,0.0,0.0,0.0,0.0,0.0,0.0,0.0,0.0,0.0,0.0,0.0,0.0,0.0,0.0,0.0,0.0,0.0,0.0,0.0,0.0,0.0,0.0,0.0,0.0,0.0,0.0,0.0,0.0,0.0,0.0,0.0,0.0,0.0,0.0,0.0,0.0,0.0,0.0,0.7352,0.7521,0.8046,0.8917,0.9035,0.8844,0.8406,0.7915,0.7267,0.6328,0.0,0.0,0.0,0.0,0.0,0.0,0.0,0.0,0.0,0.0,0.0,0.0,0.0,0.0,0.0,0.0,0.0,0.0,0.0,0.0,0.0,0.0,0.0,0.0,0.0,0.0,0.0,0.0,0.0,0.0,0.0,0.0,0.0,0.0,0.0,0.0,0.0,0.0,0.0,0.7363,0.7984,0.0,0.0,0.0,0.0,0.0,0.0,0.0,0.0,0.375,0.0,0.0,0.0,0.0,0.0,0.0,0.0,0.0,0.0,0.0,0.0,0.0,0.0,0.0,0.0,0.0,0.0,0.0,0.0,0.0,0.0,0.0,0.0,0.0,0.0,0.0,0.0,0.0,0.0,0.0,0.0,0.0,0.0,0.0,0.0,0.0,0.0,0.0,0.0,0.0,0.0,0.0,0.0,0.0,0.0,0.0,0.0,0.0,0.0,0.0,0.0,0.0,0.0,0.0,0.0,0.7922,0.8312,0.8775,0.9394,0.9089,0.8675,0.8317,0.7651,0.6924,0.0,0.0,0.0,0.0,0.0,0.0,0.0,0.0,0.0,0.0,0.0,0.0,0.0,0.0,0.0,0.0,0.0,0.0,0.0,0.0,0.0,0.0,0.0,0.0,0.0,0.0,0.0,0.0,0.0,0.0,0.0,0.0,0.0,0.0,0.0,0.0,0.0,0.0,0.0,0.0,0.6987,0.7781,0.8199,0.0,0.0,0.0,0.0,0.0,0.0,0.5041,0.5266,0.0,0.0,0.0,0.0,0.0,0.0,0.0,0.0,0.0,0.0,0.0,0.0,0.0,0.0,0.0,0.0,0.0,0.0,0.0,0.0,0.0,0.0,0.0,0.0,0.0,0.0,0.0,0.0,0.0,0.0,0.0,0.0,0.0,0.0,0.0,0.0,0.0,0.0,0.0,0.0,0.0,0.0,0.0,0.0,0.0,0.0,0.0,0.0,0.0,0.0,0.0,0.0,0.0,0.0,0.0,0.8459,0.9148,0.971,1.0187,0.9504,0.9016,0.8649,0.7875,0.6872,0.0,0.0,0.0,0.0,0.0,0.0,0.0,0.0,0.0,0.0,0.0,0.0,0.0,0.0,0.0,0.0,0.0,0.0,0.0,0.0,0.0,0.0,0.0,0.0,0.0,0.0,0.0,0.0,0.0,0.0,0.0,0.0,0.0,0.0,0.0,0.0,0.0,0.0,0.0,0.0,0.0,0.7672,0.834,0.8097,0.0,0.0,0.0,0.0,0.4826,0.6357,0.0,0.0,0.0,0.0,0.0,0.0,0.0,0.0,0.0,0.0,0.0,0.0,0.0,0.0,0.0,0.0,0.0,0.0,0.0,0.0,0.0,0.0,0.0,0.0,0.0,0.0,0.0,0.0,0.0,0.0,0.0,0.0,0.0,0.0,0.0,0.0,0.0,0.0,0.0,0.0,0.0,0.0,0.0,0.0,0.0,0.0,0.0,0.0,0.0,0.0,0.0,0.0,0.0,0.0,0.0,0.0,0.8665,0.9909,1.0723,1.1163,1.0828,1.0373,0.9898,0.9141,0.7818,0.0,0.0,0.0,0.0,0.0,0.0,0.0,0.0,0.0,0.0,0.0,0.0,0.0,0.0,0.0,0.0,0.0,0.0,0.0,0.0,0.0,0.0,0.0,0.0,0.0,0.0,0.0,0.0,0.0,0.0,0.0,0.0,0.0,0.0,0.0,0.0,0.0,0.0,0.0,0.0,0.0,0.8704,0.8908,0.909,0.8967,0.0,0.0,0.7963,0.6137,0.7716,0.0,0.0,0.0,0.0,0.0,0.0,0.0,0.0,0.0,0.0,0.0,0.0,0.0,0.0,0.0,0.0,0.0,0.0,0.0,0.0,0.0,0.0,0.0,0.0,0.0,0.0,0.0,0.0,0.0,0.0,0.0,0.0,0.0,0.0,0.0,0.0,0.0,0.0,0.0,0.0,0.0,0.0,0.0,0.0,0.0,0.0,0.0,0.0,0.0,0.0,0.0,0.0,0.0,0.0,0.0,0.8525,0.9533,1.0844,1.1778,1.2245,1.1637,1.1141,1.0717,0.9697,0.8287,0.0,0.0,0.0,0.0,0.0,0.0,0.0,0.0,0.0,0.0,0.0,0.0,0.0,0.0,0.0,0.0,0.0,0.0,0.0,0.0,0.0,0.0,0.0,0.0,0.0,0.0,0.0,0.0,0.0,0.0,0.0,0.0,0.0,0.0,0.0,0.0,0.0,0.0,0.0,0.0,0.0,0.0,0.9572,1.0145,0.0,0.0,0.0,1.0217,0.8854,0.0,0.0,0.0,0.0,0.0,0.0,0.0,0.0,0.0,0.0,0.0,0.0,0.0,0.0,0.0,0.0,0.0,0.0,0.0,0.0,0.0,0.0,0.0,0.0,0.0,0.0,0.0,0.0,0.0,0.0,0.0,0.0,0.0,0.0,0.0,0.0,0.0,0.0,0.0,0.0,0.0,0.0,0.0,0.0,0.0,0.0,0.0,0.0,0.0,0.0,0.0,0.0,0.0,0.0,0.0,0.0,0.0,1.0116,1.164,1.2611,1.3063,1.2435,1.192,1.1533,1.0415,0.0,0.0,0.0,0.0,0.0,0.0,0.0,0.0,0.0,0.0,0.0,0.0,0.0,0.0,0.0,0.0,0.0,0.0,0.0,0.0,0.0,0.0,0.0,0.0,0.0,0.0,0.0,0.2962,0.0,0.0,0.0,0.0,0.0,0.0,0.0,0.0,0.0,0.0,0.0,0.0,0.0,0.0,0.8804,1.0232,1.1623,1.2544,0.0,0.0,1.2593,1.1611,1.2255,1.2239,0.0,0.0,0.0,0.0,0.0,0.0,0.0,0.0,0.0,0.0,0.0,0.0,0.0,0.0,0.0,0.0,0.0,0.0,0.0,0.0,0.0,0.0,0.0,0.0,0.0,0.0,0.0,0.0,0.0,0.0,0.0,0.0,0.0,0.0,0.0,0.0,0.0,0.0,0.0,0.0,0.0,0.0,0.0,0.0,0.0,0.0,0.0,0.0,0.0,0.0,0.0,0.0,0.0,0.0,0.9253,1.0123,1.1984,1.3186,1.368,1.3398,1.3071,1.2654,1.1575,1.0237,0.0,0.0,0.0,0.0,0.0,0.0,0.0,0.0,0.0,0.0,0.0,0.0,0.0,0.0,0.0,0.0,0.0,0.0,0.0,0.0,0.0,0.0,0.0,0.0,0.0,0.0,0.0,0.0,0.0,0.0,0.0,0.0,0.0,0.0,0.0,0.0,0.0,0.0,0.0,0.0,0.0,1.0004,1.0656,1.3739,1.5634,0.0,1.4883,1.4788,1.3832,1.4196,1.3788,1.1368,0.0,0.0,0.0,0.0,0.0,0.0,0.0,0.0,0.0,0.0,0.0,0.0,0.0,0.0,0.0,0.0,0.0,0.0,0.0,0.0,0.0,0.0,0.0,0.0,0.0,0.0,0.0,0.0,0.0,0.0,0.0,0.0,0.0,0.0,0.0,0.0,0.0,0.0,0.0,0.0,0.0,0.0,0.0,0.0,0.0,0.0,0.0,0.0,0.0,0.0,0.0,0.0,0.0,0.9227,1.0312,1.2299,1.3559,1.394,1.3979,1.3719,1.3103,1.2281,1.1105,0.0,0.0,0.0,0.0,0.0,0.0,0.0,0.0,0.0,0.0,0.0,0.0,0.0,0.0,0.0,0.0,0.0,0.0,0.0,0.0,0.0,0.0,0.0,0.0,0.0,0.0,0.0,0.0,0.5027,0.5307,0.5528,0.0,0.0,0.0,0.0,0.0,0.0,0.0,0.0,0.0,0.0,1.3586,1.4003,1.4899,0.0,0.0,1.3546,1.2095,1.2297,1.1273,1.0797,1.1502,1.0682,0.0,0.0,0.0,0.0,0.0,0.0,0.0,0.0,0.0,0.0,0.0,0.0,0.0,0.0,0.0,0.0,0.0,0.0,0.0,0.0,0.0,0.0,0.0,0.0,0.0,0.0,0.0,0.0,0.0,0.0,0.0,0.0,0.0,0.0,0.0,0.0,0.0,0.0,0.0,0.0,0.0,0.0,0.0,0.0,0.0,0.0,0.0,0.0,0.0,0.0,0.0,0.0,0.9491,1.0381,1.2474,1.3715,1.4101,1.4151,1.4044,1.3721,1.3099,1.2067,0.0,0.0,0.0,0.0,0.0,0.0,0.0,0.0,0.0,0.0,0.0,0.0,0.0,0.0,0.0,0.0,0.0,0.0,0.0,0.0,0.0,0.0,0.0,0.0,0.0,0.0,0.0,0.0,0.5117,0.5179,0.5266,0.0,0.0,0.0,0.0,0.0,0.0,0.0,0.0,0.0,0.0,1.5791,1.5823,1.5733,1.59,1.6643,1.3821,1.2006,1.3408,1.1364,0.9974,1.1396,0.0,0.0,0.0,0.0,0.0,0.0,0.0,0.0,0.0,0.0,0.0,0.0,0.0,0.0,0.0,0.0,0.0,0.0,0.0,0.0,0.0,0.0,0.0,0.0,0.0,0.0,0.0,0.895,0.0,0.0,0.8699,0.0,0.0,0.0,0.0,0.0,0.0,0.0,0.0,0.0,0.0,0.0,0.0,0.0,0.0,0.0,0.0,0.0,0.0,0.0,0.0,0.0,0.0,1.0115,1.0356,1.2469,1.3737,1.4077,1.3902,1.4095,1.4602,1.403,1.3305,1.2389,0.0,0.0,0.0,0.0,0.0,0.0,0.0,0.0,0.0,0.0,0.0,0.0,0.0,0.0,0.0,0.0,0.0,0.0,0.0,0.0,0.0,0.0,0.0,0.0,0.0,0.0,0.4638,0.4702,0.4731,0.0,0.0,0.0,0.0,0.0,0.0,0.0,0.0,0.0,1.0829,1.4007,1.5838,1.5351,1.6351,1.7416,1.8055,1.6421,1.5961,1.8313,1.5563,1.2671,0.0,0.0,0.0,0.0,0.0,0.0,0.0,0.0,0.0,0.0,0.0,0.0,0.0,0.0,0.0,0.0,0.0,0.0,0.0,0.0,0.0,0.0,0.0,0.0,0.0,0.0,0.0,1.2196,1.2483,0.0,0.0,0.0,0.0,0.0,0.0,0.0,0.0,0.0,0.0,0.0,1.3584,1.4265,0.0,0.0,0.0,0.0,0.0,0.0,0.0,0.0,0.0,0.0,0.0,0.0,1.0201,1.1135,1.3048,1.4453,1.5172,1.5028,1.4955,1.5226,1.4542,1.3575,1.2344,0.0,0.0,0.0,0.0,0.0,0.0,0.0,0.0,0.0,0.0,0.0,0.0,0.0,0.0,0.0,0.0,0.0,0.0,0.0,0.0,0.0,0.0,0.0,0.0,0.0,0.5657,0.0,0.0,0.0,0.0,0.0,0.0,0.0,0.0,0.0,0.0,0.0,1.0159,1.1509,1.5887,1.8306,1.6706,1.7554,1.7946,0.0,0.0,0.0,0.0,0.0,0.0,0.0,0.0,0.0,0.0,0.0,0.0,0.0,0.0,1.4748,1.1921,1.0125,0.9078,0.9208,0.0,0.0,0.0,0.0,0.0,0.0,0.0,0.0,0.0,0.0,0.0,0.0,0.0,0.0,1.4433,1.4547,1.4266,0.0,0.0,0.0,0.0,0.0,0.0,0.0,0.0,1.4315,1.5032,1.5266,1.6065,1.6372,0.0,1.5761,1.4805,0.0,0.0,0.0,0.0,0.0,0.0,0.0,0.0,1.0755,1.1466,1.3549,1.4907,1.537,1.5405,1.5542,1.5742,1.512,1.4185,1.3077,1.1991,1.1336,0.0,0.0,0.0,0.0,0.0,0.0,0.0,0.0,0.0,0.0,0.0,0.0,0.0,0.0,0.0,0.0,0.0,0.0,0.0,0.0,0.0,0.0,0.0,0.7009,0.0,0.0,0.0,0.0,0.0,0.0,0.0,0.0,0.0,0.9577,1.1224,1.2593,1.3001,1.6585,1.8419,1.6573,0.0,0.0,0.0,0.0,0.0,0.0,0.0,1.3409,1.6261,1.5968,1.6902,2.1476,2.2046,2.1873,2.1546,0.0,0.0,1.711,1.5346,1.4518,1.4519,1.2817,1.2578,1.6493,1.7543,1.8432,0.0,0.0,0.0,0.0,0.0,0.0,0.0,0.0,1.621,1.5774,0.0,1.5472,0.0,0.0,0.0,0.0,1.3809,1.3785,0.0,0.0,1.6056,1.6752,1.744,1.7533,1.7668,1.7904,1.8118,1.7711,1.6652,1.3361,0.0,0.0,0.0,0.0,0.0,0.0,1.1856,1.1524,1.4096,1.5235,1.4765,1.5182,1.5741,1.6269,1.5668,1.5109,1.4609,1.3525,1.276,1.2258,1.0914,0.0,0.0,0.0,0.0,0.0,0.0,0.0,0.0,0.0,0.0,0.0,0.0,0.0,0.0,0.0,0.0,0.0,0.0,0.0,0.0,0.7244,0.0,0.0,0.0,0.0,0.0,0.0,0.0,0.0,0.0,0.0,1.3839,1.408,1.4458,1.5274,0.0,0.0,0.0,0.0,1.6076,1.8363,1.807,1.8024,1.9247,1.7539,1.6255,1.6899,0.0,0.0,2.1295,2.4784,2.6895,2.7338,2.6352,2.3855,1.7358,1.8308,1.9651,1.9065,1.8802,1.9492,2.0527,2.1002,2.1507,1.8542,0.0,0.0,0.0,0.0,1.735,1.7798,1.8331,1.8212,1.7992,1.7742,1.7716,0.0,0.0,0.0,0.0,0.0,0.0,1.6414,1.6819,1.7409,1.775,1.8027,1.8249,1.8406,1.8459,1.8785,1.8599,1.7905,1.6732,1.4765,1.2147,0.0,0.0,0.0,0.0,1.4114,1.4735,1.5947,1.6617,1.677,1.65,1.6254,1.6196,1.5936,1.5561,1.4926,1.4364,1.3867,1.325,1.2387,0.0,0.0,0.0,0.0,0.0,0.0,0.0,0.0,0.0,0.0,0.0,0.0,0.0,0.0,0.0,0.0,0.0,0.0,0.0,0.8456,0.8745,0.9241,0.0,0.0,0.0,0.0,0.0,0.0,0.0,0.0,0.0,1.6669,1.578,1.4898,0.0,0.0,1.7693,1.5313,1.7173,1.8601,1.8091,1.8779,0.0,1.8472,1.8874,1.975,2.1033,2.2321,2.3869,2.5846,2.6336,2.6556,2.6933,2.5781,2.4122,2.2654,2.1711,2.1501,2.1251,2.07,2.0486,2.1225,2.1448,2.0983,2.027,1.9105,1.9497,1.9661,1.9681,1.9951,2.0346,2.0809,2.0605,2.0374,2.0117,1.9922,1.934,1.849,1.8128,0.0,0.0,0.0,1.8311,1.8534,1.8953,1.9119,1.9152,1.9307,1.9319,1.9254,1.9447,1.9273,1.8736,1.8561,1.7291,1.5143,0.0,0.0,1.3016,1.4414,1.5371,1.5782,1.6724,1.7135,1.71,1.6789,1.6533,1.6266,1.6186,1.5869,1.5381,1.5186,1.4848,1.4486,1.4077,1.3288,0.0,0.0,0.0,0.0,0.0,0.0,0.0,0.0,0.0,0.0,0.0,0.665,0.6848,0.0,0.0,0.0,0.9141,1.0402,1.1452,1.1309,0.0,0.0,0.0,0.0,0.0,0.0,0.0,1.4754,1.6182,1.7443,1.7969,1.7166,1.6052,1.4519,1.6314,1.7159,1.5571,0.0,1.8992,1.8757,1.9629,1.9976,1.8963,1.9925,2.1533,2.3494,2.4965,2.6269,2.7201,2.6673,2.6275,2.6486,2.5649,2.4765,2.4839,2.3625,2.2641,2.2752,2.2017,2.1433,2.1489,2.0933,2.0113,2.1971,2.2505,2.2546,2.2643,2.2884,2.3214,2.3423,2.3499,2.3029,2.2591,2.2213,2.1911,2.1149,2.011,1.9375,0.0,2.0346,1.9923,1.9992,2.0554,2.059,2.0666,2.0688,2.0417,2.0267,2.0106,2.0073,1.9715,1.9176,1.9077,1.8603,1.7733,1.6557,1.5352,1.4258,1.5606,1.6113,1.5624,1.684,1.7169,1.6457,1.6387,1.6417,1.6437,1.6108,1.5881,1.5783,1.5708,1.5652,1.567,1.568,1.5319,1.4485,0.0,0.0,0.0,0.0,0.0,0.0,0.0,0.0,0.0,0.0,0.0,0.0,0.0,0.0,0.9003,1.1549,0.0,1.4447,1.4204,0.0,0.0,0.0,1.4057,1.3839,1.6127,1.7349,1.6353,0.0,0.0,1.8193,1.8306,1.7517,1.5219,1.5323,1.5641,1.5808,1.677,1.8036,1.9873,2.042,2.0522,2.0195,2.0881,2.2168,2.4253,2.4693,2.5096,2.6191,2.6065,2.5968,2.6337,2.5801,2.5076,2.4907,2.387,2.3322,2.3325,2.2754,2.2022,2.1124,2.0138,1.9273,2.2821,2.3231,2.3668,2.3714,2.3489,2.377,2.3807,2.3654,2.3447,2.3016,2.2484,2.2281,2.2078,2.1761,2.1488,2.1498,2.1703,2.1428,2.1413,2.1475,2.0873,2.0881,2.1267,2.0109,1.9767,2.007,1.956,1.9216,1.8934,1.8559,1.8316,1.8068,1.7708,1.7264,1.6829,1.729,1.7722,1.802,1.8233,1.8002,1.729,1.6046,1.5628,1.5949,1.518,1.4805,1.4952,1.5044,1.5275,1.5615,1.5624,1.5129,1.4104,1.3755,0.0,0.0,0.0,0.0,0.0,0.0,0.0,0.0,0.0,0.8192,0.8967,0.0,1.1098,0.0,1.2974,1.3905,1.3838,1.4076,0.0,0.0,1.5255,1.5881,1.7573,1.8336,1.8903,1.9275,1.9517,1.9436,1.8827,1.8696,1.8176,1.7008,1.7608,1.7968,1.7312,1.7877,1.8731,1.9592,1.9775,1.9962,2.0723,2.1941,2.3083,2.3927,2.4221,2.458,2.5149,2.4777,2.4527,2.4882,2.4229,2.3579,2.3307,2.2659,2.2055,2.1658,2.1321,2.0872,2.0051,1.9288,1.864,2.3612,2.4028,2.4523,2.4764,2.4829,2.447,2.4403,2.451,2.4257,2.4082,2.3879,2.3329,2.2992,2.2967,2.2712,2.2555,2.2432,2.2309,2.2173,2.2099,2.1616,2.1497,2.1643,2.0602,2.0058,1.989,1.946,1.9108,1.8797,1.8528,1.8335,1.8256,1.8021,1.7796,1.7625,1.8116,1.8473,1.8577,1.8469,1.8265,1.7806,1.6731,1.6095,1.5846,1.5077,1.4747,1.4934,1.467,1.479,1.5392,1.5239,1.4666,1.3709,1.4063,1.3491,0.0,0.0,0.0,0.0,0.0,0.0,0.0,0.0,0.0,0.0,0.0,1.3182,1.4145,1.506,1.5519,1.5381,1.5737,1.6342,1.7148,1.72,1.7827,1.9505,1.9889,2.0156,2.0383,2.0434,2.0144,1.9408,1.9174,1.8898,1.8321,1.8752,1.8916,1.8259,1.8441,1.9018,1.9809,1.9621,1.9862,2.114,2.2282,2.3229,2.3752,2.403,2.4113,2.3982,2.3684,2.3397,2.3141,2.2627,2.2135,2.1911,2.1292,2.0687,2.0224,1.9667,1.9313,1.9236,1.8717,1.8121,2.4221,2.4778,2.5077,2.5536,2.5988,2.4964,2.5021,2.5742,2.5384,2.537,2.5577,2.4425,2.3917,2.3859,2.3352,2.2957,2.2604,2.2555,2.242,2.2149,2.2212,2.2092,2.1809,2.1331,2.0594,1.9737,1.9435,1.9025,1.861,1.8483,1.8385,1.8305,1.7857,1.7601,1.7523,1.8376,1.855,1.8091,1.8195,1.8203,1.8134,1.7668,1.6994,1.6149,1.5535,1.5223,1.5348,1.4695,1.4673,1.535,1.5049,1.4498,1.3729,1.4414,1.4146,0.0,1.3579,0.0,0.0,0.0,0.0,0.0,0.0,0.0,0.0,1.384,1.5209,1.6543,1.7111,1.7486,1.7752,1.8124,1.8578,1.9226,1.9319,1.9606,2.0409,2.1006,2.1091,2.066,2.0908,2.0696,1.9862,1.9656,1.9552,1.9186,1.9146,1.9102,1.8855,1.8721,1.9024,2.0167,1.9927,2.0207,2.1396,2.2235,2.2892,2.3553,2.3628,2.3431,2.2758,2.2636,2.2406,2.156,2.124,2.1036,2.0767,2.0064,1.9405,1.9022,1.8221,1.78,1.8419,1.8159,1.7693,2.4465,2.4593,2.4878,2.4978,2.4851,2.4908,2.5522,2.6539,2.6312,2.6082,2.577,2.505,2.4654,2.4536,2.3682,2.2907,2.2187,2.1839,2.1388,2.0962,2.1266,2.1608,2.1934,2.09,2.0419,2.0318,1.9309,1.8513,1.8081,1.7679,1.759,1.7835,1.7345,1.7234,1.7501,0.0,0.0,0.0,1.7844,1.8,1.8426,1.7537,1.7099,1.726,1.6171,0.0,1.5762,1.588,1.6132,1.6535,1.6651,0.0,0.0,0.0,0.0,0.0,0.0,0.0,0.0,0.0,0.0,0.0,1.626,1.5554,1.4828,1.5832,1.6778,1.7479,1.8072,1.8555,1.8773,1.9334,1.967,1.9837,2.0245,2.0683,2.1188,2.1492,2.1684,2.1698,2.1602,2.1153,2.0372,2.0042,1.9734,1.9331,1.9279,1.9316,1.9255,1.9047,1.9076,1.9556,2.0131,2.0759,2.1229,2.2077,2.2505,2.2425,2.2461,2.2254,2.1516,2.1507,2.1453,2.0809,2.0588,2.0293,1.9852,1.9271,1.8607,1.7892,1.7299,1.7118,1.7706,1.7394,1.7177,2.4751,2.4821,2.5328,2.5508,0.0,2.5632,2.615,2.6779,2.6379,2.6165,2.6056,2.5522,2.5314,2.5216,2.4567,2.38,2.299,2.2761,2.2347,2.1741,2.1922,2.1968,2.1851,2.1063,2.0299,1.9634,1.9024,1.8344,1.781,1.7788,1.7799,1.781,1.7567,1.7512,1.7601,1.8058,1.835,1.8506,1.8377,1.8407,1.8643,1.8211,1.7836,1.7554,1.688,0.0,0.0,0.0,0.0,0.0,0.0,0.0,0.0,0.0,0.0,1.4746,1.5484,1.6092,1.6443,1.6875,1.7333,1.782,1.7781,1.741,1.6661,1.7117,1.7641,1.8242,1.8649,1.9044,1.9594,1.994,2.0258,2.066,2.0858,2.1104,2.1444,2.1793,2.1888,2.1746,2.1664,2.1326,2.0699,2.0485,2.0271,1.9965,1.9811,1.9643,1.9592,1.9356,1.9316,1.9656,2.0359,2.1042,2.1458,2.1841,2.2193,2.205,2.2469,2.2289,2.1133,2.1065,2.0933,2.0131,1.9406,1.8795,1.8574,1.7995,1.7437,1.7107,1.6642,1.6324,1.66,1.657,1.6602,2.5118,2.5174,2.5879,2.6218,2.6326,2.6472,2.6645,2.6779,0.0,0.0,0.0,2.6002,2.5839,2.5729,2.5384,2.4738,2.3962,2.3891,2.3492,2.2798,2.2884,2.2539,2.1787,2.1406,2.0434,1.9042,1.8928,1.853,1.7865,1.8259,1.8247,1.7963,1.7963,1.7854,1.7767,1.815,1.851,1.8769,1.8892,1.8898,1.8826,1.8855,1.8498,1.7592,1.7412,1.7267,1.7086,1.6477,1.6158,1.6148,1.6135,1.5763,1.4921,1.5842,1.6339,1.6169,1.7333,1.7958,1.774,1.8348,1.8572,1.8193,1.8367,1.8395,1.8231,1.8184,1.8362,1.9016,1.9146,1.954,2.0245,2.0271,2.0523,2.1326,2.1277,2.1326,2.1616,2.1902,2.1935,2.1506,2.1506,2.1388,2.0974,2.0725,2.0612,2.0549,2.0233,2.0029,1.9862,1.9617,1.9577,1.9901,2.0359,2.0858,2.1348,2.1506,2.1636,2.1813,2.2532,2.2599,2.1403,2.0898,2.0409,1.9374,1.8167,1.753,1.7354,1.6925,1.6398,1.6454,1.6088,1.5614,1.5457,1.5744,1.6013,2.5425,2.566,2.6204,2.6457,2.6472,2.6659,2.6779,2.6794,2.6712,2.6674,2.6727,2.6472,2.6258,2.6002,2.5481,2.4684,2.3768,2.35,2.3,2.2347,2.287,2.2749,2.2108,2.1781,2.1142,2.0192,1.9576,1.904,1.856,1.856,1.841,1.8084,1.8084,1.792,1.7767,1.815,1.8391,1.8383,1.8672,1.8782,1.8732,1.858,1.8324,1.8005,1.7619,1.7288,1.7029,1.7418,1.7672,1.7875,1.8216,1.8351,1.8277,1.8013,1.7769,1.7564,1.7914,1.814,1.8043,1.8429,1.8614,1.856,1.856,1.8738,1.9153,1.9297,1.953,1.9978,2.0067,2.0308,2.0646,2.051,2.0673,2.1264,2.1277,2.1375,2.1664,2.1759,2.1746,2.1506,2.1375,2.1193,2.0947,2.0536,2.0283,2.0283,2.0131,2.0182,2.0169,1.9862,1.972,1.9926,2.0055,2.0258,2.061,2.061,2.0795,2.1215,2.1623,2.1638,2.0634,2.0182,1.9665,1.8762,1.7708,1.6976,1.6646,1.6557,1.6095,1.5534,1.5412,1.5379,1.4868,1.512,1.5509,2.5328,2.5495,2.619,2.6496,2.651,2.6578,2.6712,2.6779,2.6645,2.6645,2.6645,2.6563,2.6404,2.6312,2.5879,2.5342,2.4727,2.4355,2.3981,2.3592,2.3657,2.3391,2.2617,2.2192,2.1355,2.0318,1.9793,1.9303,1.8975,1.8922,1.8762,1.8344,1.8139,1.7909,1.7865,1.8193,1.8476,1.8667,1.8893,1.9049,1.9193,1.9021,1.8882,1.8846,1.8418,1.817,1.8183,1.8306,1.8468,1.8681,1.9092,1.9253,1.9192,1.8981,1.8782,1.8678,1.8429,1.8325,1.8398,1.829,1.8236,1.8224,1.8398,1.8625,1.8946,1.9146,1.946,1.9914,2.0016,2.0258,2.0746,2.061,2.0709,2.1104,2.097,2.0871,2.1055,2.1118,2.1019,2.097,2.0772,2.0636,2.0586,2.0233,2.0029,2.0029,1.9939,1.9875,2.0156,2.0067,1.9965,2.0182,2.022,2.0258,2.0372,2.0245,2.023,2.0231,2.0806,2.0689,1.9807,1.929,1.8798,1.7817,1.6917,1.62,1.5776,1.5656,1.54,1.5232,1.5096,1.5074,1.5103,1.5491,1.6003,2.5397,2.5508,2.6244,2.6578,2.6578,2.6578,2.6645,2.6779,2.6645,2.6578,2.6578,2.6496,2.6496,2.6457,2.6272,2.6002,2.5756,2.5384,2.516,2.5007,2.456,2.3943,2.3163,2.2458,2.1524,2.0424,1.9978,1.9604,1.9331,1.9279,1.904,1.8614,1.8236,1.8007,1.8018,1.8302,1.8625,1.8999,1.9117,1.9319,1.952,1.942,1.9285,1.9167,1.8858,1.8773,1.9012,1.8818,1.8891,1.9364,1.9564,1.9659,1.9677,1.9585,1.9512,1.946,1.8999,1.8625,1.8506,1.8127,1.7899,1.7957,1.8311,1.8585,1.8736,1.8941,1.9255,1.9617,1.9747,2.0003,2.0346,2.0308,2.0346,2.0597,2.0295,2.0156,2.0359,2.0359,2.0321,2.0321,2.022,2.0118,2.0067,1.9811,1.9668,1.9681,1.9525,1.9577,1.9901,2.0029,2.0154,2.0446,2.0523,2.056,2.0523,2.0346,2.0077,1.9684,2.0197,2.0022,1.9058,1.8616,1.8117,1.7136,1.632,1.5739,1.5244,1.5153,1.5108,1.5017,1.496,1.5062,1.5502,1.6336,1.6919,2.6002,2.6111,2.6553,2.6779,2.6779,2.6779,2.6779,2.6794,2.6779,2.6779,2.6712,2.6578,2.651,2.6457,2.6379,2.6272,2.6233,2.6056,2.5948,2.5823,2.4941,2.4173,2.3527,2.2466,2.1557,2.0901,2.0385,2.0003,1.9811,1.9512,1.9146,1.8798,1.8625,1.8452,1.841,1.8518,1.8721,1.8987,1.9117,1.9238,1.9318,1.9364,1.9042,1.8363,1.8381,1.8372,1.8585,1.8545,1.9128,2.0153,2.0019,2.0044,2.0403,2.0131,1.9914,1.9811,1.9617,1.9186,1.8387,1.7975,1.7891,1.8202,1.8578,1.8917,1.9186,1.9353,1.9359,1.9361,1.9592,1.9708,1.9565,1.9356,1.9396,1.9631,1.9384,1.9303,1.9747,1.9991,2.0105,2.0233,1.9914,1.9862,1.9759,1.9396,1.9146,1.9093,1.9263,1.942,1.967,1.9787,2.008,2.0703,2.0944,2.0917,2.093,2.0845,2.0505,2.0247,2.0025,1.9499,1.8693,1.7905,1.7318,1.6715,1.6263,1.5715,1.5334,1.5345,1.53,1.5027,1.4992,1.5141,1.564,1.6872,1.7942,2.6457,2.6365,2.687,2.6922,2.6779,2.6645,2.6712,2.6779,2.6645,2.6712,2.6794,2.6712,2.6659,2.6645,2.6433,2.6433,2.6568,2.6179,2.6096,2.6201,2.5247,2.4501,2.3886,2.2793,2.1943,2.1367,2.0908,2.061,2.0422,1.9914,1.946,1.904,1.8774,1.8625,1.8637,1.8691,1.8987,1.9448,1.9512,1.9659,1.9774,1.9736,1.9646,1.9525,1.916,1.9266,1.9656,1.9322,1.9668,2.0907,2.0712,2.0785,2.1403,2.0894,2.0597,2.0497,1.9991,1.9279,1.8398,1.8302,1.8368,1.8406,1.8794,1.901,1.8942,1.9156,1.9112,1.8827,1.9186,1.9448,1.946,1.9303,1.9186,1.9239,1.904,1.8999,1.9291,1.9303,1.9303,1.9368,1.9186,1.9186,1.9251,1.9105,1.8786,1.8572,1.8721,1.9093,1.9267,1.9597,2.0176,2.0886,2.1125,2.1152,2.1226,2.1077,2.0649,2.0067,1.9993,1.9655,1.7952,1.7613,1.7115,1.6188,1.5903,1.548,1.4891,1.5051,1.5108,1.5161,1.6138,1.6718,1.6988,1.8172,1.8998,2.6878,2.6736,2.7011,2.7041,2.6779,2.6645,2.6645,2.6765,2.6645,2.6645,2.6779,2.6794,2.6794,2.6779,2.6592,2.6592,2.6727,2.634,2.6258,2.6385,2.5616,2.4949,2.4366,2.3399,2.2665,2.2228,2.1496,2.1055,2.0871,2.0359,1.985,1.9448,1.9133,1.8987,1.8958,1.9064,1.9356,1.9862,1.9862,2.0016,2.0219,2.0205,2.03,2.0381,2.0126,2.0246,2.087,2.0316,2.0528,2.1693,2.1373,2.143,2.1908,2.1458,2.114,2.1055,2.0459,1.9683,1.8951,1.8975,1.9005,1.9034,1.9272,1.9305,1.9194,1.9181,1.8934,1.86,1.8827,1.9146,1.9303,1.9198,1.9182,1.9368,1.9054,1.8834,1.934,1.9172,1.8999,1.9052,1.904,1.8827,1.8827,1.8721,1.8518,1.8182,1.841,1.8667,1.8886,1.9416,2.0126,2.0913,2.1005,2.1234,2.1638,2.1356,2.0753,2.0165,2.0042,1.9048,1.7316,1.7224,1.6896,1.5948,1.5662,1.5414,1.5074,1.504,1.551,1.6038,1.6953,1.7921,1.8125,1.9257,2.0003,2.7284,2.7181,2.7026,2.6951,2.6779,2.6779,2.6779,2.6794,2.6779,2.6779,2.6794,2.6794,2.6794,2.6794,2.6884,2.6899,2.6846,2.6779,2.6659,2.6505,2.6017,2.5625,2.5269,2.4327,2.3865,2.3737,2.2512,2.1456,2.0812,2.0736,2.0523,1.9978,2.0029,1.9875,1.9512,1.9668,1.9901,2.0169,2.0105,2.0156,2.0409,2.0756,2.0721,2.0529,2.0872,2.1264,2.1525,2.1453,2.1678,2.2346,2.21,2.1894,2.1841,2.1664,2.1506,2.1375,2.0871,2.0497,2.0232,1.9812,1.9777,2.0189,2.0021,1.9985,2.0001,1.9559,1.908,1.8684,1.8738,1.8834,1.9054,1.9059,1.9281,1.9897,1.9137,1.9168,2.0246,1.9662,1.9433,1.9552,1.946,1.9146,1.8709,1.8452,1.8278,1.817,1.8464,1.8732,1.8661,1.9182,1.9969,2.0514,2.0748,2.1025,2.2424,2.1902,2.1238,2.0765,1.9852,1.8526,1.7581,1.6765,1.6293,1.5969,1.6032,1.5881,1.5461,1.5672,1.6421,1.7075,1.7738,1.8449,1.9342,2.0096,2.0726,2.769,2.7284,2.6989,2.6846,2.6794,2.6794,2.6794,2.6794,2.6794,2.6794,2.6794,2.6779,2.6846,2.6937,2.6951,2.6937,2.6951,2.7093,2.7115,2.696,2.6559,2.6214,2.5962,2.5202,2.4798,2.4752,2.4177,2.3237,2.2191,2.193,2.1416,2.0799,2.056,2.0409,2.0409,2.0271,2.0359,2.066,2.051,2.061,2.1019,2.1264,2.1431,2.1588,2.1589,2.1856,2.2406,2.2105,2.2134,2.2663,2.2509,2.2385,2.2399,2.2152,2.1996,2.1902,2.1506,2.1006,2.0597,2.0434,2.045,2.0603,2.036,2.0202,2.0029,1.9598,1.9253,1.9266,1.9304,1.9631,2.014,1.9773,1.9592,2.041,2.0147,1.9974,2.0378,2.0184,1.9801,1.9599,1.9512,1.9303,1.8987,1.8869,1.8804,1.8398,1.8625,1.8827,1.9056,1.9648,2.0473,2.0938,2.1286,2.1629,2.2307,2.188,2.1248,2.1057,2.0385,1.922,1.8193,1.7393,1.6866,1.6454,1.6484,1.6541,1.6215,1.686,1.7542,1.8333,1.8984,1.9477,2.0684,2.0914,2.1425,2.784,2.7503,2.7093,2.6884,2.6884,2.6884,2.6922,2.6937,2.6937,2.6884,2.6884,2.6884,2.6951,2.7003,2.7041,2.7055,2.7093,2.735,2.7423,2.7327,2.7229,2.7067,2.6752,2.6246,2.5971,2.5927,2.557,2.467,2.3396,2.2888,2.2275,2.1471,2.1153,2.0993,2.1042,2.0957,2.1055,2.1153,2.1055,2.1166,2.1471,2.1616,2.1874,2.2225,2.2305,2.2557,2.3083,2.2848,2.2847,2.3172,2.3053,2.2933,2.2902,2.2646,2.2495,2.2449,2.2203,2.1827,2.1369,2.1369,2.156,2.176,2.1108,2.065,2.0669,2.0184,1.9903,1.9891,2.0086,2.0598,2.1066,2.069,2.068,2.1593,2.1285,2.1155,2.1563,2.1028,2.0513,2.0207,2.0169,1.9914,1.9552,1.954,1.9181,1.856,1.8895,1.9202,1.9187,2.0155,2.0957,2.1232,2.1503,2.1743,2.1873,2.1291,2.107,2.0911,2.0478,1.946,1.8814,1.8055,1.7544,1.7092,1.696,1.7089,1.7454,1.8078,1.8829,1.9624,1.9836,2.0062,2.0851,2.1336,2.1888,2.784,2.774,2.7372,2.7181,2.7093,2.7181,2.7181,2.7181,2.7167,2.7093,2.7003,2.713,2.713,2.7055,2.713,2.7181,2.7233,2.7473,2.7524,2.7524,2.7993,2.811,2.7739,2.7452,2.7309,2.725,2.6444,2.5306,2.4112,2.3861,2.3197,2.2244,2.2019,2.1753,2.1272,2.1732,2.1855,2.1698,2.1698,2.1759,2.1664,2.1793,2.2063,2.242,2.2892,2.3259,2.355,2.3779,2.3837,2.3882,2.3696,2.3523,2.3319,2.3172,2.3083,2.3068,2.2934,2.283,2.268,2.2649,2.2918,2.3238,2.2358,2.1716,2.1839,2.1432,2.0843,2.0655,2.0921,2.1392,2.1673,2.1923,2.2428,2.3447,2.2498,2.2347,2.3022,2.2251,2.1251,2.1264,2.1215,2.1055,2.0746,2.0434,1.9864,1.9246,1.9321,1.9597,1.9334,2.0492,2.1205,2.1089,2.1259,2.1671,2.124,2.0779,2.074,2.061,2.0087,1.9384,1.9176,1.8646,1.8377,1.7972,1.7932,1.8083,1.8824,1.9391,1.9848,2.0482,2.0511,2.0656,2.1309,2.1887,2.2325,2.8189,2.7993,2.7978,2.778,2.7509,2.7494,2.7408,2.7233,2.7167,2.7181,2.7181,2.7284,2.735,2.7299,2.7335,2.7335,2.735,2.764,2.779,2.7989,2.825,2.8477,2.8511,2.8341,2.8117,2.7929,2.748,2.6747,2.5872,2.5467,2.479,2.376,2.345,2.3066,2.2509,2.248,2.2434,2.2342,2.2263,2.2263,2.248,2.2434,2.2649,2.3143,2.3203,2.3254,2.3473,2.3793,2.3967,2.4009,2.3839,2.3739,2.3681,2.3638,2.3595,2.3638,2.345,2.345,2.3507,2.3304,2.3334,2.3504,2.3256,2.2724,2.2248,2.2476,2.2418,2.2133,2.2454,2.2936,2.3602,2.4176,2.4332,2.4255,2.3792,2.3666,2.4056,2.2935,2.2005,2.1846,2.186,2.167,2.1465,2.1259,2.1014,2.0267,2.009,1.9973,2.0466,2.0684,2.0926,2.0792,2.117,2.1283,2.0684,2.0349,2.043,2.0488,2.0106,1.9869,1.9656,1.9447,1.9178,1.8993,1.8956,1.9299,2.0045,2.0504,2.0786,2.0925,2.09,2.1352,2.2046,2.2394,2.2555,2.8479,2.8271,2.84,2.824,2.8027,2.8076,2.7894,2.7575,2.7575,2.7622,2.772,2.7527,2.7637,2.7757,2.7607,2.7503,2.7488,2.769,2.789,2.8137,2.8477,2.8668,2.8795,2.8732,2.8589,2.8444,2.825,2.7771,2.702,2.6705,2.6051,2.5106,2.4581,2.4178,2.3748,2.3408,2.3143,2.292,2.2844,2.2904,2.2891,2.2702,2.2908,2.3561,2.3463,2.3365,2.3538,2.3902,2.4135,2.4222,2.4418,2.4542,2.4486,2.4405,2.4379,2.4297,2.4256,2.4199,2.4266,2.4251,2.4265,2.4441,2.4605,2.4312,2.3703,2.4189,2.444,2.4051,2.4192,2.4572,2.5047,2.5416,2.5542,2.5575,2.5281,2.5039,2.474,2.3778,2.2985,2.2826,2.2711,2.2529,2.2314,2.1893,2.1699,2.1009,2.0556,2.0301,2.088,2.1043,2.106,2.1075,2.131,2.0981,2.0104,1.9961,2.0053,2.0216,2.0254,2.0348,2.0366,2.0252,2.0035,1.9858,1.9803,2.0284,2.0967,2.0996,2.1155,2.1203,2.1406,2.1713,2.2141,2.2136,2.2491,2.8669,2.8574,2.8701,2.8685,2.8574,2.8654,2.8463,2.822,2.8171,2.8263,2.8393,2.7951,2.7976,2.8321,2.7885,2.7625,2.7625,2.7675,2.779,2.8152,2.851,2.8732,2.8684,2.8779,2.8779,2.8747,2.8747,2.8389,2.7783,2.7535,2.6949,2.6199,2.5454,2.4851,2.4684,2.4356,2.3852,2.345,2.3508,2.348,2.3231,2.2687,2.2912,2.3948,2.3643,2.3514,2.3793,2.4228,2.445,2.4539,2.5264,2.5589,2.546,2.546,2.5291,2.5176,2.5169,2.5137,2.5121,2.5243,2.5583,2.587,2.5935,2.5926,2.5513,2.5939,2.6243,2.5679,2.5751,2.5859,2.5857,2.5932,2.6314,2.7137,2.6826,2.6196,2.5258,2.4896,2.4342,2.3993,2.3855,2.3563,2.304,2.2323,2.1683,2.1018,2.063,2.0324,2.0704,2.1175,2.1657,2.1591,2.1205,2.0585,1.9703,1.9487,1.9645,2.011,2.0311,2.0632,2.0894,2.0862,2.0798,2.0684,2.0698,2.1227,2.1567,2.1601,2.181,2.2123,2.2192,2.2133,2.2141,2.2219,2.3102,2.9198,2.9273,2.9486,2.938,2.9106,2.9044,2.8842,2.8574,2.8479,2.8554,2.8583,2.8345,2.8274,2.8267,2.8076,2.784,2.7821,2.7871,2.7905,2.8054,2.8383,2.859,2.8668,2.8889,2.8951,2.8826,2.8936,2.8841,2.8561,2.8498,2.8061,2.7226,2.6603,2.5911,2.5229,2.4808,2.4482,2.4177,2.3994,2.4036,2.4063,2.3685,2.3785,2.4164,2.346,2.3368,2.4037,2.4729,2.4851,2.4583,2.5451,2.5957,2.5908,2.5908,2.5944,2.6016,2.6052,2.6087,2.6175,2.6125,2.6173,2.6355,2.678,2.6595,2.5805,2.6661,2.7013,2.6708,2.6471,2.6482,2.6824,2.6747,2.7185,2.8149,2.8088,2.7806,2.7402,2.6233,2.5222,2.5415,2.4772,2.4045,2.3345,2.2791,2.231,2.1643,2.0754,2.0166,2.0795,2.0567,2.072,2.0682,2.0415,1.9941,1.9516,1.9233,1.9336,1.9924,2.0326,2.0747,2.1071,2.1323,2.1275,2.1213,2.1321,2.1706,2.2013,2.2172,2.2586,2.2832,2.254,2.2274,2.2519,2.2717,2.4016,2.9335,2.9441,2.977,2.977,2.9576,2.9425,2.9182,2.8951,2.8795,2.8936,2.906,2.8698,2.8835,2.9299,2.8851,2.8564,2.8499,2.8514,2.8328,2.8042,2.82,2.8467,2.8701,2.8839,2.8791,2.8951,2.9167,2.9121,2.8982,2.9152,2.8869,2.8183,2.7381,2.6675,2.6135,2.5287,2.4855,2.4695,2.4574,2.4655,2.4655,2.4293,2.4476,2.4665,2.4042,2.3931,2.4596,2.5026,2.5261,2.5438,2.5976,2.6367,2.6471,2.6402,2.6488,2.6724,2.6691,2.6741,2.6906,2.6855,2.6871,2.7055,2.7554,2.7402,2.7046,2.7589,2.8178,2.8142,2.7502,2.7536,2.7958,2.7799,2.8039,2.876,2.8801,2.8624,2.8584,2.6878,2.5989,2.579,2.5192,2.4265,2.3389,2.2794,2.225,2.1609,2.0345,2.048,2.0931,2.0187,1.9906,2.0282,2.0436,2.0206,2.0019,1.973,1.9524,2.0025,2.0821,2.1167,2.1323,2.1661,2.157,2.1584,2.1853,2.2065,2.2266,2.25,2.2762,2.2784,2.2535,2.2668,2.2955,2.3622,2.4909,2.9243,2.935,2.971,2.9902,2.9946,2.9786,2.9531,2.9335,2.9243,2.939,2.9596,2.9077,2.9485,3.0869,2.9537,2.9342,2.9404,2.907,2.8645,2.8189,2.8062,2.8262,2.8919,2.8564,2.8674,2.9088,2.9396,2.9305,2.9229,2.935,2.9225,2.8584,2.7576,2.7094,2.654,2.5711,2.5155,2.5052,2.5146,2.5146,2.4996,2.4738,2.4852,2.5298,2.5236,2.4939,2.5162,2.5414,2.5782,2.6624,2.6742,2.6891,2.7068,2.7004,2.7051,2.7289,2.7289,2.7272,2.7396,2.7535,2.7612,2.7789,2.8298,2.8486,2.8005,2.8453,2.8985,2.9158,2.8676,2.8351,2.8661,2.8641,2.868,2.9024,2.8844,2.8515,2.802,2.7118,2.6257,2.5824,2.5157,2.4317,2.3343,2.2284,2.1379,2.1639,2.0452,2.0035,2.0357,2.016,2.0246,2.0847,2.0878,2.0795,2.0594,2.035,2.0167,2.0289,2.1295,2.1773,2.1721,2.1882,2.1735,2.1781,2.2015,2.2186,2.2304,2.2559,2.2885,2.3397,2.3583,2.3567,2.3702,2.459,2.5725,2.9121,2.9592,2.9592,2.9754,2.993,2.977,2.9726,2.9726,2.9637,2.9704,2.9769,2.9398,2.9705,3.0513,2.9643,2.9327,2.9734,2.9245,2.8633,2.8317,2.7907,2.8232,2.8745,2.8513,2.8713,2.9162,2.9425,2.9335,2.9213,2.9303,2.9032,2.8176,2.7601,2.6852,2.6249,2.5846,2.5486,2.547,2.5546,2.5551,2.5589,2.5464,2.5473,2.5795,2.5903,2.5798,2.5697,2.62,2.6787,2.7068,2.7135,2.7244,2.7577,2.7624,2.7725,2.7954,2.8055,2.8055,2.8101,2.8156,2.8255,2.8209,2.8407,2.8434,2.819,2.8319,2.8771,2.8911,2.8463,2.8182,2.8328,2.8649,2.8732,2.8784,2.8657,2.8475,2.8081,2.7284,2.6529,2.601,2.5215,2.4379,2.3568,2.217,2.1491,2.1406,2.0706,1.9679,1.9746,2.0088,2.0406,2.0948,2.1191,2.1128,2.1155,2.097,2.0848,2.0777,2.1566,2.2115,2.207,2.2153,2.2068,2.2073,2.2175,2.2315,2.249,2.2876,2.3252,2.3937,2.453,2.4559,2.4754,2.5638,2.6392,2.9203,2.9534,2.9822,2.9955,2.9962,2.977,2.9786,2.9874,2.9742,2.9786,2.9874,2.9681,3.0023,3.0633,3.0066,3.0036,3.0084,2.9375,2.8826,2.8592,2.8185,2.82,2.8699,2.8595,2.865,2.93,2.956,2.9515,2.9396,2.9406,2.9118,2.8123,2.754,2.6955,2.6238,2.5818,2.567,2.5791,2.5941,2.6068,2.6173,2.6332,2.6385,2.6367,2.6505,2.6404,2.6349,2.6571,2.7068,2.7386,2.7417,2.7552,2.7971,2.8027,2.8174,2.8448,2.8422,2.8466,2.8536,2.8536,2.8536,2.8594,2.8637,2.8562,2.8492,2.8492,2.8819,2.9107,2.8838,2.8299,2.8237,2.8452,2.8653,2.8458,2.834,2.8062,2.7518,2.6808,2.6264,2.5714,2.4646,2.3719,2.273,2.1897,2.1645,2.1551,2.109,2.0196,2.0543,2.0797,2.0461,2.0775,2.1242,2.1464,2.1598,2.16,2.1569,2.1534,2.1787,2.2107,2.2118,2.2265,2.2429,2.2446,2.2463,2.2588,2.2782,2.3193,2.3575,2.4017,2.4522,2.509,2.5838,2.6691,2.7336,2.937,2.9542,3.0224,3.0293,3.0038,2.9842,2.9814,2.9902,2.977,2.9858,2.9989,2.9989,3.0468,3.0973,3.0745,3.07,3.0432,2.9806,2.9212,2.8995,2.8433,2.848,2.8731,2.8709,2.8854,2.947,2.9665,2.9589,2.9339,2.9424,2.8774,2.804,2.7508,2.6832,2.6324,2.5956,2.5824,2.6046,2.6315,2.6556,2.6725,2.6989,2.7132,2.7117,2.7021,2.6956,2.6967,2.7004,2.7149,2.7672,2.7719,2.7933,2.821,2.8326,2.8304,2.8597,2.8567,2.8591,2.8536,2.8615,2.8785,2.9017,2.8905,2.881,2.881,2.8852,2.9077,2.9216,2.9057,2.8694,2.8662,2.8667,2.842,2.8147,2.7977,2.7624,2.6826,2.6076,2.5548,2.506,2.4043,2.3048,2.2492,2.1901,2.1806,2.1666,2.121,2.0959,2.1289,2.1425,2.1067,2.1243,2.181,2.2476,2.267,2.3191,2.304,2.2775,2.2767,2.2846,2.2914,2.3171,2.3383,2.2807,2.279,2.2925,2.3122,2.3463,2.3783,2.4101,2.4948,2.5946,2.686,2.7752,2.8299,2.9521,3.0304,3.0416,3.04,3.0195,3.0162,3.0109,2.9989,3.0054,3.0162,3.045,3.0434,3.0974,3.1406,3.0882,3.0455,3.0266,2.9858,2.9544,2.9319,2.8884,2.8856,2.8841,2.8978,2.9236,2.9544,2.9605,2.9335,2.8874,2.857,2.8324,2.7096,2.6848,2.659,2.6216,2.5877,2.6112,2.633,2.6607,2.6825,2.7021,2.7307,2.7509,2.7509,2.743,2.7404,2.7359,2.7373,2.7491,2.7771,2.8037,2.8308,2.8551,2.8651,2.8523,2.8452,2.8817,2.8891,2.8507,2.8802,2.9038,2.913,2.9152,2.9108,2.9044,2.9048,2.92,2.9104,2.9046,2.8834,2.8839,2.8753,2.8361,2.8021,2.7947,2.7895,2.6845,2.5799,2.476,2.4218,2.3274,2.2598,2.2294,2.2117,2.2066,2.2086,2.1961,2.1686,2.18,2.1871,2.1714,2.2084,2.265,2.3333,2.3921,2.4628,2.4934,2.4516,2.4455,2.468,2.4679,2.4631,2.4442,2.3903,2.3445,2.3361,2.3574,2.3837,2.4449,2.5054,2.5981,2.6961,2.7717,2.8471,2.9058,2.9624,3.0271,3.0534,3.0591,3.0549,3.0813,3.0886,3.0925,3.1378,3.1732,3.1784,3.1698,3.1827,3.1992,3.1365,3.0845,3.0617,3.03,3.0044,2.9738,2.9409,2.9136,2.9059,2.9243,2.9441,2.9621,2.9694,2.9609,2.9253,2.9242,2.8501,2.7936,2.7729,2.7355,2.6667,2.6619,2.6612,2.669,2.6825,2.71,2.7369,2.7701,2.7904,2.7961,2.7847,2.7748,2.7719,2.76,2.7719,2.795,2.8101,2.8404,2.8676,2.8832,2.8842,2.878,2.9128,2.9283,2.8893,2.9247,2.9377,2.9456,2.9474,2.9453,2.9394,2.9434,2.9412,2.9272,2.9185,2.916,2.9101,2.8809,2.8347,2.7945,2.7868,2.7415,2.654,2.5385,2.4474,2.3611,2.2712,2.2315,2.2449,2.2338,2.2368,2.2435,2.2578,2.2595,2.2578,2.2734,2.2869,2.3459,2.4139,2.4761,2.538,2.5854,2.6352,2.609,2.5992,2.6195,2.6231,2.6059,2.5615,2.5077,2.4617,2.4265,2.4192,2.4539,2.5252,2.6048,2.7033,2.7934,2.853,2.9156,2.9686,2.9738,3.0245,3.068,3.091,3.1,3.1465,3.1755,3.2031,3.2696,3.3094,3.332,3.3014,3.2921,3.2848,3.2256,3.1602,3.1303,3.0797,3.0551,3.0215,2.9881,2.9572,2.938,2.9425,2.9633,2.9853,3.0044,3.0021,2.9626,2.9609,2.9333,2.8747,2.8772,2.8464,2.7578,2.7406,2.7195,2.7029,2.7085,2.7413,2.7829,2.8183,2.8388,2.8466,2.821,2.8055,2.8027,2.7904,2.795,2.8109,2.8219,2.838,2.8743,2.8938,2.9119,2.9293,2.9436,2.9514,2.9435,2.9605,2.9643,2.9731,2.9715,2.9697,2.9681,2.9681,2.9681,2.9608,2.9455,2.9353,2.9198,2.8873,2.8462,2.807,2.7585,2.7009,2.6354,2.5503,2.4727,2.3699,2.25,2.217,2.2443,2.259,2.2617,2.3501,2.3685,2.4181,2.4189,2.4448,2.4694,2.5216,2.5799,2.6405,2.6853,2.7032,2.7356,2.7296,2.7295,2.7444,2.7418,2.7308,2.6816,2.6369,2.5994,2.5679,2.5461,2.5348,2.5996,2.686,2.8017,2.8669,2.8874,2.948,3.016,3.0133,3.0929,3.1071,3.1336,3.1674,3.1934,3.2276,3.27,3.2988,3.3271,3.3853,3.3768,3.3938,3.3907,3.331,3.2389,3.1658,3.1257,3.0958,3.0617,3.0351,3.0097,2.9924,3.0081,3.0123,3.0267,3.051,3.0005,2.9683,2.9535,2.9237,2.8915,2.8987,2.8561,2.8288,2.8151,2.7757,2.7448,2.7522,2.7858,2.8317,2.8543,2.8569,2.8518,2.8492,2.8448,2.8344,2.8237,2.8228,2.8327,2.8371,2.8432,2.8576,2.8948,2.9148,2.9334,2.9419,2.9378,2.9169,2.9507,2.9848,2.9896,2.9896,2.9883,2.9836,2.9753,2.9699,2.9626,2.9415,2.9314,2.9334,2.9142,2.8732,2.8313,2.7829,2.738,2.6784,2.5959,2.5135,2.4528,2.3554,2.2817,2.2612,2.2755,2.3004,2.4,2.4886,2.5357,2.5832,2.6081,2.6339,2.6781,2.7104,2.7705,2.7894,2.8142,2.8272,2.8341,2.8428,2.855,2.8579,2.8495,2.825,2.7817,2.7412,2.7071,2.682,2.6771,2.695,2.7621,2.87,2.8932,2.8906,2.9662,3.0479,3.0668,3.144,3.1629,3.1918,3.2302,3.3128,3.3136,3.2959,3.4083,3.4627,3.453,3.4415,3.4177,3.3723,3.3389,3.2878,3.2052,3.16,3.1351,3.1038,3.0757,3.051,3.0342,3.0368,3.0493,3.0764,3.0818,3.0639,3.0096,3.0068,3.009,3.0146,3.0156,2.9858,2.9177,2.8972,2.8362,2.7936,2.7876,2.821,2.85,2.8743,2.8887,2.8863,2.8892,2.8845,2.8725,2.8658,2.8533,2.8518,2.8484,2.851,2.8569,2.8845,2.9123,2.9436,2.9608,2.9652,2.962,2.9859,2.9984,3.0056,3.0056,3.003,2.9953,2.9839,2.9754,2.9699,2.957,2.9494,2.9382,2.9083,2.8782,2.8401,2.7997,2.7475,2.701,2.6485,2.5746,2.5192,2.4679,2.4023,2.3452,2.3567,2.399,2.4858,2.5858,2.6608,2.7233,2.7779,2.7975,2.8209,2.8507,2.8827,2.8873,2.8977,2.9101,2.9164,2.9225,2.9388,2.9697,2.9641,2.9311,2.9075,2.8723,2.8404,2.8142,2.8131,2.8217,2.8742,2.9365,2.9393,2.9445,2.9745,3.0409,3.125,3.2118,3.2093,3.2452,3.3114,3.4261,3.4185,3.3541,3.5156,3.5771,3.5411,3.5133,3.4359,3.3381,3.3473,3.3195,3.2318,3.1894,3.16,3.1389,3.1157,3.0918,3.0838,3.0797,3.0942,3.1184,3.1031,3.0893,3.0884,3.0864,3.1087,3.1386,3.1351,3.1011,3.0315,2.9737,2.9148,2.8046,2.8237,2.85,2.8718,2.8975,2.9134,2.9203,2.9246,2.9206,2.9115,2.8989,2.8785,2.8676,2.8637,2.8637,2.8644,2.8887,2.9166,2.9456,2.9699,2.9888,2.9969,3.0099,3.0161,3.0194,3.0185,3.0094,3.0053,2.9926,2.9825,2.9771,2.9662,2.9645,2.9587,2.9206,2.9158,2.8715,2.8128,2.7508,2.7064,2.6902,2.671,2.6328,2.5828,2.5312,2.4871,2.4678,2.5059,2.5775,2.671,2.7697,2.8439,2.9055,2.9153,2.9228,2.9347,2.9585,2.9627,2.9692,2.9836,2.9896,2.9944,3.0066,3.0251,3.0357,3.0177,2.9997,2.9785,2.9666,2.9353,2.9394,2.9453,2.9679,2.9886,2.9993,3.0104,3.0229,3.0244,3.1921,3.3051,3.2362,3.3035,3.45,3.4822,3.5173,3.5129,3.5822,3.6096,3.5925,3.5931,3.5013,3.4038,3.3748,3.3434,3.2473,3.2127,3.1894,3.1691,3.1466,3.1329,3.1291,3.1368,3.1452,3.1541,3.127,3.1149,3.1273,3.1326,3.1247,3.1095,3.1898,3.1855,3.1229,3.0375,2.9503,2.8596,2.8543,2.8773,2.898,2.9178,2.9265,2.9372,2.9392,2.9332,2.9188,2.9107,2.8971,2.8845,2.8839,2.8785,2.881,2.9044,2.9312,2.9494,2.9735,2.9975,3.0157,3.0226,3.0292,3.0337,3.0253,3.0128,3.0083,2.9956,2.9874,2.9825,2.9753,2.9734,2.9734,2.9691,2.9673,2.9423,2.8916,2.8551,2.8143,2.7884,2.7675,2.7407,2.6954,2.637,2.5654,2.5336,2.5488,2.6162,2.7415,2.8429,2.9288,2.9873,2.9951,2.9999,3.0055,3.0182,3.0247,3.0264,3.0161,3.0215,3.0308,3.0442,3.0632,3.0684,3.0623,3.0582,3.0344,3.0453,3.0453,3.0069,2.9905,3.0178,3.0298,3.0136,2.9928,2.9836,2.9874,3.3043,3.3938,3.3871,3.4193,3.4772,3.5513,3.5408,3.5022,3.5911,3.5983,3.5469,3.5713,3.4996,3.387,3.3916,3.3618,3.2745,3.2352,3.2126,3.1893,3.1688,3.1538,3.1576,3.166,3.1597,3.1446,3.1198,3.0988,3.0914,3.1458,3.1828,3.2007,3.2438,3.2147,3.1599,3.0639,2.9584,2.8982,2.8767,2.8934,2.9156,2.9289,2.9373,2.9494,2.9626,2.9589,2.9513,2.9456,2.9275,2.9123,2.9119,2.9048,2.8957,2.9222,2.9394,2.957,2.9806,3.0038,3.0259,3.0286,3.0272,3.0221,3.0123,3.0053,3.0068,2.9924,2.9891,2.9874,2.9886,2.9883,3.0003,3.0065,3.0093,3.0028,2.9807,2.9445,2.9131,2.8781,2.8383,2.7995,2.772,2.7313,2.6548,2.5812,2.611,2.6529,2.7866,2.9042,2.973,3.029,3.0248,3.0325,3.0375,3.0428,3.0486,3.0442,3.0414,3.0501,3.0624,3.0703,3.0778,3.0774,3.0745,3.078,3.0765,3.0648,3.0508,3.0315,3.023,3.0207,3.0107,2.9961,2.9727,2.9456,2.9551,3.3481,3.4404,3.4374,3.4616,3.5138,3.5993,3.5797,3.5106,3.6185,3.6019,3.4906,3.5154,3.4516,3.3487,3.3494,3.3552,3.2909,3.2539,3.237,3.2144,3.1929,3.1783,3.1875,3.1933,3.1898,3.1384,3.115,3.1023,3.0964,3.1498,3.1928,3.2438,3.2993,3.2759,3.1888,3.0658,2.9637,2.9159,2.9052,2.9163,2.9372,2.9454,2.9551,2.9699,2.9789,2.9789,2.9717,2.9663,2.9514,2.9377,2.9314,2.931,2.9289,2.9312,2.9532,2.9717,2.9905,3.0123,3.0292,3.0362,3.0266,3.0234,3.0118,3.0094,3.0049,2.9937,2.9956,3.0019,3.0056,3.0131,3.0247,3.0263,3.0305,3.0237,3.0173,2.9861,2.9709,2.9408,2.8965,2.8555,2.8241,2.7834,2.7176,2.6355,2.6032,2.63,2.6922,2.8223,2.9422,2.9888,3.0125,3.0272,3.0488,3.0546,3.0605,3.0565,3.0525,3.0586,3.0691,3.0745,3.0791,3.0781,3.0747,3.0721,3.0695,3.0685,3.0506,3.0259,3.0121,3.0028,2.9864,2.9677,2.9418,2.9209,2.9336,3.3012,3.4102,3.3279,3.4001,3.5547,3.6333,3.626,3.5913,3.6622,3.6145,3.473,3.4408,3.383,3.314,3.3283,3.318,3.3064,3.269,3.2523,3.2472,3.2249,3.2214,3.2318,3.2348,3.2181,3.1689,3.1392,3.1263,3.1323,3.1597,3.2038,3.2661,3.3257,3.3151,3.247,3.1177,3.0145,2.9504,2.9435,2.9513,2.9626,2.9681,2.9773,2.9859,2.9907,2.9891,2.9857,2.9806,2.9662,2.9551,2.9551,2.9551,2.9551,2.9645,2.9805,2.9972,3.0085,3.0241,3.0398,3.0436,3.0394,3.0311,3.0196,3.0188,3.0188,3.0133,3.009,3.0161,3.0209,3.0263,3.0316,3.0361,3.0433,3.0435,3.035,3.0232,3.0059,2.9872,2.9404,2.9004,2.8572,2.8091,2.7531,2.6912,2.6197,2.6117,2.6296,2.7316,2.8826,2.9505,2.9784,3.0222,3.0466,3.0509,3.0552,3.0632,3.0674,3.0708,3.0735,3.0726,3.074,3.0735,3.0703,3.0644,3.0548,3.0477,3.0325,3.0152,2.992,2.9641,2.9514,2.9316,2.9097,2.9003,2.9163,3.4461,3.4957,3.421,3.4155,3.4621,3.4835,3.5018,3.5238,3.5705,3.5468,3.4625,3.4261,3.384,3.3412,3.3214,3.3183,3.3055,3.2993,3.2834,3.2654,3.2537,3.2488,3.2588,3.2695,3.2483,3.2002,3.1675,3.1801,3.2107,3.2107,3.2798,3.3555,3.3212,3.2478,3.2066,3.1351,3.0825,2.9714,2.9493,2.957,2.9681,2.9771,2.9859,2.9978,3.0007,3.0007,2.9991,2.9943,2.9839,2.9751,2.977,2.9769,2.9784,2.9845,3.0007,3.0109,3.0228,3.0285,3.0419,3.0501,3.0492,3.0392,3.0314,3.0297,3.026,3.0196,3.0222,3.0317,3.0385,3.0435,3.0539,3.0576,3.0602,3.0562,3.0481,3.0382,3.0218,3.0056,2.9741,2.9432,2.9042,2.844,2.7862,2.6932,2.6186,2.5984,2.617,2.7096,2.8491,2.904,2.9429,3.0037,3.0373,3.043,3.0494,3.0515,3.058,3.0607,3.0607,3.0632,3.0651,3.0613,3.0554,3.0452,3.0355,3.0227,2.9999,2.9748,2.9458,2.9219,2.9129,2.9034,2.8845,2.8839,2.9003,3.4553,3.4696,3.4014,3.3552,3.3373,3.3874,3.4391,3.4783,3.5003,3.4821,3.4465,3.4176,3.381,3.3472,3.3352,3.3322,3.3196,3.3086,3.3081,3.2925,3.2925,3.2957,3.305,3.3118,3.2861,3.2407,3.2329,3.2533,3.2587,3.2767,3.345,3.3902,3.3294,3.2708,3.206,3.1347,3.0562,2.9739,2.97,2.9771,2.9839,2.9907,2.9975,3.0022,3.0068,3.0117,3.0147,3.0098,3.0015,3.0,2.9996,2.9889,2.9804,2.9945,2.9998,3.0006,3.0278,3.0376,3.0591,3.0639,3.062,3.0525,3.0443,3.0413,3.0432,3.0433,3.0424,3.0482,3.0529,3.0556,3.0599,3.0644,3.0606,3.0561,3.0496,3.0402,3.0227,3.0056,2.9861,2.957,2.9277,2.869,2.8049,2.6969,2.6015,2.6004,2.6061,2.7125,2.8082,2.8588,2.9168,2.9845,3.0266,3.0321,3.0348,3.0364,3.0424,3.047,3.0433,3.0385,3.0385,3.0318,3.0298,3.0259,3.0102,2.9914,2.9607,2.9317,2.9007,2.8883,2.8879,2.8749,2.8594,2.8796,2.9089,3.3219,3.3424,3.2599,3.2178,3.2225,3.3419,3.4405,3.4972,3.4429,3.4317,3.4498,3.3796,3.3524,3.3447,3.3411,3.3393,3.3422,3.3256,3.3309,3.3361,3.3361,3.3494,3.3625,3.3725,3.335,3.2926,3.2827,3.3093,3.3017,3.3355,3.4024,3.432,3.3657,3.2825,3.19,3.1089,3.0259,2.992,2.9874,2.9924,2.9991,3.0064,3.0083,3.0113,3.0142,3.0213,3.0253,3.0241,3.0299,3.0304,3.0316,2.9813,2.9685,2.996,2.9747,2.981,3.0302,3.0584,3.0728,3.0746,3.0752,3.0665,3.0639,3.0658,3.0637,3.062,3.06,3.0603,3.0606,3.0547,3.0545,3.0502,3.0462,3.0442,3.0423,3.029,3.0131,2.9958,2.9765,2.9514,2.927,2.8765,2.8095,2.7127,2.6348,2.6551,2.6641,2.6874,2.7736,2.8195,2.8853,2.9764,3.0094,3.018,3.0237,3.0349,3.0279,3.0344,3.0093,2.9998,3.0011,2.9855,2.9534,2.9439,2.9683,2.9572,2.9168,2.8846,2.8582,2.8549,2.8712,2.8528,2.8398,2.9115,2.95,3.3799,3.3651,3.2686,3.2214,3.2125,3.2579,3.3003,3.3308,3.3468,3.3677,3.3719,3.3549,3.3517,3.3481,3.3422,3.3538,3.3595,3.3615,3.368,3.3762,3.3797,3.3815,3.3868,3.3928,3.371,3.3626,3.3617,3.3733,3.3971,3.4191,3.396,3.3941,3.3325,3.2469,3.1816,3.12,3.0589,3.0203,3.0209,3.0243,3.0202,3.0223,3.0185,3.0176,3.024,3.0286,3.0336,3.0359,3.0402,3.0394,3.0434,3.0201,3.0285,3.0416,3.0341,3.0372,3.0609,3.0758,3.0743,3.0772,3.0836,3.0859,3.0811,3.0723,3.0708,3.0771,3.0738,3.066,3.062,3.0563,3.0481,3.0432,3.0395,3.037,3.034,3.0228,3.0118,3.0117,2.9921,2.971,2.9447,2.8735,2.8082,2.7423,2.6796,2.71,2.7246,2.7277,2.7632,2.8176,2.8725,2.9663,3.0317,3.0522,3.0433,3.0475,3.0323,3.0157,2.9848,2.9555,2.9473,2.9211,2.8717,2.8515,2.8582,2.8675,2.8663,2.8318,2.7987,2.8499,2.8711,2.8423,2.8393,2.913,2.9725,3.3565,3.3293,3.2716,3.2386,3.2284,3.2456,3.2588,3.277,3.3135,3.3316,3.3411,3.3538,3.3741,3.4097,3.4154,3.4266,3.4357,3.4375,3.4352,3.4148,3.4148,3.4221,3.4221,3.4221,3.4232,3.4245,3.4293,3.4357,3.4486,3.4297,3.4073,3.3779,3.2778,3.2,3.1546,3.1402,3.1197,3.0954,3.0891,3.0837,3.07,3.0577,3.0491,3.0232,3.0311,3.0364,3.0411,3.0462,3.0485,3.0521,3.0575,3.0364,3.0256,3.0118,3.0454,3.0486,3.0703,3.0762,3.076,3.0756,3.0966,3.1175,3.1226,3.1472,3.1326,3.1288,3.0954,3.0693,3.0622,3.0562,3.0466,3.0384,3.0337,3.0299,3.0241,3.0163,3.0223,3.0311,3.0171,2.9946,2.9423,2.871,2.8062,2.7482,2.709,2.7018,2.7115,2.7291,2.7876,2.8686,2.9122,2.9783,3.0509,3.1024,3.0827,3.0622,3.0509,3.0114,2.9338,2.9074,2.8962,2.8601,2.8082,2.7683,2.7377,2.7503,2.7606,2.7547,2.7412,2.7981,2.846,2.8494,2.8612,2.9263,2.9748,3.2852,3.2705,3.274,3.2714,3.2645,3.2927,3.3019,3.2948,3.3086,3.3292,3.356,3.3799,3.4358,3.4907,3.4982,3.5024,3.4981,3.4914,3.4654,3.4517,3.4476,3.4542,3.4647,3.4749,3.4564,3.4647,3.4666,3.4604,3.4423,3.4149,3.3861,3.3723,3.2593,3.1821,3.1648,3.2134,3.2179,3.2205,3.242,3.2579,3.1604,3.1345,3.1155,3.0452,3.0394,3.0472,3.0554,3.0613,3.065,3.0689,3.0601,3.0302,3.0019,2.9799,3.0203,3.0423,3.068,3.0716,3.0716,3.07,3.1232,3.1587,3.1966,3.2168,3.2016,3.1586,3.1172,3.112,3.1115,3.1062,3.0983,3.0521,3.0312,3.0327,3.0343,3.018,3.0064,2.9995,2.972,2.9509,2.9115,2.8396,2.7619,2.7017,2.6988,2.683,2.6863,2.713,2.7796,2.8766,2.9442,2.9885,3.0779,3.131,3.1001,3.0808,3.0743,3.0233,2.9178,2.8756,2.8747,2.818,2.7506,2.6964,2.6467,2.6442,2.6486,2.6329,2.6458,2.727,2.7809,2.834,2.882,2.9351,2.9828,3.2834,3.2692,3.3123,3.3284,3.3318,3.3575,3.3366,3.2965,3.3327,3.3847,3.4407,3.4631,3.5128,3.5855,3.552,3.5491,3.5546,3.5226,3.4805,3.4747,3.4752,3.4752,3.4773,3.4697,3.4695,3.4711,3.4691,3.4597,3.4431,3.3998,3.3437,3.3047,3.2352,3.2148,3.1854,3.2613,3.3434,3.3388,3.387,3.341,3.1981,3.1571,3.128,3.0698,3.0482,3.0554,3.062,3.0697,3.0723,3.0771,3.0778,3.0623,3.0437,3.0341,3.0408,3.0586,3.0619,3.0633,3.0639,3.0697,3.1142,3.1618,3.1979,3.2339,3.2319,3.1837,3.1631,3.1671,3.1658,3.1597,3.1388,3.0825,3.0405,3.0479,3.044,3.0197,2.9937,2.9642,2.9337,2.9115,2.8776,2.7993,2.7223,2.6872,2.6873,2.6804,2.673,2.6943,2.749,2.8315,2.9351,3.0006,3.1166,3.1591,3.122,3.0757,3.0592,2.9888,2.8802,2.8561,2.846,2.7653,2.6803,2.6092,2.5631,2.5433,2.5099,2.4798,2.5142,2.6284,2.7134,2.768,2.8498,2.9121,2.9732,3.3575,3.3544,3.3548,3.357,3.3588,3.3714,3.3525,3.3262,3.3502,3.4109,3.488,3.5146,3.5687,3.6541,3.6186,3.608,3.6179,3.5606,3.5224,3.5021,3.4889,3.4964,3.4851,3.451,3.432,3.4321,3.4243,3.4168,3.4245,3.3598,3.2904,3.2699,3.2582,3.2281,3.2094,3.3421,3.4438,3.4337,3.496,3.4021,3.2383,3.219,3.1593,3.0984,3.0571,3.0633,3.0701,3.0755,3.0776,3.0759,3.0738,3.0653,3.0515,3.0471,3.0485,3.0507,3.0507,3.0524,3.0535,3.0664,3.1081,3.1697,3.2201,3.2651,3.3717,3.3313,3.2536,3.2506,3.2186,3.2087,3.2022,3.1597,3.1455,3.1481,3.0922,3.0452,3.016,2.9839,2.9935,3.0169,2.93,2.7719,2.6922,2.6063,2.6013,2.5813,2.5865,2.6928,2.7486,2.8132,2.912,2.9845,3.0823,3.156,3.1405,3.0826,3.0228,2.9384,2.8434,2.7744,2.7307,2.6704,2.6066,2.5163,2.4465,2.4001,2.3708,2.358,2.4422,2.5716,2.6432,2.7037,2.7906,2.869,2.9146,3.4297,3.4545,3.4061,3.3797,3.3769,3.3769,3.3686,3.3567,3.3716,3.4183,3.4932,3.5355,3.6093,3.6831,3.7239,3.725,3.6958,3.6211,3.5704,3.4963,3.4845,3.4539,3.4251,3.4077,3.3779,3.3691,3.3714,3.3734,3.379,3.3123,3.2711,3.2637,3.2334,3.1934,3.255,3.3568,3.4681,3.4672,3.4699,3.4096,3.3468,3.2996,3.1909,3.1103,3.0658,3.0715,3.078,3.0799,3.0797,3.0719,3.0633,3.0516,3.0452,3.0422,3.0398,3.0386,3.0389,3.0402,3.0422,3.0419,3.1303,3.2134,3.2557,3.3255,3.4219,3.4318,3.3535,3.3211,3.2889,3.2673,3.2631,3.2354,3.2279,3.2064,3.135,3.06,3.0243,2.9859,3.0145,3.0578,2.9265,2.7564,2.6455,2.5536,2.5326,2.5061,2.5507,2.663,2.7636,2.8404,2.9283,2.9505,2.9898,3.0551,3.1028,3.0425,2.9542,2.9041,2.8136,2.7041,2.6217,2.5828,2.5177,2.3971,2.335,2.2903,2.2732,2.2698,2.3812,2.4883,2.5506,2.6084,2.6885,2.764,2.823,3.3942,3.4498,3.4454,3.4411,3.4422,3.4548,3.4265,3.3781,3.4023,3.426,3.4581,3.5562,3.666,3.8047,3.8173,3.7961,3.7237,3.6521,3.5265,3.4289,3.4361,3.3879,3.3436,3.3303,3.2985,3.292,3.3137,3.3598,3.3292,3.2794,3.2877,3.3393,3.3031,3.3117,3.3924,3.4788,3.5329,3.5189,3.4579,3.3971,3.3251,3.259,3.1689,3.1076,3.07,3.073,3.0781,3.0795,3.0765,3.067,3.0516,3.0392,3.0321,3.0299,3.026,3.0292,3.0279,3.0273,3.0285,3.0292,3.1104,3.1728,3.2172,3.2943,3.3815,3.4562,3.4106,3.4127,3.3825,3.3543,3.3317,3.2673,3.2383,3.2093,3.1572,3.0648,3.0031,2.9455,2.9218,2.9128,2.8533,2.6983,2.558,2.5216,2.5379,2.5342,2.564,2.6763,2.8023,2.8787,2.9536,2.9376,2.931,2.942,2.9831,2.9352,2.8603,2.8271,2.7673,2.6391,2.5559,2.5217,2.441,2.3193,2.2332,2.1798,2.1735,2.1872,2.2529,2.3559,2.4297,2.5037,2.5793,2.6471,2.7092]}]]